GFSGL_sfc_temp_000.txt.gz
Temp
84 83 82 82 82 81 80 81 80 80 79 79 79 79 79 79 79 77 77 78 76 75 76 74 74 75 76 77 75 74 73 74 73 82 87 88 83 86 88 89 89 89 90
85 83 82 81 81 80 80 81 81 79 80 79 79 79 79 79 79 77 76 76 74 73 73 73 72 76 72 74 75 75 74 75 75 74 81 85 83 84 85 83 84 93 91
85 84 82 80 80 79 79 80 81 80 79 80 79 78 78 79 78 77 76 75 75 74 73 69 68 69 68 69 73 74 77 76 76 75 77 85 86 88 83 82 83 86 91
86 84 81 80 80 80 80 80 80 80 79 79 79 78 79 78 78 77 76 75 74 73 71 65 63 65 68 69 69 72 74 75 76 75 76 81 84 85 82 78 77 86 87
83 82 81 81 81 80 79 79 80 80 80 79 79 79 80 80 82 76 75 75 72 71 69 63 62 63 64 64 63 69 69 72 74 74 73 79 81 77 75 81 77 83 84
81 81 82 81 80 80 80 79 79 79 79 79 79 79 78 81 63 65 68 75 72 69 65 61 61 62 62 63 63 62 66 68 71 73 73 74 76 78 80 79 79 80 78
81 81 81 81 80 80 80 79 78 78 79 78 78 78 77 78 65 64 65 75 72 69 68 63 60 61 61 62 62 61 62 65 67 73 72 74 76 78 79 76 77 77 75
80 81 81 81 80 80 79 78 78 79 77 77 77 78 78 79 63 63 64 74 70 70 68 67 62 60 61 60 58 59 62 65 71 72 75 76 78 80 78 78 78 78 80
81 81 82 82 80 79 78 78 78 77 77 77 78 77 77 77 61 61 63 75 70 70 71 67 66 62 60 59 57 57 59 66 70 66 68 69 68 67 72 74 74 70 68
82 82 83 83 81 79 79 78 78 78 78 81 79 79 74 77 65 59 64 70 68 69 71 69 61 60 56 55 56 56 57 61 71 70 74 69 67 72 65 75 77 74 73
85 85 84 82 80 79 79 78 77 76 77 77 77 78 78 76 75 58 56 72 68 68 66 71 66 56 53 52 53 58 57 58 66 68 69 72 76 76 77 79 77 77 75
84 83 81 77 80 84 77 77 77 74 70 75 75 77 80 80 60 57 53 53 60 67 67 68 64 52 50 51 55 56 56 59 65 65 65 65 68 70 75 77 78 78 80
80 77 73 73 80 80 76 74 76 74 75 69 75 77 76 81 80 58 58 53 57 61 71 64 54 51 50 56 56 56 58 59 57 57 59 61 65 71 71 72 75 76 77
77 74 73 77 77 77 77 80 79 77 71 72 73 77 77 78 79 73 72 75 63 61 64 67 63 59 55 58 59 60 60 58 58 57 57 58 59 61 64 68 68 68 70
77 75 77 80 77 77 73 72 76 61 64 67 74 74 73 72 69 48 49 63 67 64 58 70 65 64 54 57 58 59 59 60 58 57 56 56 57 58 58 60 64 67 66
76 78 79 79 79 79 78 70 47 48 45 43 43 52 68 49 43 41 41 41 43 48 68 64 61 59 52 50 50 53 56 58 59 59 57 57 56 57 58 58 59 61 59
75 75 78 72 78 76 70 68 54 50 46 43 43 43 41 41 42 42 42 42 49 56 68 64 62 61 54 49 50 50 50 53 57 56 58 60 58 58 57 58 58 59 58
75 57 76 78 74 71 69 68 59 56 58 66 48 50 45 43 43 43 45 48 68 65 65 62 60 62 59 56 54 53 51 51 54 56 57 57 58 59 58 57 57 56 57
76 79 75 70 63 61 58 54 54 59 63 66 70 57 55 46 45 47 50 66 64 63 63 60 59 57 55 55 56 57 57 55 54 53 56 59 58 58 59 60 59 54 55
65 58 61 67 60 54 54 53 53 53 57 66 67 63 63 62 61 61 60 60 60 58 56 56 56 56 56 56 57 57 58 56 57 56 55 58 59 62 59 61 62 60 61
64 64 58 60 56 55 55 56 56 57 62 65 59 52 42 58 55 54 55 56 53 52 53 55 47 46 47 47 49 54 55 54 57 57 58 57 57 56 61 64 63 62 63
66 64 69 71 70 68 66 64 62 60 61 64 60 55 45 57 54 52 53 53 53 53 57 56 54 51 47 47 45 46 50 53 52 57 60 60 59 58 60 61 65 64 63
73 73 72 72 71 58 65 68 66 65 61 66 66 63 60 61 55 49 48 53 56 55 59 59 56 56 54 56 55 49 47 50 54 56 58 60 60 60 58 55 57 61 61
68 72 72 71 70 71 69 68 64 56 65 64 63 64 65 64 61 51 54 61 60 59 59 58 56 55 54 55 54 53 47 43 52 55 58 58 58 57 60 60 60 58 55
72 73 72 70 66 68 64 66 65 64 64 63 63 64 65 63 61 61 61 60 59 58 57 58 57 55 53 50 49 47 34 30 42 35 59 58 57 57 58 59 59 58 56
73 72 70 70 67 65 63 62 62 61 61 61 61 60 60 60 60 60 60 59 59 58 57 57 55 53 53 51 44 34 31 31 39 32 47 58 57 55 58 58 58 59 58

GFSGL_sfc_temp_003.txt.gz
Temp
86 86 85 84 85 84 82 82 82 82 81 81 81 80 81 80 81 79 77 78 76 75 75 75 75 75 76 76 73 71 70 71 68 73 72 77 76 79 73 82 89 88 90
89 86 85 84 83 83 82 82 82 81 82 81 81 80 80 81 80 79 77 78 76 72 75 73 72 75 70 70 68 70 70 70 69 67 72 78 79 80 79 80 86 89 90
89 87 85 83 82 81 81 82 82 81 81 81 81 80 79 80 79 78 78 76 74 75 75 73 71 69 64 62 62 68 69 70 69 68 69 77 82 82 81 81 82 84 86
91 88 85 83 82 82 82 82 82 82 81 80 80 80 80 80 80 80 78 76 75 76 75 72 71 68 63 60 60 61 63 67 68 68 69 71 75 81 82 73 72 81 84
88 86 84 84 83 82 81 81 82 82 81 81 80 81 81 82 84 77 78 77 75 74 75 74 72 67 65 62 60 59 59 59 60 68 68 69 73 73 72 81 72 77 80
85 84 84 84 83 82 82 82 82 81 81 81 80 80 80 83 66 67 71 75 75 73 73 73 71 67 65 63 63 62 62 59 59 59 68 68 71 74 75 75 74 75 73
84 84 84 83 82 82 82 82 80 80 81 80 79 79 79 80 64 67 69 74 74 73 72 71 72 70 66 65 62 63 63 63 63 63 60 66 72 75 77 75 76 76 76
83 83 83 83 82 82 82 80 80 80 79 78 79 79 79 80 63 64 66 73 73 73 71 72 69 68 68 64 61 60 62 63 64 68 70 67 69 78 78 75 76 76 77
83 82 83 83 82 82 81 80 80 80 79 78 79 75 78 76 61 61 65 75 74 72 72 72 72 68 65 60 59 59 61 61 64 62 63 63 67 66 73 76 70 72 71
84 84 85 84 83 82 81 80 81 80 79 81 79 80 72 78 69 59 64 76 73 73 73 70 66 67 59 56 57 58 57 59 59 61 66 66 66 71 64 72 75 69 71
87 87 85 84 83 82 81 68 70 78 78 77 77 77 77 71 66 58 57 73 75 73 72 67 74 56 52 52 53 58 57 57 59 64 67 74 75 73 74 73 74 74 73
86 85 85 83 84 85 78 77 79 77 75 73 73 76 62 66 64 59 56 55 62 70 71 72 70 52 49 52 55 56 55 59 58 59 65 67 69 71 75 76 75 77 76
84 83 83 82 82 81 79 76 78 76 73 61 70 70 74 72 70 61 58 56 54 66 74 66 56 51 54 58 56 55 58 59 57 56 56 57 60 68 74 74 75 76 76
82 81 80 79 77 80 76 82 78 75 68 78 74 72 65 73 70 71 72 72 68 67 69 71 64 60 55 56 56 57 58 57 58 56 55 57 59 59 64 67 68 70 71
80 80 79 81 79 77 77 73 75 64 63 71 72 72 72 72 65 48 49 63 65 63 56 69 69 64 57 55 53 55 55 55 55 58 57 56 57 58 58 61 66 69 69
79 80 81 82 82 82 70 71 47 48 44 42 43 52 64 48 44 42 43 42 42 46 64 69 67 64 57 53 53 52 53 54 56 56 57 58 56 56 56 57 59 61 58
77 78 81 76 80 74 73 70 68 57 46 44 44 45 44 43 43 43 45 46 45 50 70 68 65 62 58 57 54 53 52 53 55 57 57 57 58 57 56 55 56 56 56
78 60 79 80 75 73 73 70 68 65 63 60 48 51 47 46 45 45 45 51 66 65 68 64 61 60 57 55 55 55 55 57 54 54 58 59 58 57 58 55 55 55 56
79 78 77 75 74 70 72 69 66 56 58 58 63 51 51 46 47 45 50 66 61 61 62 61 60 59 57 58 57 57 57 57 57 56 57 58 58 58 58 58 57 53 54
73 62 68 75 71 70 67 62 59 60 59 57 56 60 64 61 59 60 60 59 57 58 58 55 53 51 49 49 50 54 55 55 57 59 59 58 59 60 59 60 60 59 58
77 73 62 72 69 67 65 59 63 66 66 66 56 52 42 55 56 57 57 58 56 56 57 59 55 50 49 47 47 48 52 55 53 56 59 60 58 53 58 60 63 62 57
78 73 71 71 69 70 71 70 67 68 67 66 58 54 46 55 55 55 58 60 60 59 63 61 60 58 59 54 53 52 50 52 56 57 58 60 59 60 58 56 59 61 60
68 67 69 69 71 60 68 70 71 69 69 67 66 64 61 56 56 57 59 63 64 63 62 62 59 59 60 59 58 54 51 50 55 58 59 59 59 59 60 60 58 57 57
65 64 66 68 71 69 71 70 69 56 65 67 66 67 66 65 61 59 62 64 63 62 62 61 59 57 56 57 56 55 49 44 51 53 56 60 59 58 60 59 60 58 58
77 74 70 70 69 69 70 67 68 67 67 67 67 66 67 66 65 64 64 63 62 62 60 60 60 58 54 51 49 48 36 31 42 35 52 60 59 58 60 61 60 59 60
74 73 71 71 70 69 67 67 66 65 65 65 65 65 64 63 63 64 63 63 63 61 60 60 58 56 55 52 45 35 32 32 39 32 42 59 57 56 58 59 59 61 60

GFSGL_sfc_temp_009.txt.gz
Temp
73 72 72 71 71 70 70 70 69 69 70 70 70 69 69 68 68 67 67 67 66 64 65 64 64 63 60 60 59 57 56 55 55 60 62 67 68 69 72 72 71 73 71
73 73 71 71 71 70 69 70 70 69 70 70 69 68 68 69 68 67 67 68 66 64 64 63 64 66 61 60 58 57 55 56 56 54 59 62 62 66 70 69 71 76 72
75 73 71 71 71 70 70 70 70 70 69 69 69 68 68 68 68 68 66 66 65 65 64 63 63 62 60 59 58 57 56 57 56 55 56 61 61 63 64 68 68 69 72
77 75 72 71 70 70 70 70 70 69 69 68 68 68 68 68 68 68 67 65 66 66 65 64 64 62 61 59 58 57 56 55 54 54 55 57 59 63 62 62 64 67 69
77 75 74 72 70 70 70 70 70 69 69 69 68 68 68 69 73 68 69 69 67 64 64 64 64 65 67 63 59 59 56 57 54 54 55 57 58 59 57 60 61 66 67
76 75 73 72 70 69 69 69 68 69 69 68 68 68 68 72 69 70 67 64 64 63 62 62 62 66 65 66 66 66 63 57 55 54 56 55 57 57 59 58 59 62 62
70 73 74 74 71 70 70 69 68 68 68 68 67 67 67 66 66 66 67 63 62 61 61 61 61 64 64 61 63 64 64 63 63 59 56 57 57 59 59 58 59 60 64
69 70 72 70 70 70 68 68 68 67 67 66 66 67 66 67 64 63 63 61 61 62 62 61 61 61 61 60 58 57 58 59 60 62 61 61 61 62 60 60 60 60 64
68 71 71 71 70 68 67 67 67 67 66 66 67 66 65 64 60 59 60 60 59 59 61 62 62 60 59 58 55 54 56 58 63 62 61 61 61 61 60 58 58 58 59
69 71 70 70 69 68 68 68 68 67 67 65 65 65 64 61 60 59 59 58 56 58 59 61 61 57 55 54 54 54 56 55 57 59 60 60 61 60 62 60 59 59 61
71 70 71 70 70 70 69 67 67 66 61 61 63 64 64 63 59 58 57 57 58 57 57 62 57 54 52 52 52 54 54 55 56 57 57 58 59 59 61 60 60 59 61
72 72 71 71 74 74 68 68 67 64 62 61 61 62 60 62 57 57 57 54 57 54 55 59 54 51 51 52 52 53 54 55 55 55 56 56 57 57 58 61 62 62 63
71 71 71 72 72 70 67 66 63 63 62 61 60 59 58 58 57 57 56 56 57 55 55 55 53 51 52 52 54 54 54 54 54 54 54 55 56 58 59 63 62 62 65
64 69 70 70 68 68 64 62 61 60 59 59 59 57 57 55 51 51 53 53 55 54 53 51 56 55 54 53 53 54 54 53 53 52 53 55 57 58 57 58 60 64 64
62 66 67 66 64 58 54 54 59 49 51 55 53 54 53 51 50 45 46 49 48 48 46 52 55 50 48 50 53 53 52 52 52 52 53 53 54 57 57 57 57 57 58
62 65 64 64 61 58 54 50 46 46 43 43 44 51 49 48 45 44 44 43 43 44 48 50 48 48 47 51 52 52 52 52 51 52 52 52 52 54 57 57 57 56 55
65 63 63 61 62 60 55 52 48 47 46 44 45 46 48 47 46 44 45 44 47 51 50 48 46 48 50 50 50 52 51 52 51 52 52 51 51 53 55 56 56 55 55
64 60 62 61 61 59 59 58 56 52 50 50 45 46 46 45 44 44 47 51 53 51 47 45 44 45 48 47 47 47 49 52 52 51 54 54 51 51 52 55 55 55 55
63 61 61 58 58 58 57 56 55 54 53 53 50 48 47 46 46 47 49 50 49 47 46 44 45 43 45 46 46 47 48 50 52 54 54 54 53 51 51 53 52 50 52
60 61 61 59 61 59 56 55 53 52 52 51 50 50 48 49 48 50 51 50 50 49 46 44 42 41 41 41 43 47 47 48 50 50 52 53 53 54 53 51 51 50 50
61 60 61 59 57 56 55 54 54 53 52 53 52 46 43 47 46 46 48 48 48 50 48 47 44 42 41 41 41 41 42 44 44 44 45 47 50 51 52 53 53 52 50
62 60 61 61 57 56 58 56 55 55 54 51 47 45 46 47 46 46 52 54 53 52 51 47 45 44 42 40 38 37 37 38 39 41 42 43 48 48 50 51 52 52 53
63 60 57 55 56 57 59 60 56 58 56 54 53 48 47 47 46 45 47 48 52 47 46 45 43 41 41 39 37 36 34 34 34 39 38 41 46 47 48 47 49 49 50
59 58 57 55 56 58 59 54 53 55 56 54 52 51 49 49 48 48 48 48 47 47 46 43 42 40 39 37 36 35 32 30 33 35 37 40 43 45 47 48 47 49 48
61 59 59 59 55 54 55 53 53 53 53 54 53 52 51 50 49 49 48 48 47 46 45 44 41 41 39 38 35 34 32 31 35 35 37 42 44 44 45 46 47 46 48
64 64 62 58 56 54 53 53 53 52 52 52 52 50 50 49 48 48 48 48 46 46 46 44 44 42 41 38 35 34 32 32 33 33 36 43 41 41 43 44 46 46 47

GFSGL_sfc_temp_012.txt.gz
Temp
69 68 68 68 68 67 66 67 67 66 67 67 67 67 67 67 67 65 64 65 64 63 63 62 62 61 59 59 58 56 55 54 52 55 55 60 60 61 63 63 66 68 70
71 70 69 68 68 67 66 67 67 66 66 67 67 66 66 66 65 65 64 65 64 63 63 62 62 64 59 58 57 56 55 55 54 55 58 57 57 61 61 61 65 69 69
70 71 68 68 68 66 66 67 67 67 67 66 66 65 66 66 65 65 65 65 64 63 63 61 61 61 59 58 57 56 56 56 55 56 56 58 58 60 59 60 61 63 67
72 71 69 70 70 68 67 67 67 67 66 65 65 66 66 66 66 66 65 63 63 66 64 62 62 61 60 59 58 58 57 55 56 56 56 57 56 60 59 56 57 60 61
71 71 69 71 71 68 68 70 67 66 66 66 66 65 66 66 70 66 65 65 63 63 63 63 62 63 66 62 59 58 56 56 57 58 57 59 57 59 56 61 57 59 61
71 71 69 69 71 69 70 69 66 66 65 65 65 65 65 69 68 66 66 63 63 62 61 61 61 65 64 65 65 64 62 57 57 56 58 57 58 59 61 58 57 56 54
71 71 68 68 70 69 70 68 67 65 65 65 65 65 65 65 64 63 65 61 61 60 59 59 60 62 63 61 62 63 62 63 63 58 56 57 56 59 60 57 57 56 57
67 68 69 71 70 71 71 68 67 65 65 64 64 64 63 65 63 61 63 61 60 59 59 59 59 59 59 59 57 56 56 56 56 58 59 61 62 63 61 58 57 57 59
67 67 68 71 71 70 68 66 66 64 63 63 64 64 62 63 60 61 60 59 58 57 58 59 59 58 59 59 55 54 53 54 60 60 60 60 60 61 60 58 56 55 54
66 68 71 73 72 69 67 66 65 65 66 63 62 62 62 62 58 58 58 57 55 55 57 58 58 57 55 54 52 51 53 56 54 55 57 58 60 60 61 59 58 55 55
67 69 70 70 70 71 69 65 66 63 60 61 62 63 63 61 60 56 55 56 56 55 54 54 53 54 52 51 51 50 53 54 55 55 56 57 59 58 57 59 59 59 56
66 68 69 69 72 72 67 65 62 61 61 60 61 59 60 59 56 55 54 52 54 53 53 52 51 51 50 51 51 53 54 54 54 54 54 54 55 55 56 58 60 60 62
61 60 61 62 63 65 65 63 61 61 59 59 58 58 57 56 53 53 53 53 55 52 52 52 52 50 50 50 53 54 54 53 53 52 51 52 54 55 57 59 60 60 61
62 62 61 62 61 62 63 62 61 60 59 58 57 55 54 51 50 50 51 50 52 52 51 48 53 53 52 51 50 51 53 52 51 51 52 53 54 55 55 58 57 58 57
61 62 61 61 63 59 56 55 56 50 52 54 53 53 53 50 50 47 46 48 47 46 47 50 49 48 46 46 46 50 51 49 48 49 51 51 51 52 54 57 57 56 55
60 60 60 61 59 56 51 48 45 45 43 43 46 49 48 49 46 45 43 42 41 42 47 46 45 45 44 44 44 49 50 48 46 48 50 51 50 51 52 55 56 56 55
59 59 61 59 58 55 51 50 49 49 45 43 43 45 46 45 44 43 42 43 44 47 45 43 42 42 41 41 41 46 47 50 49 48 49 50 50 51 52 52 52 53 54
61 57 58 58 57 54 52 51 50 49 48 48 45 45 44 45 44 44 46 48 47 45 43 41 41 40 40 40 41 42 47 49 51 50 47 52 47 50 50 50 51 50 52
59 59 59 57 57 55 54 54 53 51 50 48 47 46 46 45 45 45 47 51 47 43 42 41 42 42 40 40 40 41 44 43 46 47 47 48 49 47 49 49 49 49 49
60 59 57 56 55 54 53 53 52 51 49 47 47 47 51 47 46 46 46 47 45 44 44 44 43 41 40 39 38 38 40 40 41 42 43 44 47 48 48 48 49 48 48
59 60 59 57 54 53 52 51 50 50 49 47 47 46 45 46 44 44 44 44 45 44 43 41 40 39 39 37 35 35 36 37 37 38 40 42 44 45 48 49 51 50 49
60 59 59 59 57 54 54 53 54 50 50 48 44 44 43 44 44 44 45 52 51 46 43 41 39 38 36 35 34 34 34 34 34 36 37 40 43 44 45 47 48 50 50
58 57 56 55 55 54 54 56 57 52 52 52 50 48 45 44 43 43 45 47 45 43 41 40 38 36 35 34 33 32 32 31 32 34 35 39 41 42 44 45 47 47 47
55 54 54 53 53 53 54 57 55 51 52 54 51 47 45 45 45 45 45 45 43 42 40 39 38 36 35 33 33 32 31 31 32 32 36 40 40 41 43 43 45 46 46
56 56 54 53 53 52 51 50 50 50 50 49 49 48 46 46 45 45 45 44 42 41 40 39 37 38 36 35 34 33 32 31 34 35 37 40 41 41 42 41 42 45 45
59 60 58 58 57 55 54 49 49 48 49 48 47 46 47 46 45 45 44 43 42 41 40 38 38 39 38 36 34 33 31 31 34 33 37 39 39 40 41 41 43 42 43

GFSGL_sfc_temp_015.txt.gz
Temp
69 66 65 65 66 65 65 65 65 64 65 65 65 65 65 65 65 63 63 63 62 61 61 61 61 61 59 58 57 56 54 53 51 52 54 56 55 57 60 60 61 61 62
71 67 65 65 65 66 65 66 65 65 64 65 65 65 65 65 64 63 63 63 63 62 62 61 61 63 60 58 57 56 55 54 53 52 54 56 55 58 59 57 61 65 62
70 67 65 66 67 68 67 66 66 65 65 66 65 64 64 65 64 64 63 63 62 62 62 61 61 60 59 58 57 56 56 57 54 55 57 61 61 59 57 58 58 59 63
71 68 67 67 67 69 69 67 66 65 65 64 64 65 65 65 65 64 63 63 62 63 62 61 61 60 60 59 58 58 57 56 54 55 57 60 60 60 58 55 55 61 60
70 68 68 67 67 70 69 69 68 67 67 66 65 65 64 65 67 64 64 63 62 62 62 61 61 63 65 62 59 58 57 56 55 57 56 58 57 58 56 60 58 60 61
71 69 67 67 66 68 68 68 68 65 67 65 64 64 64 67 66 65 65 62 62 61 60 60 60 64 63 65 65 64 61 56 56 56 58 56 56 56 59 58 58 56 54
70 68 67 67 67 67 69 68 67 68 66 66 65 64 64 64 63 63 65 61 60 59 58 58 58 61 62 60 61 62 62 62 62 57 55 55 54 58 58 56 58 56 56
67 67 67 67 66 67 70 69 68 67 65 66 65 63 63 64 61 61 63 61 59 59 58 58 57 57 58 58 57 55 55 55 55 57 55 56 58 60 58 59 57 56 57
67 67 67 68 67 67 67 67 67 66 64 64 63 61 62 62 59 59 59 59 58 57 56 57 57 56 59 60 54 53 52 53 59 59 59 58 59 59 60 57 55 54 53
67 66 67 68 69 67 68 66 66 65 66 63 61 62 61 63 60 57 57 57 56 55 55 56 58 56 56 54 51 49 52 52 54 56 56 56 58 59 61 58 56 53 53
65 65 65 65 65 65 65 65 64 63 61 61 61 62 62 61 61 56 55 56 55 55 54 52 53 54 52 52 52 49 50 52 54 54 55 55 56 57 57 57 58 56 54
65 64 62 64 66 65 64 62 61 61 62 60 60 60 60 59 55 54 53 54 55 53 52 51 51 51 49 51 51 53 54 54 53 53 52 52 53 53 56 56 58 58 60
61 60 61 61 63 63 62 60 59 59 61 60 59 57 56 55 52 52 52 52 54 51 51 51 51 49 49 51 52 54 53 52 51 48 50 51 52 53 54 56 58 59 59
61 61 61 61 60 60 61 60 60 61 60 58 57 56 54 52 51 50 51 49 52 51 50 47 52 52 51 52 48 48 51 51 48 46 48 51 52 52 52 55 55 56 57
60 60 60 61 61 60 52 51 56 52 53 57 56 55 53 50 51 48 47 48 47 45 47 48 47 45 46 44 44 45 50 46 44 45 47 48 49 50 52 53 54 54 55
58 57 57 58 58 57 53 49 46 45 43 43 47 50 48 48 46 44 43 42 40 41 46 46 44 43 41 40 40 42 45 49 47 45 45 47 46 48 50 52 53 52 53
57 57 56 57 57 56 52 49 48 47 43 41 43 44 46 45 44 43 41 42 42 45 48 42 40 40 39 39 39 39 41 45 49 48 43 45 46 46 49 49 50 51 52
58 55 58 58 56 54 52 51 50 49 47 47 43 44 43 44 44 44 45 47 47 46 46 44 40 39 38 38 39 38 39 40 41 43 42 45 45 44 47 47 49 49 50
58 57 56 56 56 54 53 51 50 49 47 46 46 45 45 44 44 44 45 46 44 42 44 40 40 39 38 38 37 38 38 38 39 38 41 42 43 42 43 46 47 48 49
56 56 56 55 54 54 54 52 50 49 48 46 47 47 45 46 46 45 44 44 43 42 41 40 40 38 37 37 35 35 36 36 36 36 38 39 42 43 44 44 46 46 47
56 55 57 55 53 52 52 52 51 50 49 47 47 46 45 45 44 43 43 43 43 42 41 40 39 37 35 34 33 33 34 34 34 35 37 38 40 41 44 45 47 47 46
56 55 54 53 53 55 54 53 51 51 49 47 45 46 43 44 43 43 43 44 49 46 41 39 37 35 34 33 33 33 33 33 33 34 36 38 39 41 42 44 45 46 47
55 54 54 53 54 53 52 51 51 51 52 51 50 50 48 43 43 42 43 44 42 40 39 38 36 34 33 32 32 32 32 31 31 32 34 38 39 39 40 40 42 43 44
54 54 53 53 54 52 51 52 52 52 50 48 48 49 48 45 43 43 43 42 41 40 39 37 36 34 33 32 32 31 31 31 31 32 36 38 38 39 40 40 40 42 42
52 52 53 54 54 50 50 49 49 48 48 49 48 46 45 44 43 43 43 41 40 39 38 37 35 36 35 34 33 33 34 31 34 35 36 38 39 40 40 39 40 41 42
57 57 53 56 54 52 49 52 51 48 47 46 46 45 46 45 44 43 42 40 39 38 38 36 37 37 37 36 35 34 31 31 34 33 36 38 38 38 39 40 41 40 40

GFSGL_sfc_temp_018.txt.gz
Temp
70 69 69 68 68 67 67 67 66 66 67 67 67 67 67 67 67 66 66 67 66 65 66 65 65 65 65 64 63 62 59 58 56 63 62 64 63 64 65 65 66 65 67
72 69 68 68 68 66 66 67 67 67 67 67 67 67 67 68 67 66 67 68 66 65 66 65 65 67 64 64 63 62 60 59 57 57 63 63 61 64 64 62 64 68 67
72 69 67 66 66 66 66 66 66 66 66 67 67 67 67 67 67 67 66 66 66 65 66 65 65 65 64 64 63 61 61 61 59 58 60 64 64 66 64 64 63 64 66
72 70 67 66 65 65 66 66 67 66 66 66 67 67 67 67 67 67 67 66 66 66 66 65 65 65 64 65 63 62 62 60 59 58 59 61 62 64 64 61 61 65 65
71 69 68 66 67 66 66 66 67 66 67 67 67 67 67 67 69 67 67 66 66 66 66 66 66 65 66 65 63 63 61 60 60 59 59 61 61 63 61 64 62 63 64
70 68 67 67 66 66 65 65 66 68 67 67 67 67 67 69 66 65 67 67 66 65 65 66 65 65 65 64 65 65 64 61 60 59 61 59 60 62 63 61 61 59 59
70 67 66 66 65 65 65 65 66 67 69 68 67 67 67 67 63 63 65 67 66 65 64 63 63 64 64 64 63 62 63 62 63 61 58 59 59 61 61 59 59 59 59
68 66 66 65 65 66 66 65 67 68 68 67 66 67 66 66 61 60 63 66 66 65 63 62 62 61 62 62 62 61 61 61 61 62 60 60 61 61 60 60 58 57 58
67 66 66 66 66 66 66 65 66 66 66 65 66 66 65 66 59 59 61 64 63 63 62 61 61 61 59 59 60 59 58 59 61 59 59 59 59 58 59 57 57 55 53
67 67 68 68 67 66 66 66 66 66 66 65 63 63 62 64 59 57 60 62 61 61 60 60 58 58 55 54 57 55 54 57 57 58 59 60 59 60 59 59 57 53 53
68 68 68 68 67 67 65 65 65 64 64 62 62 62 62 62 63 57 56 59 61 60 59 60 58 55 52 52 52 55 54 55 56 56 57 59 58 59 60 61 60 55 53
67 66 66 66 66 66 65 64 64 63 62 62 62 62 62 62 57 57 52 55 58 60 60 58 57 51 50 51 53 52 54 55 55 55 55 54 53 56 58 58 57 56 57
64 64 65 66 66 66 65 62 61 60 61 61 62 62 62 60 57 51 50 51 52 58 58 55 51 48 49 52 52 53 53 54 53 51 50 52 54 55 55 55 57 57 57
63 62 63 63 62 63 62 61 60 60 61 61 62 60 59 57 56 57 57 56 54 56 54 54 54 53 52 53 52 52 54 54 52 49 50 51 53 53 52 54 52 54 54
63 62 61 61 60 55 51 53 59 55 57 61 60 60 58 56 56 53 52 55 54 51 51 53 53 54 52 52 52 51 52 53 50 51 49 49 51 51 50 53 53 52 52
60 60 60 60 59 57 54 50 45 44 44 43 45 54 55 50 46 45 44 43 41 42 51 53 52 51 50 50 49 50 52 51 51 51 50 50 49 48 48 50 52 51 51
61 60 59 59 59 56 55 53 51 48 42 41 43 45 47 46 43 42 41 41 40 44 54 51 51 50 49 49 49 49 49 49 48 50 48 50 50 49 48 48 49 50 51
61 54 60 60 60 56 55 54 53 53 52 52 44 46 43 43 43 42 42 47 52 51 52 51 50 49 48 48 48 48 48 49 49 48 48 49 49 48 47 48 48 47 49
61 61 60 60 58 55 55 53 54 53 52 52 52 48 46 43 42 43 44 54 53 51 50 50 49 49 49 48 47 46 46 47 47 47 48 48 49 48 48 48 47 47 48
60 58 57 58 56 55 54 54 53 53 52 53 53 54 52 51 53 52 51 51 52 51 50 50 49 48 48 46 45 45 47 46 46 47 47 48 49 50 50 49 49 48 47
60 59 58 59 57 57 56 56 55 55 54 54 54 52 47 54 52 51 51 51 51 51 50 50 48 48 46 45 45 46 46 46 46 46 47 48 48 49 50 51 52 52 50
60 60 59 59 57 56 57 57 56 56 56 54 54 52 42 55 53 52 51 52 54 53 52 50 48 47 47 46 45 46 46 45 45 45 46 48 49 50 50 51 51 51 52
59 58 57 56 56 54 56 56 54 57 57 56 55 55 52 53 52 52 52 53 52 50 49 48 46 45 44 45 45 44 45 45 44 43 45 47 49 49 50 50 50 50 50
59 58 56 56 55 55 55 55 57 53 58 57 55 55 55 54 53 52 52 52 50 50 48 47 47 46 44 44 45 45 45 45 44 45 45 47 49 48 50 50 50 49 50
58 58 58 57 56 56 56 56 57 57 57 56 55 54 54 54 53 53 52 51 50 49 47 47 46 46 44 44 44 45 40 32 40 37 48 49 49 49 50 50 49 50 50
60 59 58 57 57 56 55 55 54 56 56 54 54 54 53 54 53 53 52 50 50 49 48 47 47 46 46 46 46 40 33 32 40 34 49 50 50 50 50 50 50 50 50

GFSGL_sfc_temp_021.txt.gz
Temp
82 82 81 80 78 73 77 71 71 73 74 76 75 76 77 77 77 75 75 76 74 75 75 74 74 75 77 77 75 75 74 72 69 74 78 75 71 72 74 76 76 75 77
84 82 79 76 71 76 77 75 71 71 72 73 73 75 76 77 77 75 75 76 74 74 75 74 74 77 73 73 73 71 74 73 70 67 73 74 73 73 73 72 74 77 77
85 82 78 71 75 72 71 71 70 71 70 71 72 73 74 76 75 75 75 75 74 73 75 75 75 75 73 73 74 74 75 73 70 66 70 75 74 74 72 73 73 74 76
86 81 76 73 73 74 72 69 67 67 68 69 70 71 73 74 75 75 75 74 74 76 76 76 76 75 74 73 73 71 71 71 70 64 66 71 73 73 72 71 71 76 75
82 80 77 73 74 73 72 70 67 67 71 71 70 71 73 74 77 75 75 75 75 75 77 76 76 74 70 70 74 73 71 71 72 70 69 72 72 72 70 73 70 73 74
80 78 76 73 73 73 73 72 70 67 68 70 69 70 73 76 69 67 72 76 76 75 75 76 76 70 69 66 65 65 67 68 68 67 69 68 64 68 72 70 69 68 66
79 77 73 73 73 73 74 71 71 69 70 71 71 71 73 73 66 65 66 76 76 76 75 74 73 77 68 72 68 64 64 63 64 66 62 64 66 68 67 64 63 62 63
77 75 74 73 73 74 73 71 71 71 71 73 73 73 73 75 64 62 64 73 73 75 74 74 73 72 71 68 69 70 71 71 70 71 69 68 68 68 66 63 59 60 65
76 74 74 74 73 72 71 71 72 70 72 73 74 73 73 74 59 59 61 65 64 66 71 71 70 70 63 60 67 67 68 69 67 60 60 59 59 59 60 59 58 63 65
76 75 75 74 73 72 72 71 72 71 71 76 74 73 69 72 58 57 60 62 62 62 64 64 60 64 57 57 65 66 65 67 66 66 67 66 65 66 62 64 63 58 65
78 76 74 74 73 73 71 71 70 70 72 72 72 71 70 70 63 56 56 60 61 60 63 70 71 56 53 53 53 65 63 61 63 65 67 69 69 69 70 70 67 66 62
73 73 72 72 73 73 71 71 71 70 70 69 68 65 73 72 58 56 55 55 61 68 71 73 68 53 51 52 56 54 54 56 66 66 66 66 66 67 69 68 65 64 65
74 72 70 71 71 71 69 70 69 69 70 68 64 67 71 67 65 53 52 52 54 67 72 63 53 50 50 54 54 53 53 65 65 64 64 64 65 67 65 65 65 64 63
72 71 72 71 70 70 71 73 71 71 70 69 67 70 65 64 68 65 64 65 56 62 57 66 60 58 53 56 60 62 65 64 62 62 63 64 66 66 65 66 64 60 56
72 72 71 70 69 64 60 61 69 67 64 71 70 67 65 69 69 61 62 69 70 62 62 67 66 65 65 65 65 64 64 64 62 63 63 63 64 64 64 65 63 60 54
70 71 71 71 69 65 63 60 45 45 44 45 46 61 65 51 46 47 46 44 44 44 62 66 66 65 65 64 63 63 64 60 62 61 62 62 62 62 62 62 62 56 54
71 70 72 70 67 63 62 65 64 53 43 42 43 45 48 47 43 42 42 40 40 45 65 65 65 64 64 63 63 62 62 61 58 61 61 61 61 61 60 60 61 50 57
70 57 72 72 72 65 63 67 68 66 64 62 46 50 42 42 42 42 42 46 59 58 65 64 63 62 62 63 62 61 60 61 61 60 61 61 62 60 60 60 61 55 55
73 73 72 73 72 66 66 66 69 67 66 64 62 53 49 42 42 44 45 65 64 64 64 63 63 62 63 62 60 59 57 59 57 59 60 61 62 61 60 60 61 54 53
70 62 65 71 67 67 67 67 68 67 65 66 66 66 64 59 64 64 65 64 64 65 63 61 61 62 62 60 58 58 60 60 60 60 60 61 61 62 61 61 62 58 58
74 73 64 72 71 71 70 69 69 68 68 67 68 65 54 66 66 65 64 63 64 63 61 62 62 62 61 59 59 61 61 61 60 59 60 60 61 60 61 62 62 61 58
74 71 73 74 72 70 70 70 69 70 69 69 68 63 44 64 67 65 64 64 65 64 65 62 63 62 62 61 60 61 60 59 59 58 58 60 61 61 61 62 61 62 62
74 70 70 69 69 61 67 70 69 68 66 65 68 67 63 65 66 65 64 65 65 64 63 62 61 61 60 60 60 59 58 58 57 57 57 58 60 59 61 60 60 60 60
73 72 70 68 66 67 67 66 68 60 64 64 69 68 68 67 66 64 65 64 63 63 62 62 62 60 58 58 59 61 60 58 57 58 56 58 59 58 61 60 60 60 61
72 71 71 69 67 67 66 69 69 67 64 70 70 69 70 68 67 66 65 64 63 61 60 61 62 58 56 55 56 55 45 33 45 38 59 59 58 58 59 61 60 60 60
73 72 72 71 70 69 68 69 69 69 71 71 71 70 69 68 67 66 65 64 63 62 61 61 60 57 56 57 55 45 34 32 44 33 54 61 60 60 60 59 59 60 60

GFSGL_sfc_temp_024.txt.gz
Temp
90 89 88 88 88 84 85 85 84 82 79 79 80 81 80 80 81 79 80 81 80 79 80 79 78 79 81 84 84 82 81 81 76 80 83 84 80 79 80 81 81 81 83
92 89 88 88 87 84 83 81 82 80 79 76 75 75 76 80 81 80 79 82 79 78 79 79 78 81 78 77 81 78 79 79 78 72 77 79 79 80 79 78 79 83 82
93 91 89 87 85 82 81 82 79 79 79 72 74 74 76 79 79 79 79 78 78 79 80 79 79 79 78 80 79 80 82 79 79 76 74 79 79 81 79 78 78 79 82
96 92 88 85 83 84 83 79 80 80 78 75 74 76 76 78 78 80 79 79 79 81 80 80 81 80 79 78 78 77 77 76 76 77 77 75 76 75 73 73 75 82 81
93 92 88 85 83 82 83 81 81 80 79 77 73 75 77 78 82 79 80 78 78 79 80 81 82 80 74 73 79 78 76 76 78 77 76 76 74 72 70 78 76 78 78
91 90 87 84 81 82 81 79 78 79 76 76 76 77 78 81 72 69 76 80 79 79 79 80 81 74 71 67 67 66 68 70 70 71 74 70 69 72 76 74 73 72 71
89 87 85 83 80 80 81 79 78 76 78 78 76 77 78 79 66 66 69 79 79 77 76 75 75 72 74 77 69 65 65 64 64 69 68 70 70 72 71 66 67 69 69
86 85 84 82 80 80 79 78 77 77 77 76 77 77 78 79 65 64 66 75 74 73 69 69 67 67 71 73 73 75 75 76 74 74 72 72 73 73 70 69 67 64 67
84 84 83 82 80 79 78 78 78 77 76 75 76 76 75 77 62 61 65 74 71 66 66 67 67 66 66 63 71 72 73 74 72 63 62 62 61 61 63 68 66 63 64
85 84 84 83 81 79 77 77 77 78 74 78 76 77 71 78 58 58 66 72 69 65 64 64 61 60 61 59 69 71 70 73 74 73 72 69 65 70 62 66 65 61 63
88 85 83 82 79 77 77 77 77 76 74 75 76 75 76 74 74 56 57 70 73 75 64 63 68 59 55 54 55 70 68 66 67 70 73 76 76 76 76 73 72 72 69
85 83 81 79 79 77 75 74 73 71 70 72 74 71 72 76 63 55 54 56 65 68 70 77 71 55 52 53 57 57 56 56 70 73 74 73 74 74 75 74 71 70 72
82 79 77 75 76 76 73 72 70 70 70 69 70 69 72 73 69 54 52 53 55 69 72 57 54 52 51 54 54 56 54 69 72 71 71 72 73 74 71 72 73 72 72
77 75 74 72 71 72 73 72 71 68 67 67 69 72 69 69 66 70 69 58 58 64 58 70 64 60 57 57 62 61 69 72 70 69 70 71 72 72 72 73 71 72 70
76 76 72 70 69 66 63 63 71 65 65 73 76 74 71 72 74 61 62 77 77 67 70 74 72 72 72 71 72 72 71 71 69 70 69 69 70 70 70 72 70 70 67
77 76 77 77 78 79 75 69 45 47 45 46 48 65 59 51 47 47 47 44 45 46 67 72 73 73 72 72 71 70 70 66 69 68 68 69 68 68 68 69 70 67 63
80 79 80 78 80 78 78 77 74 57 44 43 43 45 47 46 44 43 42 41 42 47 70 74 72 72 70 71 70 70 69 69 65 67 67 67 68 68 67 67 67 66 65
79 62 81 81 80 79 78 78 79 74 72 68 48 54 43 42 42 41 41 45 65 60 72 72 72 71 70 69 69 68 68 68 68 67 67 68 68 67 67 66 67 65 63
80 81 81 81 80 76 79 79 79 77 75 72 66 57 49 42 42 43 44 71 72 73 74 72 72 71 70 69 67 66 64 66 64 65 67 67 68 68 67 67 67 57 57
78 65 73 81 78 78 78 78 78 76 75 74 74 73 69 62 69 70 72 73 72 72 74 70 71 70 68 66 65 65 65 66 67 67 67 67 67 68 68 67 68 67 67
83 78 69 81 80 80 79 79 79 78 77 76 76 74 59 73 73 73 73 72 72 74 71 70 70 68 67 65 65 66 67 68 68 67 67 67 67 67 68 68 68 69 69
83 82 82 82 81 79 79 79 78 78 78 77 76 68 50 71 75 74 72 72 74 72 74 69 68 69 68 67 66 67 68 68 67 65 65 66 67 67 67 68 68 68 68
84 83 82 82 81 69 76 79 79 78 77 77 76 74 70 71 73 73 72 72 72 72 72 70 68 67 69 67 68 67 65 66 65 64 63 64 66 65 67 66 66 66 66
83 82 81 79 77 78 78 77 77 66 75 74 75 74 72 70 72 73 72 72 71 71 70 69 69 67 65 65 67 67 68 64 63 65 62 63 65 63 66 66 66 65 66
83 81 79 79 77 76 77 76 76 74 74 75 74 72 75 73 72 74 73 72 71 69 68 68 69 66 63 62 64 63 42 35 51 39 62 64 63 63 65 66 65 66 65
84 82 80 79 78 75 75 75 74 73 75 72 73 76 76 76 75 75 73 72 71 70 69 69 68 65 63 64 62 43 35 34 47 33 54 65 65 65 65 65 64 66 65

GFSGL_sfc_temp_027.txt.gz
Temp
91 90 89 90 90 89 90 89 88 89 87 85 83 83 82 79 81 79 80 82 81 80 80 79 78 80 81 83 82 77 78 73 70 77 83 84 79 81 82 81 83 81 83
93 91 90 90 90 89 88 89 88 86 85 84 83 82 82 82 80 78 78 83 80 79 78 78 79 82 79 77 81 78 80 80 78 73 77 79 79 80 76 78 81 84 83
94 93 91 90 89 88 88 88 88 85 83 83 82 81 81 79 79 79 79 79 80 80 80 79 80 80 78 80 79 79 81 79 75 75 77 81 81 81 78 79 74 77 83
97 95 90 89 88 89 89 87 86 84 82 81 81 81 80 79 81 79 81 80 80 80 81 81 81 80 79 78 78 77 78 77 77 76 76 78 77 79 78 73 73 77 76
97 95 92 90 89 89 87 86 84 84 82 82 81 80 80 81 84 79 82 80 79 79 81 82 82 79 73 73 79 77 76 76 78 77 76 77 77 72 70 75 74 78 78
95 94 92 90 88 86 86 86 83 83 82 82 81 79 79 83 73 71 77 80 80 79 79 80 78 73 73 68 66 65 68 68 68 71 72 71 70 73 76 75 74 72 69
95 93 92 89 86 84 85 84 81 81 81 80 80 79 80 81 66 68 70 81 81 80 77 77 73 73 69 69 66 65 64 65 65 70 68 70 70 72 72 70 70 69 69
91 92 91 88 85 82 83 83 81 81 79 78 80 79 79 80 64 64 68 79 79 80 79 77 74 72 69 67 65 65 66 69 72 72 72 71 73 74 70 70 68 67 70
90 90 89 88 85 83 80 81 81 80 77 79 80 79 77 76 63 62 67 79 78 77 78 72 74 70 65 63 63 62 64 69 75 68 66 64 64 64 65 70 68 66 63
89 89 89 88 85 83 81 81 79 79 77 75 75 77 70 74 62 59 66 75 76 79 77 74 63 69 60 59 66 68 67 71 72 76 75 70 65 68 63 67 69 66 66
90 89 87 86 84 84 80 81 77 74 73 74 73 73 74 73 74 57 57 75 78 77 78 73 70 59 56 55 58 70 69 67 70 72 73 75 77 77 79 72 68 70 69
89 87 85 84 85 82 78 77 75 73 74 74 71 72 75 77 64 57 55 57 65 73 77 70 70 57 54 54 57 62 58 58 70 72 73 74 75 76 77 76 72 72 73
86 83 82 83 83 79 75 72 72 73 75 74 75 72 73 74 75 55 53 54 56 66 68 60 54 53 53 54 54 58 56 68 70 71 72 73 74 75 73 72 73 72 72
82 80 79 77 76 77 76 74 76 73 71 70 70 71 76 72 75 70 66 60 56 61 59 68 65 63 60 59 66 62 67 71 72 70 69 72 74 73 73 74 72 72 72
80 79 76 77 77 72 67 67 74 72 68 76 72 71 71 73 72 58 60 66 67 65 72 76 74 73 73 72 72 70 65 68 71 72 71 70 70 71 71 72 71 71 69
78 78 75 75 75 78 74 68 46 48 45 47 50 68 69 54 47 45 45 46 49 50 72 74 75 76 70 68 65 64 67 70 71 71 69 69 68 68 68 70 71 69 67
81 79 82 80 83 82 81 78 73 58 46 44 44 45 50 50 45 45 42 43 43 49 71 74 75 74 68 67 66 71 72 72 68 69 68 68 68 68 68 68 69 68 67
83 68 81 83 85 84 83 82 81 75 73 69 50 55 44 44 43 43 42 46 66 61 73 75 75 73 73 73 72 72 72 71 70 70 69 69 69 68 68 68 68 67 67
81 84 86 85 85 81 83 83 84 81 79 74 67 58 50 43 44 44 44 69 75 75 76 76 75 74 73 73 71 69 68 67 66 66 67 69 69 69 68 69 69 59 61
83 71 77 85 82 82 83 83 83 81 79 77 74 73 68 61 68 69 70 74 74 75 75 74 73 72 70 69 68 67 67 67 68 68 69 69 69 69 69 69 69 68 68
84 83 71 85 83 83 83 82 81 80 78 77 75 72 61 72 75 75 76 74 73 75 74 72 71 71 70 68 68 67 68 68 69 68 68 68 68 68 68 69 70 70 70
84 83 84 85 82 78 77 77 78 79 77 73 67 68 54 74 77 76 75 75 76 74 74 72 71 71 72 69 69 68 68 68 68 67 66 67 68 69 68 69 69 68 69
85 84 81 77 70 66 79 82 76 75 75 75 70 70 74 75 76 75 74 76 76 75 75 74 71 70 71 70 69 69 66 68 67 66 65 65 67 67 67 68 68 67 67
75 79 76 73 72 74 76 74 75 65 75 74 74 75 74 74 76 75 72 75 75 75 75 73 72 71 70 68 69 69 68 66 65 66 63 65 66 65 67 67 67 67 67
85 80 78 75 73 78 78 79 73 73 74 75 77 73 74 77 73 75 74 72 75 74 72 72 72 70 67 66 68 66 46 38 55 39 63 65 65 65 67 67 66 68 66
85 82 81 75 75 72 74 73 70 68 69 76 72 74 77 74 75 75 75 73 75 75 73 73 71 69 68 67 66 44 35 38 49 34 54 62 66 66 64 66 66 68 67

GFSGL_sfc_temp_030.txt.gz
Temp
86 86 85 85 86 84 86 85 84 84 83 80 80 80 80 79 78 76 76 76 75 74 75 75 74 75 73 74 74 73 72 71 66 69 71 74 74 73 75 75 75 74 75
88 86 85 85 85 85 84 86 86 83 82 80 80 79 79 78 78 76 75 77 76 74 74 74 74 77 73 73 73 72 72 71 69 67 70 71 72 73 73 72 74 79 73
89 88 86 85 85 84 84 84 85 84 82 82 80 78 78 78 77 76 76 76 76 74 75 74 74 74 73 73 73 72 71 71 70 68 67 71 71 72 71 71 71 71 75
92 89 86 85 85 85 85 84 85 84 82 80 79 78 78 78 78 77 77 76 75 76 76 75 75 74 73 72 71 69 69 68 68 65 66 68 69 71 70 67 66 69 70
90 88 87 86 85 85 84 84 84 84 82 80 79 78 78 78 80 76 77 76 74 75 75 76 76 76 73 70 71 70 68 66 64 64 66 67 68 67 65 68 67 68 68
89 88 87 86 85 85 84 84 83 83 81 79 78 77 77 80 73 71 75 76 76 74 74 75 76 74 70 67 67 66 67 64 63 62 62 64 65 65 67 66 65 65 63
88 88 87 86 84 84 84 83 82 80 80 78 77 77 76 76 69 68 71 76 75 75 74 74 75 76 71 70 66 65 65 65 65 64 60 61 63 65 65 64 64 63 62
88 88 87 86 85 84 83 82 81 81 78 77 77 76 76 77 64 65 68 73 72 74 74 75 73 73 71 69 68 67 67 67 65 64 63 63 65 68 66 65 63 62 64
88 88 88 87 84 83 81 81 80 78 77 76 77 76 75 76 62 62 65 70 69 71 73 74 74 73 69 63 67 66 66 66 68 64 64 65 64 64 65 64 63 61 61
89 89 88 86 84 82 81 80 81 80 77 77 76 75 71 73 61 60 63 68 67 70 72 72 64 69 61 60 66 67 65 66 67 69 68 67 64 65 64 64 65 62 60
90 89 87 85 83 83 80 79 78 77 76 74 73 73 74 72 72 58 58 69 70 69 69 69 72 59 57 56 58 66 65 63 65 66 67 67 68 69 70 70 66 63 61
87 86 84 83 84 83 78 77 75 73 73 72 71 71 73 72 64 56 56 57 63 69 70 70 69 58 54 54 56 62 58 59 64 65 65 66 67 67 67 66 65 65 65
84 82 81 81 80 78 76 75 72 73 71 69 70 70 69 72 72 57 53 54 57 65 66 57 53 53 53 54 56 60 57 62 63 63 64 64 64 65 65 64 65 65 65
81 80 80 78 75 75 74 75 73 71 70 70 71 72 71 71 71 68 67 61 57 62 58 60 61 62 62 63 61 58 62 64 64 64 63 64 65 64 63 63 61 61 60
80 77 75 75 73 66 60 58 71 64 64 72 73 74 72 72 72 65 64 66 66 64 65 68 64 65 65 64 65 66 65 64 62 63 64 63 62 62 61 62 60 60 59
75 76 74 71 71 68 66 62 47 48 46 46 50 67 60 53 48 47 47 48 51 56 64 66 65 66 66 63 63 64 63 63 62 63 63 62 60 60 59 60 59 59 58
74 75 75 75 76 73 72 69 63 54 47 45 45 50 53 49 46 45 45 46 49 55 68 68 68 68 64 66 65 64 62 62 63 64 63 62 61 60 59 59 59 58 58
78 65 77 78 78 78 76 73 69 65 66 63 49 51 44 44 44 44 45 50 64 60 67 69 68 69 69 66 65 66 65 64 64 63 62 61 61 60 59 59 59 58 58
81 82 78 80 80 78 79 78 77 74 71 65 61 56 48 44 44 45 45 65 68 71 70 71 70 69 67 67 65 64 63 62 60 60 60 60 61 61 59 60 60 56 56
80 71 77 81 80 80 80 80 80 76 71 68 68 65 63 60 63 64 64 65 70 71 70 68 68 66 65 64 63 62 62 62 61 62 61 61 61 61 61 61 61 60 59
78 77 68 80 80 80 80 80 81 78 74 74 73 69 58 67 69 70 70 69 70 71 68 68 66 66 66 64 64 63 62 63 63 63 62 60 60 60 61 61 62 62 62
80 80 82 83 81 79 79 80 79 80 79 75 71 65 52 70 74 73 70 72 71 69 71 67 67 67 67 64 64 64 63 63 63 61 60 60 60 61 61 61 62 61 61
76 78 74 74 75 66 69 62 76 71 65 72 71 69 66 71 74 72 68 69 67 70 70 69 68 67 67 65 65 63 62 62 61 61 60 59 60 60 60 60 61 60 60
81 79 74 68 64 71 74 65 73 64 73 73 70 70 70 73 74 72 70 72 70 67 70 69 69 69 65 64 64 65 63 60 60 59 57 57 59 60 60 60 61 60 60
76 71 77 71 69 69 69 72 77 76 76 73 67 69 68 72 69 69 73 72 70 70 70 69 69 69 66 65 64 56 42 39 52 42 57 57 57 59 60 60 60 60 61
78 77 77 78 71 72 74 73 71 72 69 73 69 69 70 70 68 73 73 72 72 72 71 70 69 69 68 66 64 44 35 38 47 38 49 55 57 60 59 58 61 61 61

GFSGL_sfc_temp_033.txt.gz
Temp
82 82 82 81 81 80 80 78 76 79 77 77 78 75 74 73 73 71 69 69 69 68 69 68 67 68 67 67 67 66 65 64 61 63 65 67 68 69 71 72 71 69 69
83 82 81 81 81 80 81 81 82 78 77 78 77 75 75 73 73 71 70 72 70 68 68 67 67 71 66 66 65 65 65 65 63 61 63 65 67 69 68 68 70 74 69
83 83 81 80 81 81 80 81 81 80 77 77 76 75 74 74 73 73 72 69 69 70 70 68 67 67 66 66 66 66 65 66 64 63 61 64 65 65 65 66 66 66 71
84 83 81 81 81 82 82 81 78 80 79 76 76 76 75 74 74 72 71 69 68 69 71 70 69 68 66 66 66 65 65 63 63 61 60 61 62 65 63 61 61 62 65
84 83 82 82 82 82 81 80 81 79 80 77 75 74 74 74 75 71 71 70 69 69 71 74 73 72 72 69 67 65 64 62 60 59 58 59 59 62 60 61 59 61 63
85 83 83 82 81 81 80 80 79 80 79 76 74 73 72 76 70 70 72 71 70 71 71 70 71 73 71 70 69 67 65 61 59 58 58 58 59 63 64 60 58 57 55
86 84 83 82 81 80 80 80 78 79 78 75 74 73 70 73 68 67 70 71 71 71 71 72 71 73 67 65 65 65 65 65 65 60 58 58 59 60 61 61 61 60 59
84 83 83 82 81 80 80 79 79 80 75 74 74 74 70 70 65 64 68 72 68 69 71 69 68 67 66 64 64 62 63 63 62 63 61 61 60 62 61 62 60 58 57
82 82 82 82 81 80 80 79 78 76 76 74 71 70 70 71 64 62 64 67 66 66 68 69 69 66 64 63 63 62 61 62 65 63 63 63 62 63 63 58 57 53 52
85 83 84 83 82 80 80 78 76 75 74 72 71 72 70 73 62 61 62 66 65 65 67 68 66 66 61 60 62 60 60 60 61 62 62 61 61 61 63 59 63 53 55
85 82 82 83 81 80 78 78 76 73 72 71 71 72 73 74 67 58 58 67 65 65 66 66 66 60 57 56 58 61 61 60 60 58 58 59 59 59 61 63 60 57 54
81 81 79 79 80 78 76 74 73 73 71 69 69 67 68 70 64 57 56 60 64 67 66 65 64 58 54 54 56 59 58 59 57 57 57 57 56 58 63 63 63 60 58
79 78 78 78 77 76 72 71 70 69 68 66 67 66 66 68 68 57 55 56 58 64 65 59 55 54 53 54 56 57 58 55 54 55 54 54 56 63 62 58 58 58 57
76 76 73 73 72 71 70 71 70 70 69 67 67 66 65 66 64 60 58 57 57 58 57 55 56 57 56 57 54 55 54 54 55 54 55 55 55 55 55 55 54 53 51
75 71 70 69 64 59 56 63 67 60 64 69 68 67 65 65 64 60 59 60 60 58 57 56 55 55 54 54 54 54 57 57 55 56 58 54 53 53 53 54 52 51 49
69 69 66 65 63 61 60 55 47 48 46 48 51 60 55 55 51 50 50 51 53 54 57 58 55 55 55 56 56 56 60 61 59 59 57 55 53 52 52 52 51 49 48
69 67 66 65 66 64 62 60 56 53 47 45 45 48 51 47 46 46 46 47 51 54 56 57 57 56 56 56 58 60 57 56 58 59 53 52 52 52 52 50 51 49 50
70 64 72 70 69 67 65 62 60 58 57 54 46 47 44 44 45 45 46 52 55 55 55 55 56 56 56 56 55 55 53 53 52 51 51 51 51 50 50 50 50 48 49
72 72 71 72 71 68 68 64 62 62 57 52 50 49 44 44 44 46 46 55 55 55 55 55 55 55 54 54 53 52 52 51 51 51 50 49 51 49 49 50 49 51 50
68 67 67 70 70 70 68 65 65 62 57 55 54 52 51 51 53 53 53 54 55 55 55 55 54 53 53 53 52 51 51 51 50 49 49 49 49 49 50 49 50 49 48
68 67 67 67 67 68 68 69 70 65 62 59 59 57 52 57 55 54 55 55 57 56 55 55 54 54 53 52 52 52 51 51 49 49 49 49 49 49 49 49 50 50 49
67 66 67 70 70 68 69 67 70 68 65 64 61 57 49 56 57 57 57 58 58 57 57 56 55 54 53 52 51 51 50 49 49 48 48 49 49 49 49 49 50 49 49
63 64 66 67 65 62 61 61 63 61 62 62 64 60 56 58 58 60 63 62 62 61 57 56 55 53 52 52 52 51 49 49 47 47 47 47 47 48 48 48 48 48 49
63 64 63 62 61 60 61 62 62 59 63 64 62 61 60 60 60 60 60 60 59 58 58 56 56 54 53 51 51 49 49 47 47 47 47 46 46 47 48 48 48 49 49
64 63 64 62 61 61 62 63 63 65 64 63 60 61 60 62 61 64 60 60 59 57 57 56 56 56 55 52 49 47 41 38 45 44 45 46 46 47 47 48 49 48 50
67 66 65 67 66 64 62 62 64 62 64 65 61 60 60 63 62 62 63 60 59 58 57 56 57 56 56 53 50 43 36 37 42 40 42 43 44 46 47 49 50 49 50

GFSGL_sfc_temp_036.txt.gz
Temp
81 80 80 79 79 80 78 77 77 77 77 76 76 76 74 72 70 69 67 68 66 66 67 66 66 65 65 64 64 63 62 62 60 62 62 65 66 67 68 68 68 67 67
81 81 80 80 79 79 79 80 78 78 75 77 77 76 74 73 71 70 68 70 67 66 66 65 66 68 65 63 63 63 63 62 61 59 60 62 63 66 65 65 68 71 67
82 81 80 79 79 79 79 80 78 78 74 75 76 75 74 73 72 71 70 68 68 67 67 66 66 65 64 63 63 62 63 64 62 60 60 61 62 63 64 63 64 65 68
82 81 79 79 79 79 80 79 80 80 75 75 75 75 75 74 73 72 71 68 68 68 68 68 70 68 65 65 66 63 63 62 61 60 59 59 60 62 61 60 62 61 61
81 80 80 80 80 80 79 79 79 79 79 76 75 74 73 73 74 71 72 70 69 67 67 69 72 71 70 68 68 65 63 62 61 59 58 57 57 58 58 60 62 63 63
81 80 81 80 79 79 79 78 78 77 78 74 74 73 71 75 70 68 72 71 69 69 68 66 72 71 70 68 68 67 66 63 61 58 59 56 57 58 58 59 59 59 58
82 81 81 80 78 78 79 78 76 77 76 72 72 72 71 74 67 67 69 70 68 69 67 66 68 73 69 69 66 64 64 64 63 60 58 58 58 58 59 57 57 57 56
81 81 81 79 79 79 78 77 76 77 76 73 72 72 71 72 65 64 67 71 68 67 67 67 68 68 66 66 65 64 64 63 63 63 61 61 60 60 59 59 58 57 56
81 81 81 80 79 78 77 77 77 77 76 74 72 72 71 71 63 63 64 69 65 65 66 67 68 66 63 62 64 63 62 62 63 62 62 62 61 62 62 58 58 52 52
82 82 81 81 79 78 78 78 78 77 75 73 72 73 70 72 61 60 62 66 66 66 64 67 63 65 60 59 65 63 62 62 61 61 62 60 61 60 61 58 57 53 52
84 83 82 81 80 80 79 79 76 76 73 72 71 70 69 68 66 59 58 67 66 65 65 65 66 59 56 56 58 63 62 60 61 58 57 56 57 57 58 57 56 55 52
83 81 80 80 81 80 79 76 75 74 72 70 67 67 68 69 61 56 56 60 63 65 65 65 65 57 54 54 56 58 57 59 56 55 53 54 54 55 57 57 57 57 60
81 80 79 80 80 79 76 74 73 72 69 68 67 66 66 68 65 57 55 57 58 65 66 61 55 52 51 54 54 56 56 55 54 52 51 51 52 55 55 55 55 55 54
80 77 77 77 75 75 75 73 71 70 68 67 67 66 66 66 65 61 58 57 56 59 58 58 57 57 54 56 56 55 55 54 52 51 51 52 53 52 52 52 52 51 49
75 74 73 72 72 66 60 65 69 65 66 67 67 67 65 65 64 59 58 60 60 57 58 58 56 54 54 53 53 54 52 52 52 52 52 52 51 51 51 50 49 48 46
71 68 66 65 63 61 60 56 49 50 51 49 54 61 58 56 50 49 47 48 49 50 57 56 54 53 54 53 53 52 52 55 52 52 53 51 50 50 50 49 47 46 45
67 66 64 63 62 61 60 58 56 51 46 46 45 48 51 49 47 46 45 46 47 52 56 55 56 55 54 54 54 53 54 54 54 52 50 50 50 50 49 48 47 46 47
66 60 65 63 62 61 60 59 61 62 58 52 47 46 45 45 45 45 46 50 54 54 53 53 53 53 52 53 52 50 50 50 50 50 52 50 48 48 48 47 47 45 45
67 66 65 64 64 61 61 59 60 59 55 51 51 48 45 43 44 45 48 55 54 53 52 51 51 51 51 50 50 50 50 50 50 49 47 47 46 46 46 46 46 48 47
66 63 66 66 63 62 61 61 59 56 55 55 55 51 48 51 51 52 53 53 53 52 52 52 51 51 51 50 49 49 49 48 47 46 46 47 46 45 46 46 46 45 45
65 64 62 65 66 64 63 61 59 57 54 54 54 53 49 56 54 54 52 52 54 53 53 52 51 50 50 49 48 48 48 47 46 46 46 45 45 46 45 45 46 46 45
65 62 61 62 62 65 64 64 61 59 58 58 55 53 46 54 53 53 54 55 55 55 55 53 51 51 50 49 49 48 47 47 45 45 45 45 45 45 45 45 46 45 45
63 64 64 63 61 59 59 60 61 63 60 58 58 56 53 54 54 53 55 56 55 54 53 53 52 50 49 49 49 48 47 46 46 46 46 45 44 44 44 44 44 45 45
61 62 61 61 60 61 61 61 60 57 60 62 59 58 59 59 56 57 56 57 56 55 53 53 52 52 50 48 47 47 47 45 45 47 46 45 44 43 44 44 44 45 45
61 62 61 60 60 59 60 60 59 62 63 63 61 59 57 56 56 56 57 59 59 56 54 53 52 53 52 50 48 47 42 37 44 42 44 44 44 45 44 44 44 45 46
64 62 62 61 61 60 59 61 59 58 58 58 61 61 60 58 57 58 57 58 57 57 56 54 53 54 52 50 49 43 36 37 42 40 42 42 43 43 43 44 45 46 46

GFSGL_sfc_temp_039.txt.gz
Temp
80 80 79 78 78 79 76 75 75 75 73 73 74 74 72 71 69 68 66 66 65 65 65 64 64 64 63 62 62 61 60 60 59 61 60 62 64 65 67 66 67 66 66
80 80 79 79 78 78 77 76 76 76 75 75 74 74 73 72 71 70 68 69 66 64 64 64 64 66 63 62 62 62 61 60 60 59 59 61 62 64 64 63 66 69 66
81 80 79 78 77 78 79 79 75 77 76 75 75 75 74 72 71 71 70 69 67 67 66 65 65 64 63 62 62 62 62 62 60 59 60 60 61 61 62 62 63 63 67
81 80 79 78 78 78 79 79 78 76 75 75 75 75 75 74 73 72 71 69 68 68 67 67 65 65 64 65 63 64 62 63 60 60 58 59 59 60 60 59 60 60 62
80 79 79 79 79 79 78 78 79 78 76 75 74 74 74 74 74 72 71 70 69 68 67 68 66 68 69 68 67 65 63 63 62 60 59 58 58 58 58 58 57 58 59
80 79 80 79 78 78 78 77 77 77 77 74 73 73 72 74 70 68 72 71 70 68 67 66 67 69 69 67 67 67 67 63 62 59 58 58 59 60 57 57 57 56 55
80 79 79 79 78 77 78 77 76 76 77 74 74 73 72 73 66 66 69 72 70 67 66 65 65 70 67 67 66 66 65 65 64 61 60 58 60 59 59 56 56 56 55
79 79 79 78 78 78 77 77 77 76 76 75 73 73 72 71 64 64 67 71 68 67 68 67 66 65 66 66 66 64 64 62 62 62 62 62 61 61 59 59 57 57 57
79 78 79 78 78 77 76 76 77 78 77 76 73 71 71 70 62 62 64 69 67 67 67 66 66 65 64 63 64 62 62 62 62 61 61 61 61 61 61 59 59 56 52
79 80 80 79 78 77 77 77 78 78 79 76 73 72 69 71 60 59 65 68 67 66 65 64 63 65 59 59 63 63 62 62 62 62 62 60 60 59 61 59 57 53 51
83 82 80 80 79 79 78 79 77 77 76 75 73 72 72 71 62 57 60 67 67 66 65 64 64 59 56 55 59 64 63 62 62 60 58 56 55 56 56 55 55 54 51
81 80 79 79 79 79 78 76 76 76 75 74 72 71 70 68 60 57 57 62 62 64 64 64 64 55 53 53 56 58 57 59 58 56 54 53 52 53 54 55 55 58 58
80 79 79 79 80 80 76 75 75 75 74 72 70 68 68 67 65 57 55 58 59 65 65 62 56 51 50 52 55 56 56 57 55 53 51 51 51 53 52 53 54 53 52
73 75 76 77 76 75 76 76 75 75 73 70 69 67 67 66 64 60 59 58 58 60 58 58 57 57 55 56 56 56 57 55 53 52 50 51 51 51 51 50 50 49 47
71 70 70 70 71 58 54 53 65 66 69 69 68 67 66 66 66 60 58 60 62 57 58 60 57 56 54 54 53 55 53 53 52 51 51 51 51 49 49 48 48 46 45
71 71 69 63 62 61 62 61 52 53 55 52 54 59 64 57 52 51 48 48 49 50 59 58 57 53 53 53 52 52 51 54 51 51 51 51 49 49 48 48 46 44 44
65 64 63 62 63 64 65 64 60 56 53 50 48 48 51 52 47 46 46 48 47 52 56 55 54 53 53 53 52 52 52 52 52 51 51 49 48 48 47 46 45 44 44
64 58 63 63 63 63 62 62 62 62 60 57 47 51 49 47 45 45 44 48 55 53 54 54 54 54 54 53 52 51 51 49 48 48 48 48 47 47 46 45 44 43 42
66 65 64 63 62 61 61 60 59 58 57 52 52 49 46 43 43 44 46 58 55 51 51 51 51 51 51 50 49 48 48 48 48 47 46 46 46 45 44 44 44 46 45
64 60 61 62 61 61 61 59 57 56 56 57 57 54 50 53 54 53 52 53 53 52 51 50 49 49 49 49 48 48 47 47 46 46 45 45 44 44 45 44 44 44 43
65 64 62 63 62 61 60 59 58 57 57 57 57 55 50 58 53 52 51 52 52 53 51 52 50 50 49 48 47 47 46 46 45 44 44 44 44 44 43 43 44 43 42
62 63 64 62 62 60 59 58 56 57 56 54 50 48 46 52 54 54 52 55 53 53 54 53 50 50 50 49 47 46 46 46 44 43 43 44 43 44 43 43 44 43 43
60 60 60 59 61 58 59 58 57 57 54 53 53 52 51 54 54 52 52 52 52 52 51 51 50 49 48 48 47 47 46 45 44 44 44 44 43 43 43 43 43 43 43
60 60 59 58 58 59 59 59 57 54 57 57 56 56 55 55 55 55 55 53 52 52 51 51 51 51 48 47 46 46 46 44 44 45 45 44 43 42 42 42 42 43 43
59 58 60 60 59 60 60 59 60 59 59 59 59 58 56 56 56 56 54 54 53 52 52 51 51 52 51 49 47 47 42 37 43 41 43 43 43 43 43 42 43 43 44
61 61 59 59 59 59 59 59 58 58 57 57 56 55 55 55 59 58 55 54 55 55 55 52 51 52 51 50 49 44 36 36 41 39 42 42 42 41 42 43 44 44 44

GFSGL_sfc_temp_042.txt.gz
Temp
77 77 77 77 77 77 77 75 75 74 74 74 74 74 74 72 71 70 69 69 68 68 68 67 67 68 68 68 68 68 67 67 67 68 68 69 71 72 73 73 74 73 74
78 77 77 77 77 76 76 76 75 74 74 74 74 74 74 73 72 71 70 71 69 68 68 67 68 68 67 67 68 67 67 66 68 66 67 68 68 70 71 71 73 75 73
80 78 77 77 76 76 77 77 75 75 74 74 74 74 74 74 72 72 72 71 70 70 69 68 68 68 67 67 66 68 67 67 66 67 68 68 68 69 69 68 69 70 72
81 79 77 76 76 77 77 77 76 76 75 74 74 74 74 74 74 73 72 71 71 71 70 70 69 68 68 67 67 67 67 66 66 64 66 66 67 68 67 68 67 68 69
78 78 77 77 77 77 77 77 77 76 76 75 74 75 75 75 76 73 73 72 71 71 70 69 69 70 69 68 69 67 67 66 66 64 63 63 62 65 66 68 65 64 68
77 77 77 77 76 76 76 76 76 76 76 75 75 75 74 77 71 69 73 73 72 71 69 68 69 68 68 67 67 67 68 67 66 65 63 65 64 64 63 61 64 64 65
77 77 77 76 75 76 76 75 75 75 75 75 75 75 74 75 67 67 69 74 71 70 69 67 68 69 68 70 66 66 66 66 67 67 64 64 64 65 63 60 61 63 63
77 77 77 76 76 76 76 75 75 76 75 75 74 75 74 75 65 64 68 73 70 70 69 68 68 68 68 68 69 68 68 68 67 66 65 64 64 64 65 64 64 63 62
77 76 77 77 76 76 75 75 76 76 76 76 76 74 73 73 62 62 65 71 69 69 69 69 68 68 65 63 67 67 67 66 63 62 62 61 61 62 64 63 61 59 58
76 77 78 77 76 76 76 76 77 77 77 77 75 75 71 74 60 60 64 70 69 68 68 68 64 68 60 60 68 67 65 64 64 64 64 62 62 64 62 64 65 62 61
79 79 78 78 77 77 77 77 77 77 77 76 75 74 73 72 69 58 60 70 69 68 67 66 66 59 56 55 60 67 65 64 64 66 66 64 64 65 65 64 63 63 60
76 77 77 77 78 79 77 76 76 76 75 75 74 72 71 72 62 55 59 61 64 67 66 66 65 55 53 53 57 59 57 61 64 64 63 63 64 64 65 64 62 63 64
74 73 75 77 77 78 76 75 75 75 75 74 73 72 71 71 63 56 56 58 60 65 65 62 56 51 50 53 55 56 57 62 62 62 62 62 62 64 62 62 61 61 60
71 72 73 73 73 75 76 76 75 74 74 73 72 71 69 68 66 62 62 62 59 62 59 60 58 57 56 58 57 58 62 62 62 62 61 62 61 61 62 62 62 61 60
70 69 69 69 62 60 57 60 63 60 68 68 68 68 66 65 61 55 57 63 64 62 60 60 59 59 58 59 59 59 59 60 59 59 60 60 61 61 60 60 59 59 59
69 69 66 63 62 64 62 59 50 52 51 51 53 59 62 56 51 52 50 50 49 51 61 61 60 60 59 58 57 56 57 58 60 60 60 60 61 60 60 58 58 58 57
65 64 63 63 65 64 64 62 59 56 50 51 52 53 54 51 54 50 46 48 50 54 62 61 60 58 58 58 59 60 60 60 60 60 60 60 60 59 58 58 57 57 57
64 58 64 65 64 64 63 62 62 61 59 57 48 54 51 50 45 44 45 50 57 58 61 60 59 58 58 59 59 60 60 60 60 60 60 60 59 59 57 57 57 56 57
65 64 64 65 65 63 63 64 64 63 61 54 51 49 48 44 45 46 50 61 60 60 60 60 60 60 61 61 61 60 59 59 58 57 58 58 58 58 57 57 57 50 52
65 60 62 63 62 62 62 61 59 58 57 57 56 52 51 53 56 59 58 60 60 59 59 60 59 59 60 59 58 57 56 55 56 57 57 58 57 58 59 57 57 58 57
64 63 61 63 62 62 61 60 59 60 59 59 56 55 53 59 59 58 58 59 59 59 57 59 57 58 57 57 57 57 57 58 57 57 57 56 56 57 57 57 58 58 58
65 64 64 62 62 61 60 60 59 59 59 57 54 53 48 61 60 59 59 59 60 60 60 59 58 59 59 58 58 59 58 58 57 56 56 56 56 57 57 57 58 58 58
63 64 63 63 62 58 59 58 57 59 59 59 58 58 60 61 60 60 60 60 59 59 59 60 59 59 58 58 59 58 57 58 58 56 55 55 56 56 56 57 57 58 58
63 63 62 62 62 62 61 59 58 54 58 59 59 59 59 60 61 60 60 61 60 60 60 60 61 61 59 57 57 58 59 58 56 56 57 56 56 52 56 56 57 56 58
62 61 62 62 62 61 61 60 60 60 58 57 57 57 55 57 59 61 61 60 61 60 60 60 61 60 59 58 57 58 50 38 53 48 56 56 55 54 56 57 57 57 57
64 62 62 62 61 60 59 58 58 58 58 57 57 57 57 57 57 59 59 58 60 60 61 61 61 61 60 60 59 50 36 36 46 41 55 55 54 54 55 56 56 58 57

GFSGL_sfc_temp_045.txt.gz
Temp
82 82 82 82 83 83 84 83 83 84 83 84 84 84 83 82 82 80 80 81 78 78 78 77 77 78 80 81 81 81 80 80 78 80 82 81 78 80 82 82 83 83 85
84 82 82 82 83 83 83 84 84 82 83 83 84 84 83 83 82 80 80 81 78 78 78 77 77 79 75 77 79 77 79 78 79 74 78 79 77 79 80 79 82 87 84
85 84 82 82 82 81 82 83 84 82 83 83 83 83 83 83 82 81 81 80 80 80 79 78 78 77 75 78 77 78 79 78 77 79 79 80 80 80 79 78 78 80 82
87 85 81 80 81 82 82 82 83 82 82 82 82 83 83 84 83 83 81 80 80 80 80 80 79 78 77 75 74 75 76 77 77 77 78 78 78 75 77 76 78 80 80
84 84 82 82 82 82 82 82 83 83 82 82 82 82 83 84 86 82 82 81 79 79 80 80 80 78 74 73 74 74 75 75 78 77 76 77 76 70 72 80 76 77 76
83 83 82 82 81 81 81 82 82 82 82 82 81 82 82 86 75 71 79 82 80 80 79 79 79 73 71 68 68 70 75 75 75 78 78 75 73 73 71 76 73 73 70
82 82 82 82 80 80 82 81 80 81 82 81 81 81 81 82 69 68 70 84 82 80 80 80 79 77 72 73 66 66 68 68 72 76 74 74 73 73 74 64 71 70 73
82 82 82 82 80 81 81 80 80 82 81 81 81 81 81 82 67 66 69 81 82 81 80 80 78 76 73 72 72 73 74 75 73 78 77 77 75 69 73 74 73 71 73
82 82 82 82 81 81 80 79 80 81 81 81 82 81 80 81 64 63 68 80 82 80 80 79 77 75 69 64 73 75 74 76 68 65 66 64 63 64 69 71 71 66 66
83 83 83 82 81 80 80 80 81 81 82 84 83 82 77 81 64 61 67 82 80 80 77 77 66 70 62 60 69 70 73 74 73 71 70 65 65 67 63 71 74 71 72
86 86 84 83 81 81 81 81 81 81 82 81 81 82 82 78 78 59 60 79 81 76 73 71 71 60 57 56 62 72 71 74 69 73 72 71 72 73 74 73 73 74 73
86 85 83 83 84 84 80 78 81 78 75 78 79 78 78 78 64 57 58 63 69 73 71 70 70 57 55 54 59 62 59 63 73 73 70 73 73 74 75 74 72 73 75
82 82 82 82 83 83 81 80 80 79 76 76 76 76 74 73 73 57 55 57 59 69 71 67 59 52 52 53 57 57 58 68 69 70 72 73 75 77 73 70 70 70 69
81 81 82 81 80 82 84 84 82 82 80 75 75 74 73 72 69 63 60 60 60 64 63 61 58 58 57 59 59 59 66 69 72 73 73 75 74 72 72 74 72 72 71
82 82 80 83 77 72 68 72 81 81 79 81 76 73 67 62 60 58 60 64 65 60 62 62 61 61 62 61 61 62 63 64 69 72 73 71 71 72 72 72 72 71 69
77 76 69 68 68 66 64 61 51 52 52 52 53 60 62 53 49 50 50 50 52 55 62 62 62 62 61 61 61 61 62 63 70 72 72 72 71 71 71 70 70 69 69
69 67 66 67 66 65 67 67 61 57 49 49 51 51 53 54 51 51 51 49 50 56 64 63 63 62 61 62 62 61 61 67 71 71 71 71 71 71 68 69 68 69 68
68 59 68 69 68 68 69 69 70 63 60 59 52 48 49 49 49 47 46 50 57 60 66 63 62 62 62 64 67 69 71 70 69 70 71 71 71 70 68 68 68 68 67
69 68 68 68 67 65 65 64 67 67 68 61 57 53 48 42 42 44 47 62 61 61 62 63 63 63 67 70 69 69 69 69 70 70 71 71 70 70 69 69 69 56 58
65 60 63 66 67 68 69 69 66 64 64 60 59 55 53 55 56 58 63 64 62 62 62 65 68 69 68 69 68 69 69 67 68 70 70 70 69 71 70 68 68 68 66
66 66 62 66 68 71 72 71 68 65 62 60 58 56 50 59 59 61 61 63 63 68 70 69 67 67 68 69 70 70 70 70 70 70 70 69 69 69 69 69 69 69 68
68 66 67 69 69 71 68 67 66 64 62 59 56 55 48 62 63 68 71 71 72 72 73 71 71 72 72 71 71 71 71 70 70 69 69 69 68 69 69 68 69 68 68
74 71 72 70 68 62 69 69 66 65 64 63 59 61 68 71 72 72 72 73 73 72 72 73 71 72 72 72 72 71 71 71 70 70 68 68 68 68 68 67 67 67 67
74 73 73 71 70 72 71 71 68 59 65 66 68 69 71 71 71 70 73 72 72 72 72 73 74 74 71 71 71 72 72 71 70 69 69 68 68 62 68 67 67 66 67
72 69 71 71 71 70 70 70 69 70 67 65 69 70 70 72 72 71 72 73 72 71 72 74 75 73 71 70 71 71 53 41 64 57 68 68 67 65 66 67 66 66 66
74 72 70 66 66 65 62 60 60 60 63 64 65 61 66 69 71 72 72 72 72 71 73 74 74 74 73 73 71 54 36 37 54 45 67 68 66 66 66 65 65 66 66

GFSGL_sfc_temp_048.txt.gz
Temp
89 89 88 89 89 88 89 89 89 89 90 89 90 89 89 89 88 86 86 88 84 84 85 84 82 85 88 89 89 89 88 87 84 88 89 87 83 84 87 86 88 87 89
91 89 88 88 89 89 88 89 90 88 89 89 89 89 89 89 88 86 86 88 85 83 84 83 82 85 81 84 87 84 86 87 86 79 86 86 81 84 84 83 86 91 90
92 90 89 88 88 88 88 88 89 88 88 89 89 88 88 89 89 88 87 87 87 86 85 83 83 83 80 86 84 85 85 84 83 84 84 86 87 86 83 82 83 84 87
95 92 89 87 87 89 88 87 88 88 88 88 88 88 89 89 90 90 88 87 87 87 87 86 85 84 82 81 82 81 82 82 81 83 84 85 84 85 84 84 82 80 84
94 93 89 88 88 88 88 88 88 88 88 88 88 89 89 91 92 89 89 88 86 86 87 86 86 84 78 80 85 81 78 79 82 82 82 84 84 83 79 84 82 81 77
93 91 89 88 88 87 87 87 87 87 88 87 87 88 88 92 81 74 84 89 88 86 85 86 86 78 76 71 71 72 76 75 74 83 83 81 80 81 83 83 81 80 77
91 90 89 88 87 86 87 87 86 86 87 86 87 87 87 88 73 71 73 89 89 87 86 86 86 88 78 82 69 67 69 69 72 78 78 77 79 80 80 77 75 73 77
88 89 89 88 87 87 86 86 85 87 86 86 86 87 87 89 70 68 71 86 87 88 87 86 86 86 83 80 78 74 74 75 75 80 80 80 81 80 78 77 75 74 75
88 87 89 89 87 86 85 85 86 86 86 86 87 86 86 87 66 64 69 86 86 87 88 87 86 85 75 68 79 75 72 75 72 66 67 68 66 67 73 79 71 70 71
89 89 90 89 87 86 86 85 87 87 86 90 88 88 80 86 69 61 67 86 82 83 84 82 71 80 67 63 76 74 72 72 78 75 74 67 68 69 64 75 74 69 75
93 92 90 90 87 87 87 87 86 86 86 85 84 87 85 83 82 60 59 75 77 74 85 85 86 64 58 59 64 72 70 74 72 75 75 76 75 73 75 75 77 79 78
92 91 90 89 90 91 86 86 85 84 82 82 82 79 81 80 69 64 56 64 73 82 84 86 80 58 54 56 59 62 61 66 74 74 75 73 74 73 76 78 78 78 81
89 89 89 88 88 89 86 84 85 84 86 84 85 84 85 86 86 57 55 58 62 73 81 71 56 53 55 57 56 58 60 71 70 69 73 74 75 78 78 76 75 75 75
86 87 88 87 86 87 90 89 88 88 87 87 87 87 89 93 87 80 74 63 59 63 60 60 62 63 62 61 60 61 66 68 69 71 74 76 77 77 76 78 76 76 75
87 88 87 89 85 87 85 85 91 91 86 91 91 91 91 87 77 64 64 64 64 63 63 64 64 65 64 64 64 64 66 66 67 72 76 75 75 76 77 78 78 77 73
87 88 90 92 88 87 82 74 51 50 48 48 53 72 79 59 50 49 49 51 52 53 64 64 64 68 66 64 63 64 65 65 69 75 76 77 76 76 76 76 77 75 74
86 83 85 81 81 81 82 83 74 58 49 46 45 47 50 50 47 47 48 49 51 53 66 69 74 73 72 67 64 64 63 65 73 77 77 76 77 77 75 74 74 74 73
78 62 82 79 82 84 84 82 79 76 73 71 51 50 45 44 44 44 46 51 59 61 79 77 70 68 65 64 63 64 65 70 75 75 76 77 76 76 73 74 75 73 73
74 74 74 75 76 73 78 78 77 73 72 69 67 57 50 42 42 44 49 69 66 67 69 65 64 63 63 64 66 71 73 74 74 76 76 76 77 77 75 76 75 60 64
71 63 70 72 69 68 70 72 70 72 71 69 69 72 59 57 58 57 62 63 63 64 67 67 66 65 64 66 73 75 75 73 74 75 76 77 78 78 77 76 75 72 70
75 71 66 73 73 72 71 71 73 77 80 75 73 64 52 69 65 62 65 64 63 64 65 64 65 68 72 74 74 74 75 76 77 78 78 77 77 77 77 76 76 75 75
80 77 78 80 82 81 80 80 78 75 70 68 64 57 47 65 69 68 66 66 67 69 71 73 77 78 77 76 77 78 78 78 78 78 77 77 77 77 76 76 75 75 74
84 84 82 80 78 69 76 74 69 69 70 73 69 64 61 64 65 65 69 74 76 79 79 77 77 78 80 80 80 79 78 78 78 78 76 76 75 75 75 74 74 73 73
84 83 82 80 80 81 80 80 74 62 69 68 66 69 77 78 78 78 79 77 74 75 77 78 79 78 77 78 79 80 80 80 79 77 76 75 75 70 75 74 73 73 73
82 78 78 76 75 76 77 78 76 68 66 67 70 76 80 81 80 80 79 80 79 78 78 79 79 77 77 76 77 78 53 48 69 63 76 75 74 71 74 74 73 73 72
78 76 75 74 74 72 71 68 67 70 71 65 70 72 76 80 81 80 80 80 79 80 79 80 79 78 77 77 76 52 38 41 61 49 73 74 73 72 73 72 71 73 71

GFSGL_sfc_temp_051.txt.gz
Temp
90 90 89 89 90 89 90 91 90 91 92 91 92 91 90 89 90 88 88 90 87 86 87 87 84 85 91 91 91 90 89 88 84 89 92 88 85 84 86 87 87 87 87
92 90 90 90 90 90 89 91 92 89 91 91 90 91 90 90 89 88 87 90 89 86 85 85 85 87 83 85 90 85 87 88 86 81 87 85 82 83 84 84 86 92 90
94 93 91 90 90 89 89 90 91 90 90 90 90 89 89 89 89 90 89 88 89 89 87 85 85 85 83 85 84 87 87 86 86 83 83 87 85 84 83 83 83 83 87
99 95 91 89 89 91 90 90 90 90 89 89 89 89 90 90 90 91 90 88 88 90 89 87 86 85 83 82 83 81 84 85 83 83 83 84 85 84 85 82 80 83 83
98 96 92 90 90 90 89 89 90 90 90 89 89 90 90 91 93 89 90 89 87 88 89 89 88 85 79 81 84 82 80 82 85 79 79 82 82 83 80 83 81 83 82
97 95 93 91 89 89 89 89 89 89 89 89 89 89 89 93 81 75 84 90 89 87 87 88 88 79 78 73 73 73 80 79 78 81 79 78 77 83 85 83 82 79 77
94 95 93 91 89 88 89 89 88 87 89 87 88 89 88 89 73 71 74 90 90 88 86 87 88 91 80 84 71 71 70 71 74 78 76 79 80 81 82 79 78 77 77
93 92 93 91 90 89 88 88 87 89 87 87 87 88 88 90 70 67 71 88 88 88 87 85 85 85 84 82 82 78 78 78 76 78 75 77 79 80 81 79 77 76 78
92 91 92 92 89 89 87 87 88 87 88 88 89 88 87 88 67 65 70 88 87 85 87 86 84 83 79 70 82 79 77 76 68 65 65 66 69 69 73 77 74 73 73
92 92 92 92 90 88 88 87 88 89 88 91 89 89 82 87 67 63 69 86 84 88 85 84 72 81 69 65 79 80 75 72 70 68 68 65 65 68 67 75 74 72 74
96 94 92 91 89 89 88 88 88 87 88 87 87 89 88 85 82 62 62 81 84 86 88 87 88 65 62 60 66 77 72 69 67 67 68 68 68 69 69 73 75 73 74
95 94 91 90 92 93 88 88 87 86 85 85 85 87 91 88 69 64 58 62 70 87 87 90 87 62 60 56 60 63 61 65 68 69 68 67 67 68 69 74 74 77 80
92 91 91 91 91 91 87 87 87 86 87 86 88 87 89 92 89 63 58 58 61 79 88 80 62 58 54 57 60 60 61 69 71 68 67 66 68 70 71 71 75 76 76
90 90 91 90 88 89 93 91 90 91 89 89 89 89 91 92 92 93 78 73 63 71 64 72 65 60 59 64 62 63 70 69 69 70 69 70 69 68 68 74 73 72 71
90 90 90 92 87 89 89 81 92 90 82 92 92 93 92 92 91 79 78 81 84 72 66 65 63 64 64 64 64 65 69 69 69 71 69 68 66 67 72 76 74 72 72
88 90 92 94 92 92 86 77 49 50 47 46 48 67 75 57 52 53 52 51 52 52 64 64 62 63 64 64 64 64 68 68 72 69 67 65 66 73 75 74 75 75 73
89 92 95 89 93 92 90 87 82 62 48 46 45 45 46 46 46 47 47 47 48 56 64 63 63 64 63 64 64 66 69 72 70 67 65 65 73 75 72 73 74 75 74
87 67 92 92 91 89 89 89 86 83 80 76 53 53 44 44 44 44 46 52 60 62 65 64 63 64 66 65 65 65 66 67 67 65 66 72 74 74 75 75 74 74 74
85 86 89 89 89 86 89 87 87 83 81 78 75 60 54 44 44 46 49 67 64 65 68 65 65 65 65 64 64 64 64 64 65 66 72 75 77 77 76 76 76 62 67
74 65 71 77 80 82 84 83 81 80 78 79 78 77 72 66 69 62 64 68 68 70 72 72 70 68 64 64 64 64 64 65 66 70 75 77 78 79 78 77 77 74 72
78 77 69 80 80 79 79 79 79 80 77 79 79 68 52 74 71 69 71 72 72 73 74 73 72 73 64 64 65 65 67 71 73 76 76 76 78 78 78 78 78 77 75
86 85 85 84 82 81 81 80 80 80 80 77 72 65 47 68 70 69 68 71 74 75 76 75 74 68 67 68 73 73 74 75 76 76 77 79 78 78 78 78 77 77 76
88 87 84 81 82 73 81 81 80 81 81 76 76 73 73 75 76 76 76 75 74 75 73 75 72 69 75 78 77 76 76 77 77 79 79 78 77 77 77 76 76 76 75
81 81 78 75 71 78 78 79 76 68 79 77 75 75 76 76 74 75 78 79 76 77 75 79 80 81 79 78 80 82 82 82 81 80 80 78 77 72 77 76 76 76 75
79 76 77 74 74 76 77 74 75 73 73 73 71 78 73 72 76 77 78 81 80 80 80 81 82 81 80 80 80 80 51 45 73 66 79 78 77 75 76 76 76 75 74
70 71 73 73 71 70 69 67 65 62 62 63 65 71 73 71 76 76 81 82 82 82 82 82 81 80 79 80 79 50 38 45 64 49 74 77 76 76 75 75 74 75 73

GFSGL_sfc_temp_054.txt.gz
Temp
85 85 84 85 85 84 85 85 85 85 85 86 87 85 84 84 84 83 83 83 82 81 81 80 79 79 80 80 80 79 77 77 73 76 78 78 78 77 76 78 79 76 73
87 85 85 85 85 85 84 86 86 85 86 86 86 85 84 84 84 83 83 84 83 81 81 80 80 82 78 78 79 76 77 78 76 73 77 76 76 76 76 76 79 85 79
89 88 86 85 85 85 85 84 86 85 85 86 86 84 84 84 83 84 84 83 84 83 82 81 80 79 77 78 76 77 77 78 78 75 74 76 76 76 74 75 76 76 81
94 90 86 85 85 86 85 85 85 85 85 85 85 85 85 85 85 85 84 83 83 84 84 83 81 80 78 78 77 75 76 76 75 74 73 73 75 74 74 73 72 75 75
92 91 87 86 86 86 85 85 85 85 86 85 85 85 85 86 88 84 85 84 83 83 84 84 83 82 78 78 79 77 75 75 75 75 73 73 73 73 73 73 72 73 74
91 91 88 87 86 85 85 85 85 85 85 85 84 85 84 89 79 75 82 85 84 83 82 83 83 78 76 73 73 74 77 74 74 75 74 71 71 73 74 74 73 70 67
91 90 89 87 85 85 85 85 84 84 85 84 84 84 84 85 73 72 74 85 84 84 82 82 83 87 77 79 72 71 72 70 74 75 72 72 71 73 74 72 72 69 67
90 89 89 88 86 85 85 84 84 85 84 84 84 84 84 85 72 69 71 83 84 83 83 83 82 82 82 79 78 76 76 76 72 77 74 73 73 72 71 70 70 69 69
89 89 89 89 87 85 84 84 85 84 84 84 85 84 83 84 69 67 69 81 83 82 84 83 83 82 77 69 78 77 76 76 71 69 66 65 67 67 69 69 67 65 65
89 89 89 89 87 86 85 84 85 85 85 87 85 85 80 84 70 64 69 85 82 83 83 82 72 80 70 65 77 78 75 75 72 68 66 66 67 67 65 69 68 65 64
92 91 89 87 87 86 85 85 85 84 85 84 84 85 85 83 82 61 61 83 84 83 83 84 85 66 61 59 64 79 77 76 70 68 68 68 68 67 67 68 68 67 65
91 89 87 87 89 91 85 85 85 83 82 82 82 83 86 85 69 63 60 62 72 81 81 84 84 64 59 58 60 69 66 66 69 67 66 66 66 66 67 67 68 69 68
89 87 87 87 87 87 85 83 84 83 84 83 83 84 84 87 86 63 58 59 61 72 80 75 60 58 54 58 58 59 60 70 68 66 66 66 67 68 69 67 68 67 67
88 87 87 86 85 86 89 87 86 85 84 84 84 83 85 86 86 87 76 67 61 66 70 75 64 61 59 63 61 61 71 71 69 67 67 68 68 67 67 67 65 65 63
88 88 87 88 84 86 78 70 83 79 74 86 85 87 85 85 84 74 76 79 78 73 75 77 69 67 67 66 64 65 68 68 67 66 67 67 67 67 65 65 65 63 62
85 87 88 89 89 88 73 70 49 49 46 46 50 73 71 55 53 51 51 56 52 55 69 67 65 65 64 64 64 64 65 65 66 65 67 67 66 64 64 64 63 64 64
85 87 89 84 90 86 81 77 69 58 47 45 45 49 51 47 46 45 45 46 48 59 66 64 63 63 63 63 63 63 64 65 67 67 65 64 64 64 63 63 65 66 65
86 67 89 89 91 89 87 84 81 76 76 69 50 51 44 44 45 45 47 54 64 64 65 64 64 64 64 64 64 63 63 64 65 64 64 64 64 63 61 64 67 65 64
87 90 91 89 86 84 83 82 83 79 74 72 66 58 51 44 45 47 48 68 67 68 66 68 69 68 69 68 67 66 66 65 64 64 64 64 64 65 67 69 68 63 64
77 68 76 85 86 83 81 83 81 79 78 77 78 73 69 66 69 65 68 68 67 68 68 67 68 67 66 66 65 66 65 64 65 64 64 64 69 71 70 68 66 64 64
78 80 71 83 83 83 81 78 77 79 78 78 74 63 49 75 72 67 68 70 69 69 68 72 70 71 70 69 67 67 66 65 65 65 66 69 71 70 70 70 69 68 66
80 81 82 81 80 80 79 79 80 79 79 76 73 65 49 74 72 70 71 73 74 74 75 73 73 74 72 71 70 69 69 69 69 68 67 69 70 70 70 70 69 68 66
85 83 80 78 80 73 78 79 79 75 76 76 73 71 71 71 73 72 72 74 73 74 73 73 74 73 71 71 69 69 69 71 72 72 71 71 71 71 69 69 68 66 65
78 75 74 74 72 74 77 75 75 66 72 73 75 75 75 73 73 75 73 76 73 74 76 75 75 74 73 74 76 77 75 76 75 75 74 72 71 66 69 68 67 67 66
75 71 68 69 71 69 67 71 71 72 71 72 73 72 76 76 76 76 76 72 72 72 73 76 77 75 77 77 78 70 48 46 71 65 74 73 72 70 69 68 67 67 67
69 72 71 67 65 65 66 64 64 61 61 64 61 64 66 69 69 73 74 75 78 78 78 78 78 78 78 78 66 46 38 39 54 48 73 72 71 70 69 69 69 68 67

GFSGL_sfc_temp_057.txt.gz
Temp
80 80 81 80 80 80 78 79 78 76 79 78 78 79 81 80 78 78 75 76 75 75 75 73 73 73 72 72 71 72 71 70 67 69 72 72 72 72 72 71 74 73 71
82 81 80 81 81 79 79 79 79 79 76 79 79 80 80 80 79 77 76 80 77 75 75 75 74 77 71 71 71 71 71 71 70 68 69 70 71 70 71 71 75 79 74
83 82 81 80 80 80 80 81 80 80 81 80 80 80 81 80 79 79 79 78 77 77 78 77 76 75 75 76 69 71 70 72 69 68 69 68 69 69 69 70 71 72 76
84 82 81 81 81 81 82 80 81 81 81 81 82 82 80 81 81 80 80 79 79 79 78 79 79 76 76 76 73 74 72 69 69 67 67 68 69 69 69 69 69 72 73
85 84 82 82 82 82 82 81 81 81 81 82 82 81 81 81 83 80 81 80 79 79 80 79 80 79 77 76 77 77 75 72 67 75 66 66 67 67 70 69 72 74 73
88 84 85 83 82 82 82 82 81 81 82 82 80 82 81 83 76 73 79 81 81 80 79 80 81 76 75 72 71 74 77 75 75 71 73 71 66 70 69 73 73 69 65
87 87 85 84 82 82 82 82 81 81 82 81 82 81 81 82 72 70 72 83 82 81 80 81 80 83 75 78 71 70 70 70 75 77 73 69 69 73 72 68 70 66 64
87 85 86 84 82 82 82 81 82 82 82 82 81 82 82 82 71 68 70 82 82 82 82 82 81 81 81 78 77 75 75 75 73 76 77 75 76 72 72 70 68 67 66
83 84 84 84 83 82 81 82 82 83 82 82 82 81 81 82 67 66 68 80 82 82 82 82 82 81 75 68 77 76 75 76 72 68 70 70 69 67 69 67 66 64 63
87 82 83 84 83 82 82 82 83 83 83 83 83 83 78 82 68 64 66 81 80 81 83 83 71 77 67 64 75 77 74 75 73 66 69 66 66 67 66 67 66 64 65
80 80 81 82 83 84 84 84 83 82 82 82 82 83 83 80 80 62 61 80 82 82 81 82 83 65 62 59 63 77 76 78 72 70 68 68 68 67 67 66 66 65 64
81 80 79 78 82 82 82 82 82 81 80 80 80 81 82 83 68 64 59 62 74 81 81 82 78 64 59 59 61 66 65 66 74 70 68 67 67 67 67 67 68 69 68
78 79 80 78 81 83 80 80 80 80 80 79 79 79 80 82 82 62 58 59 61 73 82 76 67 59 59 56 57 58 58 69 72 70 68 68 68 69 68 67 67 68 66
78 77 76 78 76 79 78 82 81 81 80 80 79 79 80 77 81 82 69 63 59 63 66 70 64 62 59 62 60 59 63 68 70 70 69 69 68 67 66 66 65 64 61
76 77 77 77 77 75 63 60 77 72 73 81 81 79 78 78 79 70 72 69 70 67 68 70 66 66 66 66 65 63 64 67 69 69 67 66 66 66 66 66 65 62 58
75 76 76 76 77 72 63 60 48 47 46 45 55 72 62 56 49 49 51 54 55 54 67 68 67 67 65 65 64 64 64 65 65 65 65 66 65 65 64 64 64 61 60
75 75 76 74 76 71 69 66 63 55 47 45 44 46 54 50 46 47 48 48 51 58 66 64 64 63 63 63 63 63 63 65 66 65 65 65 64 64 63 62 61 60 62
76 68 74 75 76 76 73 70 67 65 63 60 50 48 45 46 48 47 48 56 63 62 64 63 62 62 62 62 62 62 62 63 64 64 64 64 64 63 62 61 61 62 58
76 76 77 77 78 78 76 72 71 71 63 58 57 53 48 45 46 48 49 62 62 61 61 61 62 61 61 62 61 60 61 62 62 62 63 63 63 62 61 62 62 58 58
72 67 69 72 72 75 75 75 72 69 65 64 65 61 59 56 60 63 62 62 62 62 62 62 62 62 62 62 63 61 62 62 62 61 61 62 63 63 63 63 62 60 59
73 70 67 70 69 73 71 71 71 69 69 64 60 56 53 63 60 61 62 62 61 62 63 63 62 62 62 62 61 63 62 62 63 61 61 61 62 60 62 63 61 61 60
73 74 74 73 69 67 68 70 69 69 66 63 60 57 48 62 62 62 62 63 64 64 66 66 64 63 63 64 63 61 61 61 63 62 61 61 61 61 62 60 60 58 58
72 74 71 71 72 68 70 69 70 68 66 63 60 60 62 62 63 63 66 64 65 65 65 65 64 63 64 64 64 64 63 62 62 62 61 64 65 65 62 60 62 58 57
73 70 67 67 67 71 69 68 68 62 67 67 63 64 67 67 67 66 65 66 65 65 66 65 65 65 64 64 64 64 64 64 64 65 67 66 65 59 60 59 61 62 59
66 66 66 65 64 64 62 61 62 62 60 60 60 61 62 64 65 65 65 66 66 65 67 67 67 67 67 64 61 59 46 43 61 58 64 66 66 65 64 62 58 58 57
64 64 64 63 61 60 58 55 54 55 55 55 56 56 57 57 57 57 57 60 57 56 56 58 63 63 63 59 58 45 38 39 50 45 65 64 63 63 63 61 60 58 58

GFSGL_sfc_temp_060.txt.gz
Temp
80 80 79 79 79 78 75 77 77 75 74 75 77 78 78 78 76 75 74 75 74 74 73 72 72 71 70 69 68 68 67 66 66 68 68 70 68 71 72 73 72 72 71
80 80 79 79 78 77 77 76 77 75 75 78 75 76 77 78 76 77 75 77 75 73 75 73 74 75 70 69 68 68 67 67 67 65 66 68 68 68 71 69 72 76 73
80 79 79 78 78 77 77 78 75 77 77 76 77 76 76 77 77 77 77 77 75 76 75 75 75 73 73 73 68 69 67 68 66 66 67 66 67 67 66 67 67 72 73
80 79 77 78 78 78 78 78 78 77 77 77 76 78 78 78 79 79 78 77 77 77 77 77 76 75 75 75 73 72 71 67 65 65 64 66 66 68 67 69 66 66 73
80 79 78 79 79 79 78 77 78 78 79 79 78 77 78 79 80 79 79 78 77 77 78 77 77 77 75 76 76 75 73 68 68 67 63 64 64 65 69 69 71 73 72
81 80 80 79 79 79 79 79 77 77 78 78 78 79 76 80 74 72 78 79 79 78 77 78 78 75 74 71 71 73 76 73 72 71 72 68 73 73 67 74 73 66 65
81 81 81 80 79 78 79 79 78 77 78 78 78 79 79 79 70 69 71 81 79 79 78 79 78 80 74 77 70 69 69 70 74 77 73 74 74 76 76 68 72 66 66
82 81 81 80 79 79 79 79 79 79 78 78 78 79 78 80 69 67 69 78 80 80 79 79 79 79 79 76 76 74 73 75 73 75 78 78 78 78 75 72 69 67 65
83 82 81 81 80 79 78 79 80 80 79 79 80 79 79 80 66 65 66 76 78 79 81 80 80 79 73 68 75 75 75 74 72 68 69 72 70 69 68 68 66 65 63
84 83 84 82 81 80 80 80 81 81 81 81 80 81 75 79 67 63 66 79 78 79 80 81 70 75 67 64 73 76 74 75 75 73 69 68 66 69 66 70 69 65 64
81 80 81 84 83 82 82 82 81 81 81 80 80 81 80 78 78 61 61 78 79 79 79 79 81 66 61 60 62 76 75 77 75 74 73 71 70 68 68 69 70 68 65
78 78 76 77 82 83 81 81 81 81 79 79 78 79 80 81 66 61 59 62 73 79 79 81 81 64 58 57 60 64 63 62 73 73 72 70 68 68 68 68 68 68 68
76 75 75 76 79 80 79 79 79 79 79 78 77 77 79 80 79 61 58 59 60 72 81 77 66 59 56 57 56 57 59 66 68 69 71 72 70 69 69 68 68 67 67
74 74 73 73 73 73 79 79 79 78 78 78 77 77 78 78 78 74 68 64 60 64 67 71 63 63 59 63 63 61 63 65 66 68 69 71 70 68 67 66 66 66 64
72 72 73 73 71 73 69 68 76 78 75 79 79 78 77 76 75 70 70 70 70 67 69 68 67 67 68 67 66 66 65 64 66 68 68 66 65 65 65 65 64 63 60
72 72 71 73 72 69 63 58 48 47 46 47 52 68 69 57 55 54 51 53 54 53 67 68 69 68 67 66 65 64 64 64 65 65 65 65 64 64 64 64 63 61 60
70 71 72 69 73 68 66 65 63 55 46 44 44 51 54 54 46 46 46 46 48 57 67 67 66 65 64 63 64 63 63 64 64 64 64 64 64 63 63 63 61 61 60
70 63 70 73 72 70 69 68 66 64 64 61 51 47 44 45 45 46 48 56 65 63 64 64 63 63 63 61 61 63 63 61 61 64 64 63 63 63 62 61 61 61 58
70 69 72 74 72 72 71 68 67 64 61 59 58 53 47 45 46 49 50 64 63 62 61 61 61 60 60 60 59 59 59 60 60 63 63 63 63 62 61 61 59 55 56
70 66 64 70 72 72 70 68 67 63 60 60 61 60 59 59 62 61 61 61 61 61 60 60 60 60 60 61 63 60 60 61 61 60 62 63 63 61 60 59 59 60 59
69 69 66 67 68 73 71 70 67 66 64 64 63 60 53 64 62 62 62 61 61 61 61 61 61 60 60 60 61 61 61 62 62 61 62 60 60 58 58 58 57 57 56
69 70 69 69 68 69 68 68 67 67 65 63 60 56 48 62 62 62 61 61 61 62 62 62 61 61 61 61 61 61 60 60 60 60 60 59 59 58 57 57 57 56 55
70 70 67 68 69 65 66 66 65 64 63 62 62 60 60 60 60 61 61 61 62 62 63 63 62 62 62 62 62 61 60 60 61 62 61 59 58 58 58 57 56 54 54
67 67 66 64 64 66 64 62 61 56 62 61 60 60 61 61 60 61 61 62 63 63 64 64 63 63 62 62 62 63 63 63 62 62 61 60 60 57 60 58 57 57 59
66 65 65 63 60 59 59 58 58 58 57 57 57 59 59 59 58 56 54 54 55 57 55 58 61 64 62 61 60 59 48 44 59 54 63 64 64 63 63 62 60 56 56
61 61 59 59 57 55 54 54 53 53 53 52 52 52 53 53 52 51 51 50 49 48 48 48 47 50 53 50 48 39 34 35 48 42 60 62 64 62 62 61 61 60 61

GFSGL_sfc_temp_063.txt.gz
Temp
78 78 78 77 76 77 75 74 74 73 73 74 73 73 74 75 75 74 73 74 73 73 72 71 71 70 69 67 66 65 64 64 64 66 66 67 67 68 71 72 72 71 71
79 79 78 77 76 75 75 75 75 74 73 73 72 73 74 76 75 75 75 76 74 73 73 72 72 73 69 69 67 66 65 64 65 64 65 66 66 66 68 68 71 74 72
80 79 78 77 76 75 75 76 74 75 75 72 74 73 73 75 75 75 76 76 75 75 75 73 74 71 71 70 68 67 65 66 64 63 70 65 66 65 65 65 66 69 72
80 78 77 76 76 77 76 76 75 75 75 74 74 76 75 75 76 76 76 76 75 75 75 75 75 73 73 73 71 70 69 66 63 64 68 67 64 66 65 65 64 64 71
79 77 77 77 77 77 76 76 76 75 77 77 76 75 76 77 78 76 76 76 75 75 75 75 76 76 74 74 76 73 70 68 69 66 68 62 65 63 65 68 71 75 71
79 77 78 77 77 76 76 76 75 75 75 76 75 76 74 78 73 71 76 77 76 76 75 75 76 74 73 70 70 72 75 72 71 70 71 71 71 71 73 73 66 67 64
79 78 78 77 75 75 76 76 74 74 75 74 75 76 76 77 69 69 70 79 78 77 76 77 77 78 73 75 70 68 68 68 72 78 72 72 73 75 75 69 67 66 66
78 78 78 77 76 76 76 76 76 75 74 74 75 75 76 77 67 66 68 76 78 78 77 77 77 78 77 75 74 74 72 72 72 73 75 77 79 77 72 70 68 68 67
78 78 78 78 77 76 75 76 77 77 76 75 76 76 75 77 65 64 66 75 76 77 78 78 77 77 72 67 73 73 74 75 71 67 68 69 69 68 66 67 65 64 64
78 79 79 79 78 77 77 77 78 78 78 78 77 77 73 77 66 62 64 76 75 76 77 78 69 74 66 64 73 75 74 77 77 74 71 68 66 70 66 69 68 65 65
79 78 78 79 79 79 78 79 78 78 78 77 77 78 78 75 76 61 60 76 77 76 76 77 79 65 61 60 62 76 75 77 75 73 74 74 72 71 70 69 68 67 66
77 78 79 79 79 80 78 78 78 77 76 76 76 77 78 79 65 61 59 61 71 77 76 78 77 63 59 57 59 63 63 62 71 72 72 73 71 70 70 70 69 68 69
72 73 73 77 80 82 78 78 77 77 77 76 76 76 77 77 78 60 58 58 60 70 79 75 65 58 55 58 57 58 59 66 67 68 68 70 71 73 71 68 68 66 66
71 70 71 71 71 73 77 79 77 77 76 77 76 75 76 76 75 73 67 65 60 64 65 70 65 64 62 65 63 60 64 65 66 67 67 68 70 68 67 67 65 64 63
70 71 70 71 70 70 71 69 75 77 74 77 77 76 75 73 74 69 70 72 72 68 68 70 67 68 68 68 67 66 66 66 65 65 67 67 66 65 64 65 64 62 61
68 68 68 69 70 70 67 62 48 48 48 47 50 63 73 63 59 55 54 54 55 53 66 69 70 70 69 68 67 66 65 64 65 65 65 65 64 64 62 62 61 61 61
66 66 68 66 69 69 66 66 65 55 46 45 44 46 47 58 51 50 49 48 47 55 69 70 70 68 67 66 66 63 64 63 64 64 64 64 63 63 62 62 61 61 59
66 60 66 67 68 70 69 67 67 65 65 64 49 47 45 47 46 46 45 52 59 60 66 67 67 66 64 63 62 62 61 63 62 64 64 64 64 63 62 61 60 59 58
66 66 67 67 69 69 70 68 67 66 65 62 58 53 46 43 45 47 49 67 66 65 63 63 63 62 61 60 60 60 60 59 59 60 63 63 63 63 61 61 60 55 54
65 62 62 66 66 69 70 68 66 64 63 62 63 61 59 59 63 63 63 64 65 64 62 61 60 60 59 59 59 58 58 59 61 60 62 63 63 63 62 61 60 56 54
66 66 64 65 65 68 70 68 67 64 63 62 61 60 53 64 61 63 63 63 63 63 62 61 60 60 60 60 62 62 61 61 62 59 59 63 62 61 61 61 58 56 55
66 66 67 66 66 66 69 68 66 64 63 62 61 57 48 63 63 63 63 63 63 63 63 61 60 60 60 60 59 59 60 63 62 61 59 59 60 59 57 56 55 55 54
65 66 67 66 65 61 64 64 63 63 62 62 62 60 60 62 62 62 63 63 62 61 61 61 61 60 60 61 61 60 59 59 60 60 59 59 58 57 56 55 55 53 53
66 67 65 64 62 65 64 62 62 57 63 62 62 62 61 61 60 59 59 60 61 60 60 61 61 61 61 61 61 61 61 61 61 61 61 59 58 54 56 55 55 55 54
68 64 63 61 59 58 58 59 58 58 58 57 56 56 55 55 54 53 53 53 53 53 50 50 51 55 54 55 55 55 43 39 55 52 60 60 59 58 57 59 57 56 55
59 59 58 58 57 57 55 53 52 51 51 51 50 51 51 51 51 51 50 49 48 47 46 45 45 47 48 46 43 37 34 35 49 45 59 61 60 58 58 61 62 61 60

GFSGL_sfc_temp_066.txt.gz
Temp
76 76 76 76 75 75 74 74 73 73 73 74 75 75 76 76 76 75 76 76 75 75 75 74 74 74 75 74 73 72 70 70 69 74 72 74 74 74 76 76 76 75 76
77 76 76 76 76 75 74 74 74 73 72 74 74 75 75 76 76 75 76 77 76 75 76 75 75 76 74 74 74 72 71 70 70 69 73 72 72 74 74 73 74 77 75
78 77 76 76 75 74 75 74 74 74 74 74 74 74 75 76 76 76 76 77 76 77 77 76 77 75 75 75 74 74 73 72 70 70 72 72 73 74 73 72 73 73 76
79 77 76 75 75 75 76 75 74 74 74 73 74 75 75 76 76 77 77 76 76 77 77 77 77 76 76 76 75 74 74 72 71 70 72 73 74 74 72 73 74 73 74
78 77 76 76 76 75 74 74 75 75 75 75 74 74 76 77 79 76 77 77 76 76 77 77 78 77 74 75 78 76 74 74 74 71 72 73 72 72 71 76 72 75 75
76 76 76 75 75 75 74 74 74 74 75 75 75 75 74 78 72 70 75 77 77 76 76 76 77 74 73 70 69 71 75 74 73 74 75 73 73 75 76 74 74 70 68
76 76 75 75 74 74 75 74 73 73 74 74 75 75 75 75 68 68 70 78 78 77 77 77 78 79 73 78 71 67 68 68 71 76 75 75 74 76 76 73 70 69 70
75 75 75 74 74 74 74 74 74 74 73 73 74 74 75 76 67 66 68 76 77 78 77 77 77 78 77 76 76 76 76 75 73 74 75 76 78 79 77 74 72 70 70
75 74 75 75 74 74 73 74 75 75 75 74 75 74 74 75 65 64 66 75 76 76 78 78 78 77 72 67 76 76 76 77 72 67 67 68 67 67 67 71 69 68 66
75 76 76 76 75 74 75 74 76 76 76 77 76 76 72 75 65 62 65 77 75 76 77 77 68 74 66 64 74 76 75 77 78 78 73 69 67 70 66 68 70 68 67
78 77 76 76 75 76 75 76 76 76 76 76 76 77 77 74 75 60 60 75 77 76 77 78 79 64 60 60 61 77 75 77 76 75 75 75 74 73 73 74 72 69 67
75 76 75 76 78 78 76 76 76 76 75 75 75 76 78 78 65 62 58 60 70 77 77 79 78 61 58 58 60 63 63 63 73 72 72 72 72 73 74 74 73 70 70
73 73 74 74 77 78 76 75 76 76 76 75 76 76 77 79 79 60 57 58 59 71 79 74 65 58 57 58 57 59 58 67 68 69 69 70 72 73 74 73 70 67 66
72 73 73 73 73 75 77 78 77 76 76 76 76 76 77 78 78 78 71 66 60 63 65 71 66 65 63 66 66 61 64 67 69 69 69 71 71 72 69 69 66 64 63
71 72 72 73 72 73 74 73 77 78 75 78 78 78 77 75 76 70 71 75 75 70 69 72 69 69 70 69 69 68 66 66 67 67 68 68 69 67 66 66 65 63 62
68 69 69 71 72 73 71 67 49 50 48 48 51 63 76 64 59 54 53 54 55 53 67 71 71 70 70 70 69 68 67 66 67 68 68 68 66 66 64 64 65 64 62
66 68 68 67 70 71 71 69 68 59 47 46 47 47 47 56 52 52 51 47 48 54 70 70 71 71 71 70 69 67 66 67 69 68 68 68 67 65 64 65 64 62 60
66 56 66 69 69 70 71 71 70 69 67 68 48 49 48 46 46 46 46 51 61 58 70 72 72 71 69 69 67 66 67 66 67 68 68 66 65 65 65 63 63 62 61
65 66 68 69 69 67 70 71 70 69 69 68 63 54 47 43 44 43 45 73 72 69 68 68 69 69 67 66 67 67 66 65 66 67 65 65 65 65 64 64 62 56 57
64 60 60 66 68 69 70 71 70 69 68 67 65 67 60 57 64 65 64 68 71 70 67 67 66 67 67 67 66 65 64 62 63 65 67 65 65 65 66 64 65 61 63
62 65 62 66 68 69 69 71 71 69 68 67 67 63 54 67 67 67 68 66 67 67 65 65 63 63 64 66 65 65 65 66 66 64 66 64 64 64 64 65 64 67 66
60 62 66 67 68 68 69 70 71 70 69 67 63 59 49 67 68 65 66 67 66 66 66 64 64 64 66 67 68 67 64 65 65 65 65 64 64 64 63 62 62 65 65
59 61 64 67 68 64 67 69 70 69 67 65 64 61 63 65 68 65 64 65 65 65 65 65 65 64 67 67 68 68 67 67 68 68 66 64 63 65 65 64 63 64 65
58 60 64 66 68 68 68 67 66 59 65 65 64 63 64 65 66 65 62 62 62 61 62 63 65 68 67 67 67 68 68 69 68 68 68 68 67 60 66 66 66 65 65
62 62 65 68 64 64 61 63 62 61 60 59 59 57 56 58 59 58 57 57 55 56 55 54 54 55 57 57 58 59 45 36 58 55 68 68 68 66 67 67 66 66 65
53 55 56 55 55 54 53 52 51 52 51 51 51 50 50 51 54 54 53 51 50 50 49 48 50 53 53 52 48 39 34 34 51 41 67 68 68 67 67 67 66 67 67

GFSGL_sfc_temp_069.txt.gz
Temp
82 82 82 82 82 82 83 82 83 83 83 83 84 84 85 85 85 83 83 85 83 83 84 83 83 84 86 87 86 85 83 82 80 86 89 87 82 84 87 87 86 85 87
83 82 82 82 82 82 82 83 83 82 83 83 83 83 84 85 85 83 83 86 83 83 84 83 83 86 82 83 86 82 83 83 81 78 84 86 83 84 84 83 87 91 89
84 83 82 82 82 82 82 83 83 82 83 83 83 82 84 85 84 84 84 85 85 85 85 84 84 84 82 85 84 85 87 85 83 81 82 87 87 86 85 83 82 84 87
86 85 82 81 82 83 82 82 82 82 82 82 82 83 84 85 85 85 85 84 84 86 86 85 85 85 83 83 84 83 83 83 84 82 83 84 85 86 85 82 83 88 87
84 83 82 82 82 82 82 82 82 82 83 83 82 83 84 85 88 84 85 85 84 84 85 85 86 83 77 79 87 85 83 83 85 84 84 85 85 86 84 86 83 84 84
82 82 82 82 81 81 81 81 81 81 81 82 82 82 82 86 76 72 79 85 85 84 83 85 85 78 77 71 70 72 79 82 80 82 84 83 82 83 86 85 83 80 78
81 82 82 81 80 80 81 81 80 80 82 81 81 82 82 83 70 69 70 84 85 85 84 84 86 90 80 84 73 68 69 68 71 80 80 81 81 83 83 80 77 75 74
81 81 81 81 80 81 80 80 80 81 80 80 81 82 82 83 68 66 68 81 83 84 85 84 84 85 85 84 84 84 85 85 81 81 81 81 83 84 83 80 75 74 75
81 81 81 81 80 80 80 80 81 80 80 80 81 81 81 82 65 64 67 82 82 82 84 84 84 84 76 68 81 82 83 85 79 68 69 69 68 67 70 76 71 71 71
82 82 82 82 81 80 80 80 81 82 82 84 82 82 76 81 67 62 67 83 82 84 83 83 70 78 68 64 79 81 80 83 85 85 84 76 71 74 66 71 73 70 70
85 84 82 82 81 81 81 81 81 81 83 81 82 83 82 80 80 61 59 80 84 84 85 86 87 64 62 60 62 82 80 82 80 82 81 80 80 77 77 80 77 74 70
83 83 82 81 83 84 81 81 81 80 79 80 80 82 85 83 67 63 58 61 73 83 84 88 86 62 58 58 62 66 64 66 80 77 76 75 76 77 77 78 78 75 72
81 81 81 82 82 84 81 80 81 80 83 81 83 83 85 87 86 61 58 58 60 77 85 80 67 58 57 61 58 60 60 73 75 73 73 75 80 81 78 77 71 69 70
80 80 81 81 80 82 84 84 84 84 83 84 84 84 86 87 87 87 79 72 61 67 69 78 75 69 66 69 69 66 71 76 76 74 74 76 79 77 74 73 68 67 66
81 81 80 81 79 82 84 85 85 86 82 86 86 87 86 86 87 76 78 85 85 76 75 79 76 73 72 72 73 74 74 71 69 70 71 74 73 73 72 72 68 66 70
77 80 78 82 83 84 83 80 53 54 51 50 52 67 87 67 58 55 53 54 55 54 71 75 73 72 72 72 72 73 73 69 70 70 71 72 72 73 69 71 69 71 68
71 71 69 76 82 82 78 76 78 67 49 49 48 48 49 56 51 49 49 48 49 54 73 73 74 73 73 73 73 73 71 71 74 71 72 74 73 72 69 68 69 72 66
73 57 77 79 81 82 83 83 83 78 79 82 53 54 47 46 47 47 46 53 65 60 72 74 74 76 75 74 74 72 71 71 69 72 75 71 71 73 67 67 69 67 64
72 76 76 79 80 76 81 81 80 78 80 82 78 58 51 44 44 44 45 74 76 80 75 74 75 75 76 75 73 71 70 68 73 78 78 72 72 71 69 73 69 60 62
71 63 63 71 76 80 82 82 82 78 74 74 80 81 73 59 69 67 62 68 78 82 83 80 74 73 72 72 70 70 70 68 73 76 74 76 75 72 71 71 70 70 67
68 71 64 73 76 79 82 82 83 83 76 74 75 76 58 74 80 78 75 72 78 82 82 82 79 76 71 71 73 76 76 74 75 73 76 74 75 68 70 71 73 72 71
63 68 72 74 77 77 78 81 82 83 79 73 73 70 48 66 75 77 76 78 82 82 81 75 71 71 70 70 71 73 78 78 77 76 72 74 74 71 69 68 71 74 73
60 60 63 68 73 71 75 78 81 81 81 79 74 69 62 65 70 76 79 80 80 79 77 72 69 70 71 72 74 74 77 76 76 74 68 69 69 68 68 67 67 69 74
61 60 60 66 71 74 77 78 80 67 78 79 76 72 65 67 69 71 74 77 75 74 78 78 78 78 75 76 76 76 79 79 79 76 74 71 68 63 68 67 67 67 74
54 57 64 64 70 74 75 74 74 75 74 70 69 65 61 61 60 61 62 70 70 68 67 70 72 72 71 70 72 73 46 36 66 55 76 73 72 71 73 75 74 73 72
48 48 49 51 54 55 56 54 52 54 53 52 51 51 52 55 54 54 53 54 57 57 58 60 59 60 62 62 54 40 33 35 54 40 71 72 72 72 73 74 75 75 74

GFSGL_sfc_temp_075.txt.gz
Temp
89 88 88 89 89 89 90 91 90 91 92 91 91 90 90 90 90 89 89 92 89 89 89 90 89 89 91 95 96 94 92 92 87 92 96 96 94 93 92 92 91 92 94
91 89 88 89 89 89 89 91 91 89 90 90 90 90 90 91 90 89 88 92 89 89 89 89 89 93 87 88 91 88 91 91 90 83 88 91 89 92 92 91 92 96 94
91 91 90 89 89 89 89 90 91 90 89 90 89 89 89 90 90 90 90 90 91 91 91 90 90 90 88 91 91 91 93 92 90 89 89 95 95 96 93 92 91 92 97
95 93 89 88 89 90 90 89 90 90 89 89 89 89 90 90 91 91 91 90 90 92 92 92 92 91 90 89 89 88 88 88 89 89 90 92 95 95 96 94 94 97 96
94 93 91 89 89 89 89 89 90 90 90 89 89 90 90 91 94 90 91 91 89 90 91 92 92 90 81 82 91 89 88 89 91 91 92 93 94 94 89 94 92 94 93
93 92 91 89 88 88 88 89 89 89 89 89 89 89 89 94 81 75 85 91 91 89 89 90 91 84 81 74 73 73 78 83 84 87 89 88 85 88 92 90 89 87 84
93 92 91 89 87 87 88 88 87 87 89 88 88 89 89 90 73 71 74 91 91 89 89 89 91 97 84 91 76 72 72 70 71 81 81 82 82 85 85 82 83 83 83
91 92 91 90 88 88 88 87 87 88 87 87 88 88 89 90 71 68 71 88 89 89 90 90 89 89 89 89 91 91 89 89 84 83 83 83 85 86 86 86 82 82 84
91 91 91 91 88 88 87 87 88 88 88 88 89 87 87 88 68 66 71 89 89 87 89 89 89 88 80 71 86 85 86 88 85 71 72 72 71 70 74 83 80 79 81
91 92 92 91 89 88 87 87 88 89 89 92 90 89 82 88 69 64 70 90 88 90 88 87 73 82 71 67 84 85 83 86 88 89 90 81 70 78 68 78 82 79 78
94 93 92 91 89 89 88 88 88 88 89 88 89 90 89 87 86 62 61 86 91 92 93 94 96 69 66 64 64 85 83 84 83 87 89 91 88 88 86 80 84 81 77
93 92 90 89 91 92 87 88 87 87 85 86 86 89 92 89 71 62 59 63 76 89 91 98 96 67 61 62 65 69 65 68 85 86 87 88 87 87 90 86 83 84 82
91 89 89 89 90 91 87 86 87 87 88 86 89 89 92 96 92 64 58 59 62 79 91 84 64 59 57 60 58 62 61 82 83 85 85 85 87 89 83 79 81 79 78
88 88 89 88 87 89 91 90 89 90 89 91 90 92 93 95 97 97 83 73 63 71 74 82 80 69 62 71 78 71 82 86 87 86 84 87 90 84 83 79 73 75 74
85 88 88 89 86 88 91 92 92 92 89 93 95 96 95 95 96 86 86 90 87 80 80 86 86 87 87 88 89 89 88 85 84 86 85 83 86 83 80 76 72 75 75
80 83 89 91 90 90 91 87 57 63 54 54 55 72 96 63 56 56 55 53 56 58 80 86 88 89 89 90 85 82 87 82 86 85 84 83 79 77 74 74 75 78 81
73 76 89 86 93 91 92 91 88 71 55 55 55 54 53 54 53 53 50 50 54 61 86 89 89 91 90 83 83 81 81 82 85 83 81 80 77 76 71 74 76 78 81
68 63 76 86 92 93 94 93 94 89 87 88 62 65 53 50 51 49 50 55 82 74 87 89 89 88 83 84 88 90 90 91 83 83 82 80 77 75 73 75 77 79 81
66 66 74 76 76 74 86 91 92 86 88 88 85 63 55 47 47 47 47 79 86 89 92 89 91 91 89 89 89 91 91 90 86 83 80 79 77 77 76 77 77 70 73
65 64 64 69 73 76 84 88 84 88 83 83 86 85 74 70 77 82 78 80 83 87 92 95 96 96 95 94 92 89 87 82 80 79 77 76 74 74 73 73 81 82 80
66 68 64 72 73 74 81 75 88 81 84 83 76 75 56 81 86 92 91 86 86 87 90 92 94 95 91 89 90 88 81 84 85 82 78 74 74 73 75 79 84 83 83
73 75 74 71 69 71 73 71 82 83 83 87 86 82 55 92 90 90 92 95 95 92 93 92 93 93 91 83 84 85 83 85 84 81 77 76 76 77 78 80 84 84 82
73 72 74 77 79 74 78 83 89 91 93 95 96 96 91 91 90 91 91 92 93 94 94 91 87 90 92 92 92 89 86 84 83 83 80 78 79 78 79 80 85 83 82
64 64 66 70 72 73 80 83 88 77 89 93 93 94 91 91 91 88 84 79 81 82 83 84 87 88 88 89 89 89 87 86 87 86 85 85 84 82 82 80 82 80 76
52 51 51 52 57 60 65 67 67 69 72 71 69 69 70 72 73 71 70 69 69 65 62 66 67 70 73 66 66 67 48 34 60 50 83 85 83 82 81 82 79 74 73
48 47 46 46 45 45 46 46 47 48 49 50 49 49 50 51 53 53 54 54 55 53 52 51 52 51 57 63 49 40 34 33 53 38 71 83 80 80 78 74 73 73 74

GFSGL_sfc_temp_078.txt.gz
Temp
84 83 82 82 83 83 85 85 85 85 87 87 87 86 85 85 85 84 83 84 82 82 83 83 81 83 83 83 84 83 82 81 77 79 82 84 84 83 85 84 85 83 84
85 83 83 83 82 83 82 86 86 85 87 87 85 86 85 85 84 84 83 84 84 82 83 83 84 87 82 82 82 81 81 82 79 76 79 80 81 82 82 83 85 91 86
87 86 84 84 83 82 82 84 86 84 84 86 85 84 84 84 84 84 84 83 84 84 84 84 83 83 82 83 83 82 82 83 81 79 79 81 82 83 83 82 83 82 88
90 87 84 83 83 84 84 83 84 85 84 84 84 84 85 85 85 85 85 84 84 85 85 85 85 84 83 83 83 82 82 81 81 80 80 81 82 82 82 80 80 82 82
89 87 85 84 84 84 84 84 84 84 85 84 84 84 85 86 89 84 84 84 83 84 85 85 86 85 81 80 86 82 82 81 81 81 80 79 79 79 78 80 79 81 81
88 87 86 84 84 84 84 84 84 84 84 84 84 84 84 89 79 75 81 84 84 83 82 83 84 80 79 75 73 73 77 79 78 78 79 78 77 79 79 79 78 77 75
89 88 86 85 84 83 84 84 83 83 84 84 83 84 84 84 74 72 74 85 84 83 82 82 85 91 80 84 75 73 72 71 72 78 76 77 77 78 78 77 77 77 77
88 88 87 85 84 84 83 83 83 84 83 83 83 84 84 85 72 69 71 82 83 83 83 83 82 82 82 82 83 82 81 81 77 77 76 79 80 81 80 80 79 78 79
88 87 87 86 85 84 82 82 83 84 84 83 84 83 83 84 69 68 69 80 83 82 83 83 83 82 77 72 80 80 80 81 81 70 70 71 72 72 73 76 77 76 75
88 89 89 88 86 84 83 83 84 84 85 87 85 85 80 84 69 65 69 85 82 84 82 81 72 79 71 68 78 80 79 81 82 82 82 78 69 74 68 74 78 75 75
91 90 88 88 85 85 84 84 84 84 85 84 84 85 85 83 82 63 61 82 84 84 84 85 86 69 65 64 64 80 79 80 79 80 81 82 83 84 83 79 78 78 76
90 89 88 87 89 90 84 84 84 83 82 82 82 84 87 85 71 63 60 64 75 83 84 88 86 68 61 62 64 68 67 66 80 80 80 80 81 82 83 82 80 81 79
88 86 86 87 88 87 84 83 83 83 84 82 84 84 86 88 87 64 59 60 63 77 85 78 63 60 58 58 58 62 61 74 77 78 78 80 82 82 83 80 78 77 74
86 86 86 86 84 86 88 86 85 84 83 85 84 85 86 86 89 88 75 68 62 67 71 77 75 69 61 67 72 65 73 79 79 79 80 82 83 82 80 79 76 73 72
80 86 86 87 83 85 86 86 86 87 86 85 87 86 87 86 88 81 80 81 79 74 76 80 80 79 80 81 82 83 79 79 79 81 81 81 81 80 79 76 74 71 69
73 73 83 86 85 85 85 83 56 65 58 58 64 75 74 60 51 50 50 60 60 58 75 80 80 80 81 81 81 82 84 80 82 80 80 80 79 79 77 74 72 70 70
66 69 72 72 83 83 84 84 81 69 53 50 53 57 64 57 50 49 50 51 54 59 81 80 81 82 83 84 85 83 81 81 80 81 80 79 77 75 73 72 72 71 70
65 60 67 68 72 75 86 86 87 82 78 76 57 58 51 53 51 51 50 57 74 73 84 84 83 84 85 83 82 83 83 83 82 81 81 81 79 75 73 72 71 72 72
62 63 64 64 69 67 79 87 90 86 86 86 87 62 52 48 47 47 50 82 82 84 85 84 84 86 86 84 82 82 82 83 82 81 81 80 78 76 73 73 73 65 67
61 62 62 63 65 66 69 75 74 79 75 83 83 86 76 66 74 76 72 77 81 84 85 86 87 86 86 85 84 82 82 82 82 81 79 79 78 76 73 73 73 71 70
60 63 63 66 64 66 67 68 69 73 74 81 83 82 68 79 78 81 82 78 79 80 83 84 85 86 86 87 86 83 83 83 82 82 80 77 75 73 73 72 72 73 73
63 63 66 64 63 64 64 67 69 71 73 79 82 76 53 77 74 81 76 81 86 86 88 86 86 88 89 87 84 84 84 83 83 82 80 78 75 73 73 72 73 73 74
66 64 62 63 62 61 65 68 65 69 70 74 72 72 72 72 75 76 77 79 77 73 74 73 68 69 70 74 74 76 77 78 82 83 80 77 75 74 74 73 75 74 73
54 54 56 59 56 55 54 56 57 56 62 65 62 62 61 65 65 65 65 67 64 66 62 62 60 59 60 57 56 57 55 51 57 72 80 79 78 73 77 76 76 75 74
49 48 47 46 46 48 48 48 48 51 52 51 51 52 54 55 55 55 56 57 57 55 54 54 51 50 51 49 48 48 39 34 45 43 68 78 79 77 76 75 77 77 76
46 45 44 43 42 42 43 43 43 43 44 44 44 44 45 46 47 47 47 48 49 48 48 48 46 45 45 44 41 37 34 34 40 35 52 66 72 73 75 74 75 75 74

GFSGL_sfc_temp_081.txt.gz
Temp
79 79 79 78 76 75 76 77 77 78 78 80 79 78 78 78 78 76 76 76 76 75 76 76 76 76 76 76 76 76 75 73 70 73 76 78 78 78 81 80 80 80 81
80 80 79 79 78 79 75 75 77 78 77 79 81 80 79 78 77 77 76 79 77 76 76 75 76 81 76 76 75 74 74 75 73 70 72 75 77 80 80 78 82 86 81
81 80 79 79 79 78 79 75 79 77 79 79 79 79 78 77 77 77 77 76 76 76 77 77 77 76 75 75 76 76 75 77 75 73 73 75 76 76 76 78 78 79 82
82 80 79 79 80 80 81 79 76 80 76 77 77 78 77 78 78 77 77 76 76 77 78 77 77 77 77 76 76 76 76 75 74 73 72 73 74 77 75 73 73 75 76
82 81 80 80 81 80 80 79 81 76 82 80 76 76 78 79 82 77 78 76 76 76 77 78 78 79 77 78 81 76 76 75 74 73 72 72 71 71 71 72 71 71 74
83 81 82 81 80 80 80 80 79 81 76 80 80 79 78 83 76 73 78 77 77 78 77 76 78 77 76 74 72 72 76 75 73 72 71 71 73 71 72 71 71 70 69
85 83 82 81 79 80 80 80 79 80 82 80 79 80 79 80 72 71 73 82 79 77 78 79 79 85 76 78 74 71 71 70 72 79 71 71 71 72 72 72 72 72 72
83 83 82 81 80 80 81 80 80 80 80 81 81 80 80 81 71 69 71 79 79 80 79 77 79 80 77 76 76 75 76 76 73 74 73 78 77 77 74 77 74 73 74
81 83 82 82 80 80 79 81 81 81 81 81 82 80 80 81 68 67 68 72 78 78 79 80 79 79 74 69 73 74 74 75 75 69 69 69 70 70 73 73 71 69 74
73 82 84 83 82 81 81 81 82 82 82 82 82 82 77 80 69 65 67 80 75 77 77 76 69 75 68 66 74 74 73 76 74 75 74 69 66 70 68 71 76 71 71
69 71 83 84 83 83 82 82 82 81 82 81 81 82 81 79 80 64 61 80 81 79 80 80 80 66 62 61 63 79 78 80 75 73 74 74 75 76 77 71 73 73 71
67 68 80 82 84 84 82 82 82 81 80 80 80 80 82 82 69 65 60 62 74 80 80 82 82 66 62 61 63 66 65 65 72 73 72 72 72 75 79 77 76 75 76
65 67 76 82 84 85 81 81 80 81 80 79 79 79 81 83 83 64 60 59 62 76 83 78 70 63 60 58 58 61 61 66 72 72 73 74 75 78 78 75 73 72 71
63 66 77 82 81 83 83 83 81 81 80 80 79 80 81 82 83 84 72 66 61 65 70 73 66 66 64 69 65 62 63 68 71 73 74 75 74 75 75 74 71 70 69
61 64 70 78 77 79 82 80 82 84 81 81 82 82 81 80 82 76 77 77 75 70 71 75 75 73 74 76 75 73 68 69 71 73 73 73 75 75 74 74 73 69 69
60 62 61 66 71 75 75 75 57 62 59 59 62 76 83 66 65 61 59 61 62 58 69 74 73 74 73 74 73 74 74 71 73 73 75 76 75 74 73 71 69 70 69
59 60 61 62 66 68 74 75 76 66 55 51 52 59 58 60 50 50 49 53 52 60 72 74 75 74 74 75 75 75 75 75 75 75 74 74 74 74 72 71 70 70 69
60 57 60 61 63 66 67 72 76 75 72 70 54 54 49 50 49 48 49 55 62 64 76 74 74 75 75 76 76 75 74 74 73 73 73 73 74 73 71 70 70 70 70
58 60 61 62 64 63 67 69 74 75 74 75 65 54 52 51 51 51 49 72 73 73 75 76 75 76 77 76 75 75 75 74 73 74 74 75 75 73 71 71 71 63 66
56 59 59 61 63 63 65 66 67 70 71 73 73 69 62 61 66 66 66 69 71 73 75 75 75 75 74 75 75 75 74 73 73 74 75 75 74 73 71 71 72 71 69
54 57 60 62 62 62 63 64 64 66 68 69 68 68 56 68 68 69 69 69 70 72 72 73 74 73 73 76 77 75 76 75 76 75 74 73 73 71 72 72 71 71 69
56 55 57 58 61 62 62 61 60 62 64 64 66 62 55 66 66 67 66 64 63 62 61 60 60 58 59 58 59 63 71 73 74 74 73 72 71 70 70 71 70 70 70
52 53 53 52 53 54 55 55 54 54 54 55 57 58 59 58 56 57 58 57 56 54 53 52 51 50 52 52 53 53 51 51 52 58 71 71 70 70 69 69 70 69 68
48 48 47 48 49 49 50 49 50 48 49 49 48 49 50 50 51 51 53 52 52 49 48 47 48 48 46 48 48 49 47 44 47 56 58 66 71 68 70 69 69 69 67
45 44 44 43 44 44 44 44 44 44 44 44 44 44 45 45 45 45 46 47 46 46 45 44 44 44 44 45 42 43 37 33 45 40 57 62 66 68 71 71 71 70 69
44 43 42 41 41 41 41 40 41 41 40 41 41 41 42 42 42 42 42 42 43 43 42 42 41 40 40 40 38 36 33 34 42 39 52 62 63 64 63 67 69 68 70

GFSGL_sfc_temp_084.txt.gz
Temp
78 78 78 77 73 72 75 76 75 75 76 76 77 77 77 75 74 73 73 74 74 73 73 73 74 74 73 73 73 73 72 70 68 71 71 75 75 76 79 78 78 77 78
79 78 77 77 77 72 73 75 75 75 75 77 76 78 78 76 75 73 73 76 74 73 74 73 74 78 74 73 72 72 72 72 71 69 70 73 74 76 76 76 79 82 78
79 78 78 77 77 78 76 72 73 75 75 75 76 77 77 76 75 74 74 74 74 74 75 74 74 74 73 74 74 73 73 74 72 70 71 72 72 74 74 74 75 76 78
77 78 77 77 78 79 79 75 73 74 74 76 76 77 78 78 77 76 74 73 73 74 75 75 75 74 74 74 73 73 74 73 73 71 71 71 71 74 72 71 70 71 74
73 74 78 78 78 78 79 78 76 73 76 74 77 76 77 78 80 75 75 74 73 73 74 75 75 75 74 74 76 74 74 73 72 72 72 71 70 70 69 70 69 69 72
75 75 74 78 77 77 77 78 76 77 74 76 74 76 75 80 73 71 75 74 75 74 74 73 74 75 74 71 71 71 74 74 73 71 71 71 73 68 69 69 69 69 68
75 79 78 74 76 77 77 77 77 77 79 76 77 78 76 77 70 70 71 77 75 75 76 76 75 81 74 76 71 69 68 68 72 78 71 73 70 71 70 69 69 69 69
70 71 75 75 76 76 77 76 77 77 78 78 76 78 78 79 69 68 70 76 77 76 76 76 76 77 74 74 73 73 73 73 71 72 72 76 76 76 71 75 71 71 72
70 68 68 75 75 75 77 77 78 78 78 78 79 78 76 78 66 66 67 75 76 76 77 76 76 77 72 67 74 74 74 74 73 67 68 68 68 68 70 71 71 69 69
64 66 68 67 75 76 78 79 79 80 79 80 79 80 76 79 67 64 66 78 74 75 76 76 68 75 67 64 73 75 73 77 74 72 72 69 66 69 66 69 72 70 68
64 65 68 69 75 78 79 80 80 80 80 79 78 79 80 76 78 62 61 77 78 77 76 77 77 65 61 60 63 76 74 78 76 70 71 72 73 73 73 70 70 72 68
63 64 65 67 72 83 80 80 79 79 78 78 78 78 79 80 67 63 60 62 72 78 78 79 79 64 59 58 59 64 64 63 68 70 71 72 72 73 74 73 73 71 76
63 64 65 67 70 76 77 79 79 79 78 77 77 77 78 80 80 62 59 59 62 75 81 76 67 61 58 59 59 61 59 63 67 68 71 73 75 76 74 73 72 73 73
60 62 64 63 71 75 75 80 80 79 78 78 77 77 78 79 80 81 70 65 61 64 70 74 71 65 63 66 65 61 62 64 66 68 70 72 71 71 71 74 72 70 70
58 60 62 62 65 73 76 77 81 82 80 79 79 80 78 77 79 73 74 76 74 69 70 73 70 67 70 69 69 69 68 66 66 68 68 69 70 71 73 73 72 70 70
57 58 60 61 62 66 72 71 57 60 58 58 61 73 80 69 62 59 57 56 57 54 66 72 70 72 72 73 73 74 71 69 71 71 70 71 71 72 72 71 71 71 71
54 57 59 60 62 62 64 67 72 66 56 54 52 55 56 66 54 51 53 54 49 55 73 71 72 72 72 73 73 72 71 73 73 71 71 72 72 72 69 70 71 70 70
53 54 57 59 60 62 63 64 67 72 71 70 57 55 51 49 49 51 47 53 60 59 72 73 72 73 72 72 72 72 73 72 72 73 73 73 73 73 71 71 71 70 70
52 54 57 58 60 61 63 63 65 70 71 71 64 54 50 47 47 46 47 68 68 67 69 72 72 71 72 73 73 74 74 74 73 73 73 72 73 72 72 72 71 62 64
51 55 56 57 59 60 62 63 62 64 68 70 69 68 60 60 64 66 66 67 69 69 70 71 71 71 71 71 72 73 73 71 72 72 73 73 73 73 73 72 70 69 69
50 51 57 58 59 61 59 57 57 61 64 65 61 63 55 67 67 67 66 64 63 59 59 60 57 57 56 57 58 59 69 72 72 72 73 74 73 72 72 71 70 69 70
48 48 51 51 54 56 54 54 54 54 55 58 56 55 50 61 60 59 57 54 53 53 52 54 52 52 51 53 55 56 56 56 56 58 61 71 72 71 70 70 69 68 69
47 47 47 49 50 51 51 51 49 51 51 51 53 52 52 51 52 52 52 50 49 48 49 51 48 47 47 48 50 51 51 51 51 54 58 60 69 69 69 68 68 67 67
46 46 46 46 46 46 47 47 46 46 48 48 49 49 48 48 47 48 47 48 47 46 46 46 46 45 44 45 45 46 44 43 48 54 56 60 64 64 68 68 68 68 67
44 43 42 42 42 42 43 43 43 44 43 43 44 45 45 46 45 45 45 45 44 44 44 42 42 43 41 41 41 41 38 35 45 41 56 61 64 63 64 64 68 68 67
43 42 41 40 40 40 40 40 39 40 41 41 40 41 41 41 41 41 41 41 41 40 40 40 40 40 40 40 38 35 33 33 41 38 54 55 58 57 55 60 61 62 64

GFSGL_sfc_temp_087.txt.gz
Temp
77 77 77 75 70 70 71 73 73 73 73 74 74 74 74 74 73 72 72 72 72 72 72 72 72 72 71 71 71 71 70 68 67 69 69 73 74 75 77 76 77 77 76
77 77 76 76 74 71 71 72 73 74 73 74 74 74 74 75 73 72 72 74 72 72 72 72 72 75 72 72 71 71 70 70 69 68 69 71 73 74 74 75 76 81 76
77 77 76 76 76 74 73 71 72 74 74 73 74 73 74 75 74 73 73 72 72 72 73 73 73 72 71 71 72 71 71 72 71 69 70 70 71 72 73 73 74 73 77
75 77 76 76 76 77 77 72 72 73 74 73 73 74 74 74 75 75 74 72 72 73 73 73 73 73 72 72 72 72 72 71 71 70 70 70 70 72 71 70 69 70 72
71 72 76 76 77 77 77 77 73 73 74 75 75 73 74 75 77 73 74 73 72 72 72 72 73 74 73 72 74 72 72 71 71 70 70 69 70 69 69 69 68 68 70
72 71 72 76 76 75 75 77 76 74 75 72 74 76 74 78 72 70 74 74 72 72 72 72 73 73 72 70 69 70 72 72 71 70 70 70 71 69 68 68 67 67 67
71 72 72 70 73 74 75 75 76 76 75 74 74 74 75 76 69 69 70 77 74 73 72 72 73 78 72 73 70 68 68 67 70 73 70 70 69 70 69 68 67 67 67
71 72 72 71 71 72 74 74 75 77 76 76 75 75 75 76 67 66 69 75 74 74 74 73 73 74 72 72 72 71 72 72 70 70 70 74 72 74 70 71 69 69 70
68 67 69 69 70 72 72 75 76 76 76 76 77 76 76 77 65 65 66 72 74 74 74 74 74 74 70 66 71 72 72 73 71 66 67 67 67 66 67 69 68 68 67
62 64 66 67 66 69 72 72 74 76 77 77 76 77 74 77 66 63 65 77 75 75 75 73 67 73 66 63 70 72 70 74 72 71 70 67 65 68 65 68 69 68 67
61 63 64 66 67 67 68 72 72 72 74 76 76 77 77 75 76 61 61 76 77 77 74 76 75 64 60 59 61 74 73 75 71 70 69 69 70 71 72 69 69 70 69
60 61 62 64 67 70 68 71 73 72 72 75 75 76 77 78 65 62 59 61 71 77 76 77 76 62 58 58 58 62 62 63 67 67 68 70 70 71 73 72 72 71 73
59 60 61 63 65 66 67 70 72 72 72 74 75 75 76 78 78 61 58 58 61 72 79 74 65 58 56 57 58 60 59 63 66 65 67 70 72 74 72 71 72 72 72
56 58 59 62 61 64 68 72 72 72 71 72 74 74 77 77 77 78 68 64 60 63 68 72 68 64 63 65 64 62 64 66 68 68 69 70 68 68 69 70 70 70 71
54 56 58 60 61 62 65 71 74 76 72 72 74 74 73 74 76 71 72 73 72 67 68 71 72 67 68 68 68 68 67 64 65 66 66 67 67 67 68 70 70 70 71
52 54 55 58 60 62 63 65 60 58 56 55 55 70 79 66 60 54 54 54 55 54 66 72 72 72 72 71 71 70 70 68 69 69 69 70 69 69 69 70 70 71 71
50 52 53 55 58 60 63 63 64 65 53 51 52 53 54 61 53 51 52 50 48 54 72 71 72 72 72 72 72 72 72 73 72 71 70 69 70 70 69 70 71 70 71
49 51 52 54 57 59 61 63 65 66 68 71 58 54 52 51 48 48 46 52 58 59 70 72 71 72 72 71 72 72 72 71 70 71 70 70 70 71 70 70 71 72 72
48 49 51 52 55 57 60 62 63 64 66 70 68 57 51 49 50 46 48 69 70 68 67 70 72 73 72 72 71 71 72 72 71 71 72 72 72 72 72 72 71 63 64
49 52 54 55 56 58 61 59 59 61 63 65 69 69 61 59 62 63 61 65 68 68 67 68 70 70 71 71 71 72 72 71 71 72 72 72 72 72 72 72 71 68 68
48 48 53 54 56 57 56 55 56 56 59 59 58 56 55 66 67 67 67 61 59 58 58 60 58 56 56 57 59 62 68 71 70 70 70 71 72 72 73 71 70 69 68
47 47 47 50 53 54 52 53 52 53 52 54 54 54 47 57 56 54 53 52 52 51 51 51 49 49 49 49 50 52 55 57 59 61 62 65 69 71 70 70 69 68 68
46 46 44 48 49 49 50 49 49 49 50 50 50 50 50 50 50 49 49 48 48 47 48 48 47 46 48 47 48 47 47 47 50 51 57 62 66 68 68 69 69 67 67
46 46 46 46 46 45 45 45 46 44 45 46 46 45 46 47 47 46 46 46 46 46 48 46 44 44 44 44 45 45 42 41 45 50 52 58 63 63 67 68 68 68 67
43 43 42 42 42 42 42 41 42 43 42 42 42 43 43 42 43 43 43 43 43 43 42 42 43 42 42 41 41 40 36 34 44 41 53 57 59 59 60 61 62 63 65
42 41 41 41 40 40 40 39 39 40 40 40 40 40 40 40 41 41 41 40 40 40 39 39 39 39 38 38 37 35 33 33 41 39 51 53 53 53 55 56 57 58 58

GFSGL_sfc_temp_090.txt.gz
Temp
75 75 74 73 71 71 73 74 74 75 75 75 75 76 76 76 76 75 75 75 75 75 76 75 75 76 77 77 77 76 76 75 74 77 76 79 79 80 82 82 83 83 82
75 75 75 74 73 72 72 73 74 74 74 75 75 75 76 76 76 76 76 77 75 75 76 75 76 78 76 76 77 76 76 75 75 73 76 78 78 80 80 79 82 86 82
74 76 74 73 73 73 73 72 72 74 74 75 75 75 75 76 76 76 76 76 76 76 76 76 77 77 75 76 76 76 77 77 75 74 75 77 78 79 80 80 80 79 83
76 75 73 73 73 74 74 73 72 73 74 74 75 75 76 76 77 77 76 76 76 76 77 77 77 77 76 77 77 76 77 76 76 75 75 76 76 78 77 77 79 80 79
71 73 74 74 74 74 73 73 73 73 74 75 75 76 76 76 78 76 76 76 76 76 76 77 77 77 73 74 79 77 76 75 75 75 75 75 76 76 76 77 75 77 78
71 71 73 74 73 73 73 73 72 73 73 73 73 75 75 78 71 69 74 77 76 76 76 76 77 74 73 69 69 69 74 76 75 74 75 75 76 75 76 75 74 74 73
69 71 71 71 73 73 73 72 72 72 74 73 74 74 75 76 68 68 70 77 77 76 76 76 77 80 73 78 71 68 68 67 69 77 75 76 75 77 76 74 73 73 74
66 70 72 72 71 72 73 71 71 73 73 73 73 74 75 77 67 66 68 76 76 76 77 77 76 77 76 76 77 77 77 78 75 75 75 77 77 78 77 78 75 74 74
60 62 65 68 71 71 71 72 73 73 73 73 74 73 74 75 64 64 67 76 76 76 76 77 77 77 70 66 75 75 76 77 72 66 67 67 67 66 70 74 73 71 73
59 60 62 64 66 68 71 71 71 74 74 76 75 75 71 75 65 62 65 78 75 76 77 76 66 74 65 62 74 75 74 77 78 78 77 70 67 71 64 72 76 73 73
60 61 62 63 65 68 68 69 71 72 73 74 74 75 74 72 73 61 60 76 78 78 77 78 78 62 60 58 61 76 74 77 74 76 76 76 76 77 78 75 75 75 74
59 59 60 61 64 66 67 68 69 72 71 72 73 74 76 75 65 62 59 61 70 77 77 79 78 61 57 57 59 62 62 63 74 73 73 74 76 77 78 78 77 75 79
59 58 59 60 63 64 64 66 67 70 71 72 73 73 75 77 77 61 58 58 60 73 79 75 66 59 57 58 57 60 59 68 71 71 73 74 76 78 78 76 76 77 76
57 58 57 58 59 62 64 65 66 68 71 71 73 73 76 77 77 78 70 64 60 64 68 73 70 67 63 68 67 65 69 71 72 73 74 76 77 74 74 76 75 76 72
55 56 57 57 57 60 62 64 66 68 71 73 73 74 72 74 77 71 71 74 74 69 69 73 74 72 74 74 73 73 73 73 71 73 73 74 73 73 73 74 74 75 72
53 55 54 54 56 59 61 62 58 54 53 52 55 66 76 64 58 53 52 53 55 53 67 72 72 73 73 74 74 75 75 72 74 75 74 75 74 72 72 73 75 74 71
52 52 53 52 55 57 59 61 61 62 55 52 50 52 53 62 52 51 51 50 51 53 72 72 73 74 74 74 75 74 74 76 76 75 74 74 73 73 70 72 72 72 72
52 51 51 52 53 55 57 59 61 61 62 65 58 52 51 50 48 50 50 52 59 56 71 73 73 73 73 73 73 73 75 77 75 75 74 74 73 71 70 70 72 73 74
51 52 53 53 55 54 56 59 62 61 61 62 65 61 53 49 50 52 50 70 71 68 68 71 73 75 74 74 74 75 76 76 76 75 74 73 72 71 71 73 74 64 68
50 52 52 52 55 59 60 59 58 58 59 61 63 64 64 58 61 60 60 65 69 71 72 71 72 73 74 75 74 74 75 73 73 73 73 74 73 73 73 75 75 74 71
49 49 51 52 54 56 56 56 55 55 56 57 57 55 47 56 66 67 66 65 66 65 63 63 59 57 57 56 57 59 62 65 68 70 71 73 74 73 73 73 74 75 74
48 48 48 49 52 53 53 53 52 52 53 53 52 53 45 55 55 56 54 53 54 53 53 53 54 53 53 52 53 54 55 55 55 55 58 62 64 69 72 72 72 71 72
47 48 48 48 49 49 50 50 48 48 49 49 49 49 49 48 48 48 48 48 49 50 50 50 49 48 49 49 48 48 49 50 50 52 56 59 62 64 67 70 69 68 69
46 46 47 47 47 46 46 46 46 44 45 45 45 44 45 46 45 45 45 45 46 47 47 47 49 50 48 49 48 48 46 44 48 51 55 60 61 59 63 64 65 68 70
44 43 43 43 43 43 43 43 42 42 42 41 41 42 43 43 43 42 42 41 42 42 42 41 43 43 42 43 43 42 36 34 44 43 58 60 59 60 61 61 61 62 62
42 42 41 41 41 40 40 39 39 39 39 39 39 39 40 40 40 40 40 40 41 39 39 39 40 40 40 39 38 35 35 35 40 36 52 56 57 56 58 56 59 56 57

GFSGL_sfc_temp_093.txt.gz
Temp
83 83 82 82 82 82 83 84 84 85 84 84 85 85 85 85 85 82 83 84 83 84 84 83 83 84 88 88 88 87 86 85 83 88 89 90 86 88 90 91 93 93 92
82 81 82 82 82 82 82 83 84 84 84 84 84 84 84 85 85 83 84 86 83 83 84 83 84 86 83 84 87 83 85 85 84 81 86 87 87 87 87 87 90 95 91
80 80 80 81 81 82 82 82 83 83 84 85 84 83 84 84 85 85 85 85 85 85 85 84 85 84 83 86 84 86 87 86 86 84 84 89 88 90 88 90 89 89 94
85 81 80 80 81 82 83 82 82 82 82 83 83 84 84 85 85 86 85 85 85 86 86 86 86 85 84 84 85 84 85 84 86 85 86 87 88 88 87 88 88 92 90
80 82 82 82 82 82 81 82 82 82 82 83 83 84 85 86 88 85 85 85 84 84 85 86 86 84 77 79 87 85 84 84 86 86 85 87 87 88 85 88 87 89 90
75 77 80 81 81 80 81 81 81 81 81 82 82 83 83 87 76 71 80 86 85 84 84 85 85 77 76 70 69 70 76 82 81 84 85 84 82 85 88 87 86 84 83
65 68 75 78 78 80 80 80 80 80 81 80 81 82 82 84 69 68 70 86 86 85 84 85 87 90 79 86 73 68 68 67 70 81 80 82 82 84 84 82 83 83 83
61 62 64 67 75 78 79 79 79 80 80 80 80 81 81 84 68 66 68 83 85 85 85 85 85 86 85 84 85 85 86 86 83 82 82 84 85 86 84 84 81 80 84
61 61 62 64 66 68 74 77 78 78 79 79 80 80 80 81 65 65 68 84 85 84 85 85 85 85 76 68 83 83 84 85 79 69 69 69 68 67 72 84 84 85 84
62 62 62 64 64 65 67 69 72 76 76 80 80 81 76 81 67 62 67 85 83 85 85 84 69 79 69 63 80 82 81 84 86 87 86 76 69 76 65 77 85 83 85
64 63 62 64 63 64 66 68 68 71 73 76 77 79 80 79 79 61 60 81 85 85 86 87 88 65 62 59 63 83 81 83 82 84 85 87 88 87 88 84 83 85 85
61 63 62 62 64 65 65 65 67 69 70 73 75 76 81 80 67 63 58 61 73 83 84 88 87 62 58 57 61 67 64 66 84 85 85 86 87 88 89 88 85 84 87
64 60 60 61 62 66 63 63 64 67 72 73 73 74 76 83 81 60 58 58 60 77 85 80 68 58 56 60 58 61 60 78 82 82 83 85 88 90 87 85 84 84 83
64 63 60 60 59 60 63 65 64 64 67 73 76 76 77 80 83 83 77 73 61 67 71 79 76 71 68 74 75 69 77 83 83 83 84 87 89 87 86 87 86 87 85
64 64 64 62 60 59 59 60 65 65 64 67 70 76 79 79 83 74 76 82 81 76 76 82 82 80 79 79 80 83 84 84 81 83 84 85 85 86 85 86 85 86 84
62 64 65 63 64 64 60 60 56 53 53 51 50 55 71 65 58 55 54 54 54 54 72 80 80 79 77 77 77 78 80 79 84 85 85 85 85 85 85 85 84 84 83
57 60 64 61 63 61 59 58 60 63 52 51 49 48 48 54 52 50 50 50 50 55 75 78 79 78 77 77 78 78 79 85 84 84 84 85 85 85 83 82 79 76 76
58 54 60 62 62 61 57 59 60 60 62 65 58 56 53 46 48 50 51 54 61 57 72 74 76 76 76 76 76 76 77 78 81 81 82 85 85 82 76 74 75 74 73
56 57 62 63 64 62 60 59 59 61 62 62 64 60 55 51 48 49 51 67 70 71 68 71 73 75 77 79 78 76 76 77 79 80 82 83 82 78 75 75 76 64 70
55 54 55 60 60 60 63 60 60 62 61 60 61 61 57 56 64 65 61 65 69 73 74 71 72 73 75 75 76 75 75 74 78 80 80 81 80 78 76 76 75 75 74
55 59 56 57 59 60 59 58 60 59 58 59 59 57 46 51 58 65 68 67 69 71 67 63 63 62 62 62 64 66 67 67 65 65 66 69 72 74 75 75 75 76 76
58 59 59 59 58 55 56 56 56 57 55 54 55 55 46 55 54 56 55 55 54 54 56 56 56 55 55 57 58 60 61 60 59 58 60 62 64 66 68 70 73 73 76
55 57 58 59 57 52 52 54 52 53 52 51 50 49 50 49 50 49 50 52 51 51 52 53 53 52 53 53 53 53 56 56 57 57 60 61 62 65 66 67 70 71 73
54 54 53 54 53 52 50 49 48 46 47 47 47 46 46 45 45 45 46 46 45 45 47 49 48 50 51 51 51 51 52 54 58 58 59 61 62 61 65 64 64 66 69
46 46 48 48 48 48 48 46 45 44 44 43 43 43 43 44 43 42 42 42 42 43 42 44 44 43 44 44 44 45 39 36 48 43 61 62 62 64 65 66 65 66 67
43 43 43 43 43 43 43 42 41 41 41 40 40 41 41 40 40 41 41 41 40 40 40 40 41 41 41 39 38 35 33 33 43 37 61 62 61 63 66 64 64 62 63

GFSGL_sfc_temp_096.txt.gz
Temp
88 89 87 87 89 88 89 89 89 90 90 90 90 91 90 90 89 88 88 90 88 88 89 88 88 89 92 95 95 94 93 93 88 93 96 97 91 92 93 95 97 97 92
90 88 88 85 86 89 88 89 90 88 89 89 90 89 90 91 90 88 88 91 88 88 89 88 88 92 87 88 93 89 91 91 90 84 90 93 92 92 92 91 96 101 98
91 89 87 85 86 84 88 88 89 88 89 90 89 89 89 90 90 90 89 89 90 89 89 89 89 89 87 90 90 91 93 93 92 91 90 95 95 95 93 94 94 95 101
88 89 86 85 85 87 85 87 88 88 88 88 89 89 89 90 90 91 91 89 90 91 91 90 90 89 88 88 88 88 89 89 90 90 91 93 95 95 95 94 94 98 97
84 84 85 85 81 84 85 85 88 88 88 88 88 88 89 91 94 90 91 91 89 89 91 91 91 88 80 82 91 89 88 88 91 91 91 93 93 94 90 94 93 95 95
73 79 82 81 83 84 85 86 86 87 87 87 87 87 88 93 79 73 83 91 91 89 89 90 90 81 80 72 71 71 77 85 84 88 90 89 87 88 93 92 91 90 88
64 69 73 75 78 80 83 84 84 85 86 86 86 87 87 88 73 70 73 90 91 90 89 90 91 96 84 90 73 69 69 68 70 83 82 84 85 87 88 85 87 87 87
65 64 67 70 70 73 77 79 80 83 84 84 85 86 86 88 71 67 70 87 88 90 90 90 89 90 91 89 89 89 89 90 84 85 85 86 88 89 88 88 86 84 89
71 66 66 66 65 68 71 73 72 78 81 81 85 84 84 86 66 66 70 87 88 87 90 90 90 89 80 70 87 87 88 90 85 72 72 71 69 68 73 88 88 89 90
73 71 66 66 65 64 65 67 71 72 77 82 82 85 79 85 69 63 69 88 86 90 89 88 73 83 71 67 85 86 85 88 90 91 89 79 72 80 67 80 88 88 90
73 73 72 68 65 65 65 66 66 69 71 72 75 81 82 82 83 61 60 83 89 90 91 93 94 68 65 63 63 86 84 87 85 88 90 92 93 93 94 87 87 88 90
70 72 72 71 73 73 69 66 66 67 68 74 73 75 82 82 70 66 59 60 76 87 90 95 93 66 60 61 64 69 65 67 89 91 92 93 94 95 97 96 92 90 92
67 69 71 72 71 73 70 68 67 70 67 67 77 74 71 77 85 64 60 58 60 76 89 84 68 59 56 60 58 62 61 82 85 88 89 92 95 97 94 93 92 90 87
65 67 71 72 71 71 73 74 69 69 73 67 67 76 80 84 86 88 86 68 61 69 72 80 78 72 67 75 78 71 80 85 87 88 90 93 96 95 95 95 92 93 91
65 68 70 73 73 73 73 70 64 66 65 68 70 68 69 71 82 64 62 74 82 78 75 84 86 86 86 87 87 88 89 87 84 88 90 91 92 93 93 95 93 92 90
64 67 71 73 74 75 74 75 57 53 52 49 48 54 67 59 53 52 50 52 53 55 74 82 86 88 88 89 88 87 89 85 90 90 90 90 90 91 92 94 94 91 89
63 66 70 67 71 73 73 73 71 70 53 49 49 48 47 50 48 47 46 47 48 54 74 81 82 87 89 90 85 80 80 84 86 89 90 90 91 91 90 91 92 92 90
65 58 66 68 70 72 73 73 73 71 68 72 60 54 53 48 46 46 45 48 62 57 74 77 82 83 82 80 80 80 81 80 84 89 89 90 91 91 91 91 92 89 88
65 67 68 67 70 70 72 71 73 73 70 72 68 61 61 50 48 46 45 60 67 72 68 70 75 79 78 80 81 80 81 81 82 82 81 82 88 90 91 91 88 69 75
59 59 59 64 65 69 71 71 72 73 73 73 71 62 64 61 61 62 62 61 66 74 72 71 73 75 76 77 77 78 78 77 78 76 76 79 81 83 82 87 84 84 84
56 60 59 60 65 68 69 70 71 71 70 70 70 64 45 56 56 58 61 63 66 67 69 75 71 68 64 64 65 67 71 75 75 77 78 73 75 75 77 77 76 77 78
54 56 59 62 68 68 69 67 64 66 68 66 67 66 47 56 55 54 55 54 55 56 57 59 58 57 58 58 60 61 62 62 63 63 64 66 66 67 68 69 70 71 73
55 55 58 62 64 62 64 60 60 60 64 63 61 59 55 52 51 50 50 51 53 53 54 54 55 54 54 56 55 55 56 57 58 60 61 62 64 65 68 69 71 73 75
54 55 55 56 59 62 62 58 57 51 53 55 54 53 49 48 47 46 46 47 47 47 49 49 48 48 49 49 50 50 48 47 49 57 61 62 65 64 68 68 67 66 67
49 48 48 49 50 52 53 54 53 52 50 49 49 47 46 45 44 43 44 43 44 45 44 44 45 44 44 43 43 42 37 34 50 45 61 63 64 67 69 71 70 69 66
44 44 43 44 44 45 45 45 46 46 45 44 44 44 43 41 42 42 41 41 41 41 41 41 43 43 43 42 39 38 35 34 45 38 60 64 67 69 73 73 71 74 71

GFSGL_sfc_temp_099.txt.gz
Temp
89 91 90 90 90 89 90 90 90 91 93 91 92 92 91 90 90 89 88 90 89 89 89 90 89 89 92 95 97 96 94 94 89 93 95 97 92 94 94 95 95 96 82
88 88 90 90 89 91 89 91 91 89 91 91 91 90 91 91 91 89 88 92 89 89 89 89 89 93 88 88 92 89 91 90 89 84 89 93 93 95 95 93 96 101 99
89 93 91 90 89 89 90 90 91 90 90 91 90 90 90 90 91 91 90 89 91 90 90 90 90 90 88 90 90 91 93 92 92 90 89 94 95 97 96 95 95 95 102
79 83 87 87 89 89 89 90 89 90 89 89 90 90 90 91 91 92 92 90 90 91 92 91 91 91 89 89 89 88 89 89 89 90 91 93 95 96 96 94 94 97 97
75 79 79 83 88 88 88 89 89 89 89 89 89 90 90 92 95 91 92 92 90 90 92 92 93 90 82 83 91 88 88 89 90 91 91 92 93 92 89 93 92 95 94
66 70 73 78 82 83 86 86 86 88 89 89 88 89 89 93 81 75 82 92 92 91 90 91 92 83 82 75 73 73 78 83 84 86 88 87 85 88 92 91 90 89 86
66 64 67 69 71 76 82 84 85 82 82 84 87 88 88 89 75 70 73 91 91 91 89 91 92 97 84 91 75 72 72 69 70 82 81 83 83 86 87 85 85 86 86
69 67 66 67 67 70 71 79 80 81 83 81 82 84 87 89 72 69 70 87 89 89 89 90 89 90 90 89 90 89 88 88 84 84 82 84 86 87 86 87 86 86 88
76 75 73 70 69 68 70 69 73 77 78 80 82 83 82 87 68 66 70 88 88 86 89 89 90 90 80 72 88 88 88 90 85 73 75 74 72 71 75 88 86 87 87
75 75 76 76 68 68 68 67 70 73 77 77 80 80 77 83 71 63 69 88 86 89 88 86 75 81 72 67 85 87 85 87 89 90 91 80 73 80 68 79 86 84 86
74 74 74 76 74 74 70 71 70 71 72 73 73 76 79 80 81 62 61 83 86 88 91 92 94 70 67 65 63 86 84 86 85 88 89 91 92 92 93 87 85 86 86
70 71 71 73 76 78 74 73 70 70 68 71 69 73 78 80 69 68 59 60 75 84 86 92 93 66 62 63 66 72 68 69 88 89 90 92 93 95 97 96 88 88 91
68 68 69 71 74 75 73 72 73 71 72 70 69 68 72 80 85 67 60 59 60 73 86 82 64 59 58 60 57 61 62 81 86 86 86 89 93 96 92 92 92 90 88
66 67 69 70 71 74 77 78 78 75 73 74 77 77 78 77 79 84 80 80 63 66 66 77 76 70 61 67 75 71 79 86 86 87 87 90 93 94 95 97 94 94 93
67 68 69 72 72 75 77 79 79 79 74 74 73 74 75 77 79 58 58 65 67 64 59 70 81 84 84 85 88 89 90 87 85 86 87 89 91 93 93 96 95 94 92
65 68 70 72 75 77 78 78 62 60 55 51 51 58 73 61 54 52 48 47 47 49 63 67 71 80 86 87 88 87 86 85 90 89 88 88 89 90 91 93 94 93 91
64 67 69 67 72 73 75 74 75 72 53 50 48 48 45 51 47 45 44 45 45 48 63 69 72 76 79 82 84 86 88 93 89 91 91 91 91 92 89 91 91 92 92
64 59 67 68 70 71 74 74 76 75 75 77 57 55 49 44 44 44 45 46 67 58 63 69 70 77 75 77 80 88 88 89 88 85 84 87 90 90 89 89 91 91 91
63 64 66 69 72 70 73 73 75 75 75 76 80 64 59 50 48 48 46 60 64 65 67 68 75 79 76 75 76 79 80 80 82 79 82 83 86 91 90 91 91 74 81
59 57 57 62 65 66 69 71 72 73 74 75 77 79 80 71 70 71 72 65 63 63 64 69 73 77 74 73 73 75 78 77 76 76 77 78 82 82 85 86 87 88 90
59 57 56 57 57 61 67 68 70 74 74 75 76 74 45 70 67 67 63 61 60 58 58 60 62 68 68 69 68 66 68 70 71 73 74 76 77 77 79 79 81 81 80
57 56 55 55 57 61 63 65 70 72 73 74 75 74 45 70 70 62 59 58 56 56 55 55 57 59 59 61 62 61 62 64 65 64 64 64 66 68 70 72 73 70 71
53 53 53 55 56 55 57 60 62 64 67 68 71 73 72 71 66 59 55 53 52 51 51 52 53 54 55 55 56 57 57 59 61 60 61 61 63 64 66 66 67 68 69
52 52 52 52 53 54 55 57 54 54 57 58 62 62 61 59 56 53 50 49 48 48 48 48 49 49 49 50 50 52 53 53 54 54 59 60 61 62 65 66 66 67 67
47 46 47 47 48 50 51 52 56 56 54 54 53 54 54 52 49 48 47 46 45 44 44 45 45 45 46 46 46 47 41 33 46 46 57 60 62 64 65 67 68 68 68
46 44 43 44 44 43 44 44 46 48 48 48 48 47 47 46 44 44 44 43 43 42 41 41 41 42 43 42 41 37 34 33 42 37 55 59 60 62 63 67 67 66 69

GFSGL_sfc_temp_102.txt.gz
Temp
86 86 85 86 86 86 86 88 86 88 77 72 72 74 85 86 86 84 82 84 83 82 84 83 84 85 83 84 83 83 83 82 78 81 82 84 83 84 87 87 87 85 75
78 84 85 85 86 86 86 87 87 86 87 80 76 82 81 85 84 83 83 85 82 82 84 83 84 88 82 82 82 81 81 82 79 76 80 81 83 85 86 86 88 95 84
79 79 83 84 85 85 85 86 87 86 86 88 87 84 84 83 84 84 84 84 84 84 85 83 83 83 82 82 82 81 82 84 82 80 79 81 82 84 84 85 85 85 88
72 72 77 81 82 83 84 84 85 85 85 85 86 85 85 85 84 84 83 83 84 86 85 85 85 84 83 82 82 81 82 81 80 79 79 81 82 83 83 80 79 82 82
69 69 70 72 77 82 83 83 84 85 86 85 85 86 86 87 90 85 86 84 82 83 85 86 86 85 82 81 84 81 81 81 80 79 78 79 78 78 78 79 78 79 80
67 65 68 70 70 71 75 79 82 83 84 85 84 84 84 89 80 75 81 85 84 82 82 84 85 83 79 75 75 74 76 78 77 78 76 75 77 78 79 77 77 75 74
67 68 66 68 69 68 70 71 77 79 80 81 82 82 83 84 75 71 72 82 84 84 82 82 85 92 80 84 73 72 72 70 72 77 75 76 76 78 78 78 77 77 76
69 68 69 68 68 67 67 68 70 72 76 77 80 81 81 84 72 70 71 81 82 82 83 83 83 83 84 83 83 82 81 81 77 77 76 78 79 80 79 80 78 78 81
72 72 73 72 68 67 67 66 67 68 70 74 77 78 79 80 70 65 68 82 83 81 82 83 83 83 77 73 81 81 82 83 80 73 73 73 73 73 75 79 77 76 76
70 71 71 72 73 71 70 69 69 69 70 71 73 77 75 79 69 65 66 80 81 83 82 81 73 78 71 68 78 81 79 81 83 84 82 73 71 74 69 75 80 76 76
70 70 70 71 70 73 74 73 70 69 70 71 72 75 76 76 77 63 60 75 77 79 81 84 86 68 65 65 64 81 81 82 80 81 82 83 84 84 83 79 78 79 78
68 68 68 69 71 73 71 73 72 71 69 70 71 73 77 77 68 67 61 59 70 74 76 78 79 63 60 58 60 67 66 69 82 83 82 82 82 83 85 83 82 81 84
66 66 66 67 69 70 69 70 73 72 71 71 72 74 75 78 77 66 58 57 58 64 75 71 60 59 58 62 59 61 62 74 78 79 79 81 82 84 82 80 80 82 81
63 64 66 67 66 68 71 73 73 75 75 74 71 71 71 71 76 68 67 68 65 67 66 67 64 61 60 65 68 73 73 75 77 79 79 82 83 83 82 84 83 84 81
63 64 64 68 67 69 70 72 74 74 73 73 73 71 69 69 71 57 58 62 62 60 56 64 68 72 75 78 79 80 81 78 77 79 80 81 81 82 82 84 84 84 81
61 63 66 67 68 69 70 71 65 57 57 54 53 62 70 59 54 51 46 45 46 46 56 60 65 70 73 76 78 77 80 79 82 81 80 80 80 80 81 83 84 83 81
57 60 64 64 68 68 68 69 69 71 58 52 48 49 48 55 50 45 44 45 44 47 57 65 69 72 73 75 74 74 75 80 80 79 78 79 81 81 79 81 82 82 82
59 56 61 65 66 68 68 68 68 68 69 72 60 53 48 47 46 44 44 45 63 62 62 67 69 72 73 75 77 76 77 75 75 72 72 75 77 78 78 80 81 80 81
58 59 60 61 63 63 64 66 69 69 70 71 74 67 56 50 43 43 44 61 66 66 66 66 67 68 70 72 74 74 75 74 74 73 73 73 72 76 75 77 80 70 73
57 57 57 57 59 61 63 64 65 65 67 70 71 72 74 65 64 68 70 69 69 65 63 61 62 61 62 64 71 73 73 72 72 70 69 70 73 75 75 76 76 76 76
57 55 55 56 57 59 59 61 62 64 66 68 69 71 49 68 71 71 70 69 63 59 58 57 57 57 59 61 62 65 67 68 68 69 70 67 69 71 73 73 74 74 75
54 54 55 53 55 55 57 59 58 60 62 63 65 68 46 64 68 70 68 62 59 57 55 54 54 54 56 56 58 58 59 61 63 64 65 65 65 65 66 66 68 71 69
54 53 52 52 53 53 53 56 57 58 58 60 62 63 64 64 62 59 58 56 54 52 52 51 51 51 52 52 53 54 54 55 56 56 58 61 62 64 64 65 65 66 67
54 51 49 49 49 49 50 51 54 51 55 56 56 57 57 59 59 57 54 53 51 49 49 48 48 48 47 48 49 49 50 50 48 52 56 58 60 61 63 64 65 66 66
53 49 47 45 45 46 46 46 47 49 50 51 52 54 55 52 51 51 50 48 47 46 45 45 45 45 44 44 44 44 41 33 39 42 50 57 59 61 63 64 65 65 65
52 51 48 46 43 42 42 42 42 43 43 45 46 47 48 48 47 46 45 45 44 43 43 42 41 42 42 42 41 37 33 32 38 36 45 58 60 59 59 61 62 62 63

GFSGL_sfc_temp_105.txt.gz
Temp
68 71 76 76 76 77 76 75 76 74 73 73 73 74 74 78 79 76 76 77 76 75 76 77 77 77 76 76 76 76 76 75 71 74 76 78 78 80 82 82 82 81 74
68 70 74 75 76 76 76 78 76 73 72 72 72 73 74 76 77 77 76 79 76 76 77 76 77 81 76 76 75 74 74 74 73 71 73 77 77 79 79 80 83 88 79
70 70 72 74 76 75 77 78 79 78 76 74 73 75 75 76 77 77 77 77 77 77 77 76 77 77 76 75 76 75 75 77 75 73 73 75 77 78 79 79 79 79 82
69 69 69 69 72 74 76 77 77 78 78 77 77 78 78 78 77 77 77 77 77 78 79 79 78 77 77 76 76 76 75 74 73 73 72 73 74 77 75 74 74 75 77
66 67 68 68 69 70 72 74 77 77 77 78 77 77 78 79 83 78 78 76 76 77 78 79 79 79 78 78 78 76 74 73 73 72 70 70 71 72 72 72 71 71 73
65 65 67 68 68 68 69 68 72 75 76 76 76 75 75 80 77 73 77 77 76 76 77 78 78 78 77 74 73 74 76 73 71 70 70 69 69 71 71 71 71 70 69
66 66 66 66 66 67 68 68 68 68 72 73 75 76 76 77 73 70 71 75 76 76 76 77 79 86 79 79 74 70 70 69 72 72 69 69 70 71 71 71 71 70 70
65 66 65 65 65 66 66 66 67 68 69 69 72 74 75 77 71 68 67 72 75 76 76 76 76 77 78 77 77 77 76 77 74 73 73 77 75 78 73 74 72 72 72
64 65 66 67 66 64 63 64 66 67 67 68 69 69 70 74 68 64 65 70 73 75 76 76 76 75 73 71 75 74 76 78 76 70 71 71 72 72 72 73 72 70 73
61 61 64 64 64 63 65 66 64 66 67 67 67 69 68 70 66 63 63 70 74 71 76 76 69 75 69 66 74 75 74 77 75 78 73 70 68 72 68 72 76 71 72
61 61 62 62 62 63 63 65 67 65 66 66 68 68 70 70 70 64 60 67 71 71 71 73 76 65 59 59 59 75 78 76 77 76 77 79 77 75 75 73 74 77 75
59 59 59 61 63 65 61 63 65 66 65 65 65 67 70 72 66 63 57 57 61 67 70 73 71 57 55 56 60 62 62 64 73 76 79 79 79 79 80 78 77 77 80
55 55 56 58 60 61 60 60 63 62 62 63 63 63 65 67 67 58 57 58 59 64 66 63 58 57 57 62 59 59 60 63 66 69 74 77 81 83 82 76 76 75 78
53 53 55 55 57 57 59 60 59 61 61 63 63 62 63 63 64 64 62 65 61 65 63 65 62 59 59 61 62 68 71 74 72 72 73 77 80 80 79 79 79 80 80
52 53 54 56 55 56 58 58 60 62 61 66 62 62 61 60 63 61 56 58 58 57 54 63 65 66 67 69 72 74 75 74 71 73 75 77 78 78 78 80 79 79 77
49 51 53 55 57 57 56 56 58 55 53 51 50 54 67 58 55 53 49 44 46 48 55 56 59 61 64 67 70 72 72 71 72 72 71 71 72 72 77 79 78 76 76
48 50 53 54 56 55 56 56 56 59 56 54 53 48 47 51 49 48 43 42 44 46 52 58 59 61 65 67 69 70 70 73 73 72 72 72 73 72 70 70 71 71 74
49 53 51 51 52 54 55 55 56 57 57 60 59 56 55 49 46 46 42 45 54 49 53 57 59 65 64 66 68 69 70 73 71 72 71 70 69 68 67 67 67 66 69
49 52 51 52 52 53 54 54 56 56 57 59 61 61 59 53 46 42 42 53 56 57 59 60 62 63 62 61 61 63 65 68 69 71 70 70 69 67 67 67 67 60 62
48 54 53 49 50 52 54 53 53 54 55 56 58 60 60 59 59 61 52 54 57 58 56 56 56 58 56 56 57 60 60 64 66 67 70 70 69 68 67 66 65 65 66
47 47 53 47 47 49 52 53 54 54 54 54 56 59 51 53 56 59 61 59 55 54 52 54 53 53 53 54 54 56 57 59 61 63 65 66 67 66 67 68 69 69 68
46 46 46 46 47 48 49 52 52 52 53 53 54 56 50 53 55 52 51 51 50 50 50 49 49 51 51 51 51 51 52 54 56 58 58 60 62 64 65 66 66 67 67
45 45 44 44 45 47 45 48 49 49 50 52 53 53 54 54 54 52 52 49 48 47 47 46 47 48 49 49 49 49 49 49 51 52 53 55 57 59 62 63 64 64 65
45 44 43 42 43 43 43 43 45 45 46 47 49 50 51 51 50 52 48 49 48 47 45 46 46 46 46 46 46 46 46 47 46 45 47 50 54 56 59 61 62 63 64
44 44 42 40 40 40 41 41 42 43 43 44 44 45 46 48 48 48 47 46 45 45 44 43 43 43 43 43 42 43 40 34 37 37 42 47 51 55 58 60 62 64 64
44 46 42 45 44 40 39 40 40 40 40 41 42 43 43 44 44 45 45 44 43 42 42 42 41 41 41 40 40 37 34 32 35 34 39 46 51 56 59 59 62 61 61

GFSGL_sfc_temp_108.txt.gz
Temp
68 69 70 72 74 73 73 73 74 73 72 72 74 73 74 75 75 74 73 75 74 73 74 74 74 75 74 74 73 73 72 71 68 71 73 76 77 78 82 79 80 80 74
69 69 70 72 73 73 74 73 73 73 72 73 72 71 72 74 75 74 74 77 75 74 75 74 74 78 74 73 73 73 72 72 71 70 71 74 76 77 77 77 80 84 77
69 69 69 70 72 74 73 74 73 73 72 72 71 70 71 73 74 75 75 75 75 75 75 74 75 74 73 73 73 72 72 74 72 70 70 72 73 75 76 75 76 76 79
68 69 68 68 69 70 72 73 73 74 73 72 71 73 73 75 75 75 75 74 74 75 75 75 76 75 75 75 74 73 73 71 71 70 70 70 71 73 72 71 71 71 72
66 67 68 68 68 69 69 69 72 73 74 74 73 74 74 76 79 75 75 74 74 74 75 76 76 76 75 75 78 75 73 71 70 70 69 68 68 68 69 70 68 69 70
64 66 66 67 67 68 68 69 69 69 72 72 73 74 74 77 74 71 75 75 75 74 75 75 75 75 75 72 70 71 74 72 70 68 67 67 67 68 69 69 68 67 67
64 65 64 65 65 65 67 67 68 67 68 69 70 72 73 74 70 69 69 73 73 73 73 74 77 82 75 77 74 70 68 68 71 73 69 68 67 69 69 68 68 68 68
64 63 65 64 64 65 65 65 66 67 68 68 68 68 69 72 65 65 66 69 71 72 73 73 73 74 75 75 75 74 75 75 72 72 72 76 73 75 71 71 70 69 70
62 61 63 64 63 63 63 64 65 65 66 67 68 68 68 69 63 62 64 69 70 71 73 74 74 73 70 68 73 72 72 74 75 68 68 68 68 68 69 70 70 68 69
57 58 59 60 61 61 63 64 64 64 64 65 67 68 65 68 64 61 63 68 69 70 72 72 66 67 61 59 68 72 73 75 75 73 74 70 67 70 66 71 73 69 68
57 57 58 58 58 60 60 61 62 64 64 64 65 65 68 67 68 61 60 68 68 69 70 71 70 58 56 56 57 65 67 69 69 70 72 73 73 73 73 71 71 73 71
54 54 55 55 58 60 57 60 61 61 61 62 62 64 68 68 59 56 56 57 61 65 65 66 65 55 53 55 59 61 59 60 67 67 69 71 74 77 77 75 75 74 78
51 51 52 53 55 55 54 57 58 58 59 60 61 60 63 65 64 56 57 58 59 64 67 63 56 55 54 57 58 59 59 64 64 65 69 72 75 78 79 75 74 75 75
48 49 50 50 53 53 54 55 54 56 56 58 59 62 61 61 64 60 61 59 59 60 61 63 62 59 57 59 59 65 66 68 69 68 70 73 75 74 75 77 76 77 75
47 48 48 50 49 51 53 52 54 55 54 55 56 58 58 60 64 59 58 59 57 53 54 56 57 58 62 63 65 68 69 69 69 70 70 70 72 73 74 76 75 75 73
45 46 46 47 48 51 51 53 54 51 51 49 47 49 58 54 51 49 47 45 44 47 55 55 55 55 56 59 61 64 66 67 68 70 70 70 69 70 72 75 72 73 73
43 45 45 47 47 47 49 49 49 53 52 51 49 49 48 47 46 46 43 42 43 46 53 53 54 55 58 64 61 63 65 68 68 68 69 70 71 71 69 70 70 70 70
44 49 44 44 45 46 47 47 49 50 50 53 54 52 51 48 46 44 40 42 48 47 53 53 54 58 58 58 58 58 60 61 63 64 66 69 70 69 69 69 69 69 68
44 44 45 44 45 47 46 46 49 49 49 51 54 53 53 49 49 44 41 47 51 55 54 55 57 55 55 56 57 56 57 58 57 60 62 65 67 68 69 69 68 60 62
44 52 51 43 44 44 45 47 48 48 49 50 50 52 54 53 53 55 55 53 52 54 54 54 53 55 55 54 53 53 54 55 56 56 57 60 63 65 66 68 68 66 65
42 43 51 43 43 43 44 45 46 47 48 49 49 52 48 48 51 53 51 50 53 53 52 52 51 50 51 51 52 51 52 52 52 53 54 56 59 59 62 64 66 66 67
42 41 41 40 41 41 41 43 43 44 45 46 47 50 47 51 51 51 50 49 50 52 51 50 49 50 50 49 49 49 49 48 49 50 51 52 52 53 56 59 62 64 65
42 42 41 40 40 43 39 39 40 41 42 44 44 45 47 49 50 50 51 51 48 47 49 48 47 47 48 47 48 47 46 46 47 48 47 47 47 49 52 55 57 60 61
42 42 41 39 39 38 38 37 38 40 41 41 42 44 45 45 45 47 49 49 48 46 44 46 46 46 45 45 45 45 44 44 44 43 42 41 43 45 49 52 55 58 60
41 41 40 38 38 37 36 39 42 41 41 41 41 42 42 43 44 45 46 46 46 45 44 42 44 44 42 40 40 39 38 34 36 37 38 39 40 43 46 49 52 56 59
40 40 39 38 37 37 41 37 39 39 39 39 39 39 39 40 41 42 43 44 44 44 44 43 42 41 38 38 38 36 33 31 34 34 36 37 40 44 48 50 53 56 59

GFSGL_sfc_temp_111.txt.gz
Temp
69 70 70 71 72 71 71 71 71 71 71 72 72 73 74 74 74 73 72 73 73 72 73 72 73 73 73 73 72 71 70 69 68 70 71 74 74 76 78 77 78 76 73
68 69 69 69 70 71 72 73 73 71 71 71 71 72 72 73 74 73 73 75 73 72 73 72 72 76 72 72 71 71 71 71 69 68 69 72 73 75 76 75 77 81 75
69 69 68 68 70 71 72 73 73 72 72 71 70 71 70 71 72 73 73 73 73 73 73 72 73 72 71 71 71 71 70 72 70 69 69 70 71 72 74 74 73 73 76
68 68 68 68 69 69 71 71 72 72 72 72 71 71 71 71 72 73 74 73 73 74 74 74 74 73 73 73 73 72 72 70 70 69 69 69 69 71 70 69 69 68 70
67 68 68 67 68 68 68 68 69 70 72 72 72 71 72 73 76 73 73 73 73 73 74 74 74 75 73 73 74 73 72 71 70 69 68 67 67 67 67 68 67 67 69
66 65 66 65 67 67 67 67 67 68 69 70 71 73 72 75 72 69 73 73 73 72 73 73 74 74 73 71 69 69 72 71 70 68 67 67 67 66 67 67 66 66 65
62 62 63 64 64 65 66 66 66 67 68 69 69 69 69 70 63 64 67 71 72 71 72 72 73 79 74 75 72 68 68 67 70 71 69 68 67 69 68 67 66 66 66
60 60 61 61 62 64 64 64 64 65 65 66 67 68 67 69 62 62 64 67 69 71 71 72 71 72 73 72 73 72 73 73 71 70 70 73 71 73 71 71 69 68 68
60 58 58 59 60 61 60 62 64 64 64 65 66 66 67 68 63 61 64 68 69 69 70 71 71 71 67 64 69 70 71 72 72 67 66 66 66 66 68 69 67 67 69
58 57 57 59 59 59 59 61 62 63 64 64 65 66 64 67 63 62 63 68 67 68 69 70 61 63 57 58 66 67 68 70 70 70 71 70 68 69 65 70 70 68 68
54 55 55 55 56 56 56 57 60 62 63 63 64 64 66 65 65 57 57 67 66 68 69 69 68 58 56 55 56 65 66 69 69 70 70 69 71 71 72 69 71 72 70
53 53 52 52 55 56 53 55 56 57 59 60 62 64 66 65 58 56 55 58 61 64 64 66 64 54 52 53 55 59 58 59 66 67 69 67 69 71 75 75 74 72 76
50 49 49 51 52 53 52 52 52 53 56 57 59 59 62 65 64 56 55 58 60 61 64 61 55 54 54 57 59 58 58 62 64 65 66 69 71 73 73 72 73 73 73
46 46 48 48 48 49 51 52 51 52 53 54 55 56 58 61 61 60 60 59 58 59 59 57 58 56 56 58 58 62 63 64 64 65 66 70 71 69 69 71 71 73 70
45 46 45 46 46 47 48 48 50 49 48 48 50 50 52 55 60 52 48 53 53 52 53 56 56 56 56 57 58 61 63 64 64 66 67 68 70 70 71 72 71 71 69
43 43 43 44 44 46 45 46 50 49 48 46 45 47 52 51 47 45 44 42 42 47 53 54 54 56 55 56 58 60 61 62 62 62 64 65 66 68 70 71 71 69 69
42 42 42 44 44 43 44 43 44 49 50 49 47 47 45 46 45 44 41 40 44 48 50 51 52 54 55 57 57 56 55 56 57 58 61 61 63 66 67 69 69 69 69
42 48 42 42 42 42 43 43 43 43 44 46 49 48 47 45 46 43 41 46 49 47 47 50 52 53 56 55 53 53 53 54 55 57 55 59 61 62 63 66 67 67 68
43 42 42 41 41 43 42 43 43 43 43 43 45 47 48 47 46 46 42 47 49 51 51 52 53 56 56 55 53 54 54 54 54 55 55 55 56 58 60 61 63 58 61
42 51 47 40 40 40 40 41 41 41 42 43 44 45 48 48 47 49 49 51 51 53 53 54 54 54 53 51 53 52 52 52 52 53 53 53 54 55 56 57 57 59 61
41 41 49 40 39 39 39 39 39 40 40 41 42 45 44 44 45 47 48 48 51 53 52 52 51 51 51 51 48 51 51 50 51 51 50 51 52 52 53 53 53 56 58
41 40 40 39 39 40 39 39 38 39 40 40 40 43 43 43 44 44 45 48 51 51 50 48 48 49 46 49 49 48 48 48 48 48 48 48 49 49 50 50 51 52 55
41 40 39 39 39 42 38 38 37 36 38 40 39 40 41 41 42 43 46 46 46 47 49 48 47 46 46 46 48 47 46 46 46 46 45 45 45 45 46 46 47 48 50
41 40 40 39 38 37 37 36 36 38 39 39 41 41 41 40 41 42 44 46 45 45 47 47 46 46 46 46 45 45 46 45 45 44 44 42 41 42 44 45 46 48 50
40 39 38 37 37 37 36 36 35 36 37 38 40 41 40 40 40 40 41 43 43 43 44 45 45 45 45 45 44 42 40 35 36 38 39 38 39 40 42 43 45 46 48
39 40 38 37 36 36 35 35 35 35 34 37 38 39 39 38 38 39 39 39 40 41 42 43 44 44 44 43 42 39 35 33 35 34 35 37 38 40 42 43 45 46 48

GFSGL_sfc_temp_114.txt.gz
Temp
71 72 71 72 73 72 71 70 72 74 74 74 73 74 75 75 76 75 75 76 76 76 76 76 77 77 76 75 78 77 77 76 75 77 77 80 79 80 82 82 83 83 82
69 70 70 71 72 73 73 73 72 72 73 74 74 74 75 75 76 76 76 77 76 76 76 76 76 79 77 76 77 76 76 76 76 73 76 78 79 80 80 80 82 86 82
69 69 69 69 70 71 73 74 74 74 73 72 72 73 73 74 75 75 76 76 76 76 76 76 77 77 76 76 76 77 77 77 75 75 75 76 78 79 79 79 79 79 83
68 68 67 68 70 70 71 73 74 74 74 73 73 73 73 74 74 75 75 75 76 77 77 77 76 77 77 77 77 77 77 76 75 74 75 75 76 77 76 76 78 78 79
67 68 67 68 69 69 69 70 71 72 73 74 73 74 74 74 77 74 76 76 75 76 77 78 78 77 73 74 78 77 76 76 76 75 74 74 75 76 75 76 74 75 78
65 64 65 66 67 67 68 68 69 70 70 71 71 72 73 75 64 67 71 76 76 76 76 77 78 74 75 70 69 69 73 76 76 75 75 74 74 74 74 75 74 74 74
61 61 62 65 65 65 66 67 67 67 68 68 69 69 70 70 62 63 67 75 75 75 75 76 77 81 75 78 71 68 68 67 70 77 75 75 74 76 75 75 74 73 74
60 60 61 61 61 63 64 65 64 65 65 66 68 69 69 69 62 61 64 72 72 73 73 74 74 75 76 74 76 76 77 78 76 76 75 76 76 77 76 77 75 74 74
59 58 59 60 60 60 61 62 63 65 65 66 67 68 68 69 61 60 64 70 71 72 73 73 73 74 62 61 73 74 75 76 73 66 66 66 66 66 69 74 74 72 75
58 58 58 59 58 58 59 60 62 63 64 65 65 65 63 68 58 59 62 69 69 70 71 70 61 64 57 57 69 71 71 74 75 76 77 74 69 73 65 73 77 74 76
57 57 57 58 58 57 58 59 59 60 61 62 63 63 64 63 62 56 57 66 67 68 68 68 69 60 57 56 55 64 68 69 70 72 73 75 76 76 78 77 75 76 76
54 54 54 54 57 57 56 56 56 56 57 58 59 62 64 64 58 58 54 56 60 63 65 67 66 54 51 53 56 58 57 58 68 70 71 72 73 75 77 78 78 77 78
52 51 52 53 54 54 54 54 55 54 55 56 58 58 59 62 63 56 56 56 57 62 66 62 56 54 54 59 58 57 57 67 67 68 70 71 73 75 76 76 76 76 76
49 49 51 51 51 52 53 54 53 53 53 54 54 54 56 59 59 57 57 58 58 61 60 61 59 56 55 59 63 65 69 69 68 68 69 71 73 74 73 75 74 75 75
48 49 49 49 49 50 51 51 53 53 51 53 53 53 54 54 55 48 47 52 49 50 51 61 63 63 63 64 65 67 67 66 64 63 64 67 69 70 70 72 72 72 71
47 47 48 48 48 49 49 50 49 48 47 45 45 48 54 49 45 45 42 40 42 46 55 58 59 60 61 62 62 63 65 61 61 60 62 62 61 63 66 68 69 69 68
45 46 47 48 48 48 48 48 47 49 48 46 45 45 45 44 44 43 40 41 44 47 56 57 57 58 60 60 62 61 61 60 59 60 57 56 59 60 61 62 64 64 65
47 47 46 46 47 47 47 47 48 47 46 48 48 46 45 44 44 44 42 47 55 54 54 56 56 57 58 59 59 58 60 60 59 58 57 59 58 57 56 58 59 61 61
47 47 46 47 47 47 47 47 47 46 46 46 48 47 47 44 44 44 43 52 52 53 54 55 59 58 55 55 55 55 54 56 56 54 55 55 56 56 57 58 59 53 54
48 49 47 46 46 46 46 45 45 44 44 44 45 45 47 46 46 47 50 51 51 52 54 55 55 54 53 53 53 53 53 54 55 56 54 53 53 53 53 55 56 54 54
47 49 48 46 46 45 45 45 44 44 44 44 44 45 42 44 45 46 47 47 48 49 49 50 53 52 52 52 52 52 51 51 52 52 53 52 52 51 51 51 52 52 53
47 47 46 46 46 46 45 45 45 44 44 44 44 45 42 45 44 44 44 46 47 48 49 47 47 49 49 49 50 51 50 49 51 51 50 50 49 49 49 49 48 49 50
47 46 46 46 46 45 45 45 45 45 44 45 45 45 45 45 44 44 43 44 44 46 46 46 45 46 48 49 50 49 47 47 49 49 47 46 46 45 46 45 45 45 46
47 47 46 46 45 45 45 45 45 42 43 44 44 44 44 44 43 43 43 43 43 44 44 44 45 45 46 46 48 48 48 48 47 45 45 43 42 42 43 43 43 44 45
47 46 46 46 45 46 45 45 45 44 44 43 43 43 43 42 42 42 42 42 41 41 41 42 42 43 44 45 46 46 44 36 39 39 41 40 40 40 40 41 42 43 44
47 46 45 45 44 43 43 43 44 43 43 43 43 43 42 41 40 40 40 40 39 39 40 41 41 42 43 43 43 40 35 33 36 34 37 38 37 39 40 41 43 43 45

GFSGL_sfc_temp_117.txt.gz
Temp
81 80 79 79 81 81 81 80 81 81 82 83 83 83 84 84 84 83 83 84 83 84 85 85 84 84 88 88 89 89 88 87 84 89 89 90 87 88 90 91 93 93 93
82 80 79 80 80 81 80 81 81 81 81 81 82 83 82 83 83 83 83 86 83 83 84 84 84 88 84 85 88 84 86 86 85 81 85 88 86 87 87 87 90 96 92
77 78 78 78 79 80 81 82 82 82 81 81 80 81 82 83 82 83 84 85 85 84 84 84 84 84 84 87 85 86 87 86 85 85 85 88 88 89 87 89 87 88 95
74 71 73 75 75 74 77 81 82 82 81 81 80 81 81 83 83 84 83 84 84 85 85 84 84 84 83 83 84 83 84 83 85 83 85 87 87 87 86 86 87 91 89
71 71 70 72 74 74 74 76 80 81 82 82 81 81 81 81 86 83 83 83 84 84 86 85 86 83 75 76 83 82 84 84 87 86 86 86 87 87 85 86 86 88 90
67 69 69 72 72 70 71 72 74 76 77 78 79 80 81 84 64 66 74 84 83 82 82 84 85 78 77 69 69 69 75 81 81 85 85 83 82 84 87 86 85 84 83
61 64 65 67 70 70 70 69 70 72 75 76 76 76 74 75 63 64 67 83 83 83 83 83 84 90 80 86 75 69 69 67 69 80 80 82 82 84 83 81 83 83 83
60 63 63 63 66 68 70 71 71 73 73 73 74 75 75 74 61 61 64 80 81 80 81 81 81 82 80 77 83 84 85 86 83 85 83 84 85 85 83 84 81 80 84
59 60 63 67 67 65 65 67 69 70 71 72 73 72 74 72 61 61 68 75 78 78 79 77 78 80 61 61 78 81 82 84 77 69 67 66 66 66 70 81 83 83 84
59 58 62 64 64 64 64 63 66 67 68 72 72 72 64 70 57 57 67 77 73 75 72 69 61 65 58 57 71 74 77 81 80 81 83 79 72 79 66 77 83 81 83
58 59 59 61 60 61 63 65 67 68 69 68 69 70 70 65 63 55 55 70 73 75 77 76 75 57 54 54 55 69 70 67 73 77 80 83 85 85 86 85 82 81 81
58 58 57 57 60 62 62 63 64 65 63 64 64 69 68 68 57 56 54 55 58 67 73 76 73 53 52 54 61 58 57 60 80 80 81 81 82 83 85 84 82 82 83
57 56 57 58 59 59 59 60 61 63 66 65 67 68 68 69 68 56 55 55 57 68 71 62 56 53 55 63 59 58 59 78 77 77 78 77 79 80 79 80 80 80 81
56 56 57 58 57 59 60 60 61 63 64 64 64 64 66 66 64 65 66 69 62 64 59 69 63 58 55 61 68 72 76 76 74 75 72 76 79 79 79 80 78 74 74
56 58 58 58 58 58 58 58 60 56 56 60 61 63 63 62 58 49 49 59 60 56 57 71 69 68 69 71 74 74 70 68 71 73 73 73 74 74 76 78 77 76 75
58 58 58 58 58 59 60 58 48 48 46 44 44 50 59 48 45 43 41 41 42 45 64 66 67 68 68 68 69 72 75 70 71 70 71 69 69 70 71 73 75 74 72
58 58 58 58 58 57 58 60 59 53 48 45 44 45 44 43 43 43 41 41 46 50 66 67 65 66 66 68 70 69 68 69 67 69 69 68 69 70 68 69 71 71 71
59 52 59 59 59 58 58 57 59 58 57 57 49 47 44 43 43 43 44 48 63 61 65 60 61 66 64 61 60 60 60 61 62 65 65 65 66 67 67 68 69 69 69
60 60 59 59 58 57 58 58 59 57 56 56 58 52 51 45 44 44 46 58 58 60 63 63 64 65 65 63 63 60 59 61 60 61 66 65 61 57 58 62 65 56 58
59 55 57 58 58 58 58 58 57 56 56 56 56 55 55 54 55 55 56 56 56 58 59 56 54 51 53 58 59 60 60 61 61 62 62 61 61 61 57 56 59 59 60
61 58 56 58 58 58 58 58 58 58 57 56 56 52 41 51 53 53 53 54 54 55 55 55 55 55 54 51 51 52 53 55 57 57 58 58 56 54 54 54 53 54 55
62 60 59 59 58 57 58 58 58 58 59 58 58 55 43 55 55 54 53 53 52 51 51 51 51 53 54 52 49 49 49 49 50 51 52 53 54 53 52 50 49 50 51
61 60 59 58 58 54 55 58 58 59 59 59 58 57 56 55 55 54 52 53 52 49 48 47 46 47 50 50 51 51 49 50 50 48 46 46 46 47 48 48 47 46 46
61 60 60 59 58 58 57 57 57 49 56 58 58 57 56 55 54 53 52 52 49 47 47 45 44 44 45 46 46 48 50 50 49 49 47 45 44 43 43 43 44 45 45
56 57 59 59 58 58 58 57 58 58 57 57 56 56 56 55 54 53 52 51 49 46 44 43 42 43 43 43 44 44 43 34 40 39 41 42 40 40 41 42 42 43 44
54 55 59 60 59 58 58 57 58 58 57 57 57 56 55 54 53 52 51 49 45 43 42 41 41 41 41 41 42 40 34 33 37 34 37 38 38 39 40 41 42 44 45

GFSGL_sfc_temp_120.txt.gz
Temp
88 88 87 88 88 87 88 87 87 88 88 88 88 89 89 89 89 87 88 89 87 88 89 89 89 90 94 95 95 95 94 93 89 94 96 96 91 92 93 94 97 98 90
89 87 87 87 88 88 86 86 88 85 86 87 88 88 88 89 89 88 88 91 88 88 88 88 88 93 88 89 93 89 91 90 89 84 91 94 92 92 92 91 95 101 97
88 88 88 86 87 87 87 87 88 87 87 87 87 86 87 89 88 88 88 88 89 89 89 89 88 89 87 90 89 90 94 93 91 90 89 96 95 96 92 94 93 94 101
87 87 85 85 85 86 86 86 86 87 86 87 87 86 87 89 89 90 89 88 88 90 90 90 89 88 87 87 88 88 89 88 90 90 91 92 95 95 94 93 92 97 96
76 78 78 79 82 83 83 84 87 88 88 88 87 88 88 89 93 88 89 88 88 88 89 90 91 87 76 79 89 88 86 88 91 92 91 93 93 91 89 93 92 94 94
74 73 75 77 78 78 79 78 80 85 87 87 87 87 87 92 65 67 76 89 89 88 87 88 90 82 80 72 71 70 75 81 83 87 89 88 86 89 92 91 89 89 87
68 74 73 75 76 77 76 76 74 76 80 82 84 82 80 80 63 64 68 86 88 87 87 88 90 96 82 90 75 70 70 68 69 81 82 84 85 87 87 84 84 85 86
61 63 66 69 71 73 74 75 76 76 76 77 78 79 77 73 61 62 65 85 85 85 87 87 86 87 74 77 84 87 89 90 86 89 86 87 87 86 85 83 82 82 87
60 60 63 64 65 67 68 72 76 77 76 76 76 77 72 70 58 59 68 84 82 80 76 74 79 73 62 62 79 83 84 87 80 70 67 67 67 67 71 84 85 80 85
63 60 62 63 66 63 63 68 72 75 74 80 73 73 67 71 56 57 66 85 79 83 77 75 62 65 58 58 74 78 78 81 78 79 83 81 74 82 67 80 81 76 78
61 61 60 65 62 65 66 68 69 73 74 69 68 70 69 67 63 55 56 76 77 79 80 76 78 58 54 55 56 77 74 71 75 80 85 89 90 90 89 83 84 83 80
60 60 58 60 62 64 65 68 71 70 70 70 71 74 72 71 58 57 55 57 60 77 76 74 73 55 53 54 63 59 59 61 84 86 86 87 87 88 89 87 84 84 85
60 60 60 60 60 61 63 65 67 69 75 74 77 76 76 76 74 59 57 58 60 73 74 66 56 55 56 64 59 60 59 83 83 82 83 83 84 86 83 84 85 84 82
61 62 63 63 63 63 65 65 67 69 68 67 69 72 73 73 70 70 72 73 65 70 68 76 69 61 60 68 69 71 76 76 78 79 80 82 84 84 83 84 83 84 83
64 66 65 65 64 63 61 60 61 56 57 67 67 65 66 65 58 49 51 62 65 63 57 76 77 78 77 78 78 79 80 82 79 79 78 79 79 80 80 82 81 81 79
65 67 68 68 67 67 64 60 48 47 45 44 44 52 60 47 44 43 42 43 43 44 67 74 74 75 75 74 76 77 78 75 77 76 76 77 76 77 77 77 79 78 77
67 67 67 67 68 66 67 65 60 53 47 44 44 44 44 42 43 43 43 44 46 50 73 72 72 73 74 73 72 70 69 70 67 70 70 72 73 74 74 76 76 77 76
68 53 70 70 69 68 68 67 69 67 65 61 47 49 45 45 44 43 45 51 68 66 71 70 70 71 71 71 71 72 70 69 69 67 66 69 71 71 69 70 71 72 72
68 69 70 70 69 67 69 69 68 66 67 67 67 53 54 48 46 46 46 65 64 65 66 66 65 66 63 63 64 65 64 67 66 66 67 69 66 64 65 66 68 58 60
67 59 64 68 66 68 69 69 68 67 66 66 66 63 63 63 64 64 64 63 63 64 63 63 63 63 63 63 61 59 59 57 59 58 60 60 60 60 60 60 60 61 61
68 65 62 68 68 68 69 69 69 69 68 68 66 55 42 58 63 62 62 62 61 61 60 60 59 60 60 61 61 59 55 52 53 55 55 56 58 57 57 56 56 56 56
69 67 65 67 67 65 66 67 67 68 69 69 69 60 45 60 64 63 62 61 62 60 60 57 56 56 56 56 55 52 54 53 53 54 52 51 51 51 51 50 51 51 52
70 69 67 67 66 60 63 66 66 66 67 68 69 69 68 67 66 64 62 62 61 60 59 57 55 53 52 51 51 50 47 48 49 50 48 48 48 48 48 47 47 47 47
69 69 68 67 66 65 65 65 65 55 62 66 66 66 65 65 65 63 62 62 60 60 59 56 53 49 48 48 48 48 48 48 45 45 45 44 44 45 46 46 45 45 45
65 68 67 66 66 64 66 65 66 65 65 65 64 65 65 64 63 63 63 62 61 59 56 54 51 49 47 46 46 46 41 33 39 38 44 44 42 42 43 43 44 45 45
57 58 63 66 67 66 66 65 65 65 65 65 65 65 64 64 63 63 62 61 60 58 56 54 49 46 46 46 45 38 34 32 37 34 38 38 38 39 41 42 42 43 44

GFSGL_sfc_temp_123.txt.gz
Temp
91 90 90 90 91 88 88 88 89 89 91 90 90 90 90 90 91 89 89 89 89 89 90 89 89 90 92 94 95 96 95 94 88 91 95 97 93 93 94 95 96 96 89
91 90 90 90 90 90 89 90 89 87 87 88 89 89 90 90 91 89 88 91 89 88 89 89 89 93 90 90 93 90 92 91 89 84 88 94 93 95 94 92 96 101 98
91 91 89 89 89 89 89 89 91 88 88 89 88 87 89 90 89 90 89 89 90 91 91 90 90 90 88 90 89 89 92 92 91 89 88 94 95 96 95 94 94 94 100
88 88 87 88 88 89 89 89 89 88 86 87 87 88 89 90 91 91 90 89 90 92 92 91 91 90 89 87 89 88 89 88 90 90 91 93 96 92 92 93 93 97 96
84 86 84 83 85 88 87 87 88 86 82 88 86 87 89 91 89 90 91 90 89 89 91 91 91 88 78 79 88 86 83 87 89 89 90 92 91 89 88 93 92 93 93
81 80 81 82 82 83 85 85 86 87 88 88 88 88 88 90 65 67 75 90 90 89 88 90 91 82 82 76 73 72 76 81 81 84 86 85 83 86 90 88 87 86 83
76 76 77 76 76 80 81 80 81 82 84 84 85 86 85 79 63 65 69 85 87 90 87 86 90 89 81 89 76 71 70 69 72 82 81 82 82 84 84 82 82 82 83
63 64 67 71 72 75 78 78 78 79 79 80 81 81 75 69 60 61 64 80 85 86 84 84 83 79 70 74 82 85 87 89 81 82 82 84 85 84 82 83 81 81 85
61 61 62 64 66 67 70 72 75 77 75 74 74 71 70 69 58 59 65 83 82 79 77 76 78 76 61 62 80 81 82 85 79 70 69 69 69 68 71 84 84 80 81
62 61 63 62 62 62 65 64 69 73 73 71 70 70 66 70 57 58 63 79 80 79 80 74 60 67 59 58 75 78 78 79 78 80 82 82 76 81 68 78 82 75 75
67 65 62 61 62 63 63 63 64 68 68 68 67 66 68 69 65 57 59 78 80 83 84 83 78 59 56 56 57 75 73 70 75 79 85 89 91 91 87 78 80 83 80
65 62 61 62 60 66 68 66 65 65 67 66 67 63 61 61 59 57 57 58 63 80 78 81 77 56 55 56 63 60 60 63 82 86 86 86 87 86 88 85 83 84 86
61 60 65 65 64 66 60 65 66 70 68 68 68 73 75 78 75 60 59 60 63 74 75 68 59 58 57 63 61 61 61 79 80 80 80 83 84 85 83 83 84 84 82
60 62 63 64 65 67 67 71 71 69 69 73 73 74 77 74 70 69 71 73 68 73 68 74 71 66 62 64 67 76 80 80 79 77 77 70 74 77 81 83 82 82 82
65 65 66 68 65 65 63 64 61 55 55 66 64 63 66 63 58 50 51 62 64 62 54 75 79 79 79 79 79 80 80 80 79 80 79 78 78 79 79 81 80 79 78
63 69 71 70 72 68 66 61 47 48 46 44 45 53 55 48 45 44 43 43 44 46 64 75 75 75 76 76 75 74 74 73 74 72 73 74 75 75 76 76 78 78 76
64 67 66 68 73 71 69 67 61 53 46 45 45 46 45 45 45 44 43 43 46 50 66 72 70 71 71 73 75 74 73 73 70 72 71 71 71 72 72 73 73 73 73
70 57 71 73 74 73 73 72 71 67 65 62 47 51 47 45 46 45 45 51 68 62 69 67 66 66 65 66 67 67 67 68 69 68 68 69 70 70 68 67 68 68 68
68 71 75 75 74 71 73 73 74 71 70 70 66 52 52 50 49 47 46 67 67 68 68 67 67 67 66 66 65 63 61 62 61 63 64 65 64 65 64 64 63 57 57
71 62 65 68 66 69 72 73 72 71 70 71 70 67 68 66 67 66 66 64 65 65 64 64 64 63 62 62 63 63 64 62 59 58 59 59 59 58 57 57 56 55 56
70 70 65 72 72 73 72 72 73 72 71 71 68 59 43 64 68 67 67 66 65 64 62 62 60 60 60 60 59 59 59 58 59 58 56 55 55 54 53 55 56 57 56
71 70 69 71 72 70 71 72 71 71 72 71 70 60 48 63 71 69 67 67 66 65 64 61 60 60 59 57 56 56 55 54 53 52 49 48 48 48 50 49 49 49 49
73 71 69 70 70 64 68 70 70 70 71 71 71 71 68 71 70 69 67 67 66 65 65 63 61 59 58 57 56 54 51 49 48 46 44 45 45 46 46 47 48 48 48
72 71 71 70 70 69 68 67 69 59 66 70 70 69 69 69 68 68 67 67 66 65 65 63 61 58 57 55 55 55 53 48 45 46 44 43 44 45 45 45 46 46 46
62 68 67 68 69 67 68 69 69 68 67 67 67 68 68 68 67 67 68 67 65 64 63 62 61 59 56 54 52 50 42 33 41 37 44 42 41 42 43 44 45 45 46
65 62 54 54 61 68 67 68 68 68 68 68 68 68 68 68 68 67 67 67 65 65 63 62 61 57 53 52 50 40 34 32 39 33 38 39 39 41 42 42 43 42 41